GFSWCAN_925_rhum_000.txt.gz
RH
86 89 88 84 81 83 81 73 80 82 82 82 80 82 78 84 90 96 90 98 100 97 86 70 74 89 88 84 88 92 93 98 99 99 99 98 99 90 86 72 85 89 88 86 91 91 72 56 60 71 58 57 62 67
86 90 88 84 85 83 84 85 84 84 82 83 80 82 79 79 91 93 92 84 100 100 89 86 73 67 67 68 84 91 89 93 92 97 94 90 94 93 87 88 78 90 75 77 78 72 57 56 58 57 60 64 65 74
90 90 84 88 86 83 83 82 83 82 83 82 81 84 80 82 88 96 92 91 92 98 90 91 85 75 73 70 65 91 94 87 96 98 96 92 89 90 92 88 81 73 74 79 71 58 63 55 58 62 69 68 73 79
94 90 85 88 85 84 81 83 85 85 84 84 84 79 81 84 90 94 96 86 96 99 97 86 84 85 85 82 78 77 91 97 98 99 98 94 88 81 86 80 84 79 70 73 74 66 60 57 61 73 81 78 75 73
93 85 91 87 86 85 83 82 79 78 78 77 76 78 80 85 91 90 79 74 77 99 99 96 87 96 96 95 94 93 95 97 98 99 98 97 90 89 93 88 89 78 76 74 80 64 59 58 71 73 76 77 70 70
94 92 92 87 86 86 83 80 78 76 75 76 75 74 79 85 92 92 97 100 100 100 100 93 92 98 100 99 98 97 97 98 99 98 98 96 83 86 95 95 72 72 68 66 64 62 76 78 73 67 76 74 69 69
94 90 85 88 88 86 85 82 79 77 75 74 79 77 79 83 88 93 89 97 89 95 100 100 96 95 95 88 94 99 98 98 99 93 99 97 94 89 94 95 68 70 68 64 68 69 69 68 71 74 73 77 75 76
95 88 86 88 88 87 86 84 81 77 70 72 78 83 87 94 91 94 80 76 79 99 99 100 100 97 95 98 99 97 98 98 99 97 97 97 91 90 98 83 73 71 77 76 71 70 65 79 81 81 75 69 72 76
88 82 88 89 87 86 87 86 82 76 76 80 84 87 97 88 92 92 95 99 88 99 98 99 99 99 96 97 95 99 97 99 97 98 98 97 95 98 82 78 78 78 71 80 83 80 78 77 81 76 70 68 70 78
86 80 88 90 89 90 89 87 78 78 79 76 88 91 98 92 76 85 99 99 100 100 99 99 91 96 93 98 100 97 96 99 100 96 93 99 97 78 75 68 65 74 78 76 80 89 87 86 82 75 68 64 66 71
86 84 84 90 90 91 90 84 78 82 78 95 98 98 92 86 98 99 100 100 100 100 99 98 93 92 94 97 96 94 99 99 99 92 98 98 94 86 78 82 77 74 71 67 61 66 65 66 71 69 70 69 70 69
95 90 88 88 90 91 83 81 85 85 88 96 98 98 99 99 100 100 100 100 97 96 98 98 98 90 96 90 93 94 97 98 91 93 99 97 88 82 81 82 81 77 72 67 66 69 68 64 61 63 68 69 72 73
94 93 92 91 91 87 87 89 85 88 93 92 96 100 99 99 98 99 98 99 100 100 100 99 98 94 92 89 96 92 95 91 88 98 96 93 91 82 80 86 86 82 73 71 71 67 64 72 67 66 77 76 71 70
94 93 94 93 88 87 93 88 84 87 96 94 98 93 98 97 99 99 99 100 95 100 100 96 97 95 87 93 92 96 93 90 99 100 90 90 87 80 86 88 88 83 74 73 72 71 74 75 83 80 79 75 72 75
94 93 90 78 73 94 92 81 79 90 96 91 97 96 98 100 99 99 100 100 97 100 96 92 94 81 95 95 90 95 97 98 97 90 89 90 90 92 91 88 86 80 79 82 80 77 82 81 83 91 84 76 77 78
94 88 55 66 89 92 83 78 80 98 100 98 97 98 94 97 97 93 99 99 96 99 96 96 91 90 88 93 96 98 98 97 83 92 92 93 84 88 89 87 84 80 77 74 73 73 76 79 82 90 86 81 76 72
87 84 68 77 94 89 77 78 83 98 94 86 98 96 96 96 98 98 97 94 84 99 100 96 89 81 91 99 96 91 88 84 89 93 99 98 96 91 88 85 82 77 76 74 72 73 79 82 79 77 81 76 69 66
82 86 90 93 88 72 73 76 95 93 90 91 99 99 95 90 87 88 88 95 98 100 98 94 87 100 91 91 91 87 90 98 99 100 98 94 85 86 84 85 80 77 76 76 72 76 76 74 77 79 81 74 68 64
93 96 96 81 76 85 96 82 95 92 93 86 81 86 85 91 90 85 84 94 98 98 100 100 93 94 91 93 89 94 97 98 93 96 93 88 86 86 86 83 81 80 80 79 70 69 70 66 72 73 67 63 65 65
94 84 79 60 76 82 87 88 95 90 94 96 89 89 91 93 91 94 90 96 99 100 100 99 93 80 85 89 96 96 96 91 94 93 92 91 90 89 89 84 83 81 81 78 73 69 69 69 66 64 62 62 61 63
85 80 66 64 86 86 87 90 96 95 89 87 82 98 97 99 98 99 98 99 100 100 100 99 99 92 86 90 90 91 91 92 91 85 88 99 93 90 91 88 80 74 72 70 67 68 65 65 67 63 65 62 59 56
82 77 68 72 86 88 96 87 97 97 95 90 98 100 98 97 100 99 99 100 98 96 96 96 96 96 95 88 88 86 87 88 86 87 84 85 95 95 93 85 78 81 76 72 67 66 68 70 69 63 59 61 58 61
86 71 66 64 74 70 69 87 93 99 98 100 100 98 98 100 97 96 99 97 97 94 93 95 96 97 97 97 98 91 88 88 92 92 91 92 89 87 86 80 79 82 87 82 73 74 74 70 67 63 63 62 63 64
75 75 70 72 79 65 68 88 85 99 99 99 100 98 90 99 96 99 99 98 87 81 85 94 93 92 95 98 97 98 94 87 91 90 87 88 93 94 84 83 81 75 75 79 76 74 73 70 68 63 61 64 59 52
72 67 73 63 88 77 79 97 100 95 99 100 99 100 95 99 100 100 100 97 97 91 87 88 91 91 93 94 96 97 98 90 90 93 89 85 86 84 85 82 81 81 78 80 79 77 75 72 69 71 67 61 56 52
80 74 78 73 81 74 83 75 98 94 99 100 100 96 100 98 99 98 96 96 94 96 94 90 88 87 82 90 94 96 96 98 87 91 93 83 80 84 89 90 91 90 79 75 82 83 79 76 73 68 65 64 59 45
86 78 70 61 73 78 88 88 84 96 100 100 100 99 100 100 100 91 96 96 97 90 89 97 95 92 91 90 95 96 97 97 95 96 99 98 96 91 83 87 89 91 81 84 84 77 74 72 68 68 70 66 45 37
82 72 90 95 98 97 86 97 100 100 96 91 95 99 100 94 89 95 95 83 78 86 99 95 98 98 97 97 96 96 96 96 97 97 97 97 97 97 97 94 90 91 87 86 80 72 66 62 60 59 52 46 47 44
92 86 91 100 100 100 100 86 87 92 83 95 93 95 93 94 97 98 79 81 89 98 100 94 92 95 96 96 96 96 96 96 93 94 92 94 93 96 97 97 97 97 93 81 77 65 56 46 43 40 39 41 45 45
96 92 97 100 96 90 88 96 100 98 90 82 79 95 94 96 84 83 87 92 97 97 96 98 97 96 96 96 96 96 96 96 96 82 88 92 94 97 96 96 97 99 97 95 94 91 88 60 53 40 42 48 46 42
96 95 100 99 97 98 98 95 96 76 94 100 97 100 97 96 87 92 93 96 97 95 98 96 95 96 96 96 96 96 95 96 97 96 95 96 96 96 96 96 96 96 96 94 85 73 61 44 43 47 46 45 55 50
98 98 100 100 100 98 98 100 100 100 100 100 99 100 100 99 100 97 93 94 95 95 95 95 95 96 95 96 96 96 96 96 97 95 96 96 96 96 96 95 95 89 62 53 46 42 38 42 45 45 52 53 50 46
97 99 100 100 100 100 98 98 100 100 100 100 100 100 100 100 96 94 93 96 96 96 96 96 96 96 95 95 96 96 96 96 97 98 98 97 94 92 81 58 48 46 41 41 42 42 43 43 46 48 46 44 44 44

GFSWCAN_925_rhum_003.txt.gz
RH
85 85 88 84 85 83 81 80 81 82 82 83 81 81 88 84 86 91 84 94 99 98 90 76 79 88 88 87 89 87 94 96 99 99 99 99 90 90 89 72 86 87 97 96 92 94 76 60 74 80 61 61 64 69
86 90 92 84 87 82 80 81 83 84 84 82 80 83 84 82 83 90 88 79 91 99 95 89 79 73 66 69 84 89 87 88 92 98 97 94 97 90 89 88 79 93 75 78 81 71 56 59 63 59 64 68 64 70
93 93 91 83 90 83 82 81 81 78 75 76 76 76 78 78 82 91 92 89 87 99 90 91 84 74 73 70 65 90 94 81 93 98 99 92 98 86 94 92 81 76 76 83 72 60 66 64 57 61 76 71 73 75
92 95 94 90 91 85 84 82 80 78 76 74 73 76 78 79 82 88 96 92 88 96 100 85 83 85 88 81 78 74 85 92 95 98 95 98 96 82 88 81 86 80 77 75 78 70 66 61 60 68 81 79 76 72
94 95 95 89 88 87 86 84 83 80 78 77 77 76 80 81 82 86 80 89 85 94 99 95 88 93 98 95 94 91 90 94 98 99 98 95 88 86 93 90 91 84 76 79 78 64 64 62 68 75 77 79 73 69
95 94 93 84 86 85 85 86 85 84 81 79 76 71 79 82 84 87 94 100 99 100 100 99 95 98 100 98 98 98 96 98 98 96 93 91 81 81 97 96 74 74 71 69 66 62 72 76 72 68 77 75 72 72
93 96 82 80 85 84 84 85 84 85 83 79 79 80 83 87 87 90 93 96 92 91 100 99 95 93 97 94 95 96 98 99 99 95 96 97 98 96 96 99 68 72 73 68 66 72 69 71 69 73 74 76 73 71
96 93 81 80 84 83 83 83 86 84 82 79 81 84 90 96 94 92 86 72 98 99 97 100 97 92 96 94 98 97 99 99 99 96 98 99 95 95 98 82 74 68 72 70 76 69 71 80 80 82 74 69 72 74
96 94 83 80 85 84 86 89 86 86 79 79 84 76 96 86 91 86 84 90 99 100 100 100 97 91 98 97 95 99 98 98 94 99 97 97 96 99 82 79 75 83 75 73 83 83 82 81 82 76 71 68 70 72
96 91 83 87 81 85 89 88 85 81 81 81 76 88 98 86 79 82 96 99 100 100 100 99 91 94 92 96 100 98 96 98 100 96 96 99 98 78 76 75 68 77 78 79 81 93 90 88 84 74 67 61 62 65
97 97 89 91 91 85 90 87 85 85 76 82 92 97 90 85 98 96 100 100 100 100 99 96 92 91 93 97 97 94 99 100 100 91 99 98 96 86 80 81 74 74 72 69 59 64 65 66 70 68 70 71 73 72
97 96 87 93 92 91 90 86 88 86 87 98 99 100 99 98 99 100 100 100 100 97 98 98 97 91 95 94 94 96 98 99 98 92 98 96 90 81 81 82 81 75 73 67 62 70 70 68 64 64 70 74 73 75
85 86 91 94 94 92 90 91 89 84 87 89 89 91 98 98 98 98 98 99 100 100 100 100 99 94 93 92 96 94 99 94 89 98 95 94 90 82 78 84 84 76 71 70 73 72 69 73 66 64 71 70 70 70
84 83 90 95 94 91 93 90 88 81 89 82 92 98 97 97 98 99 99 99 99 100 100 98 97 94 92 95 94 95 92 92 94 99 97 91 85 74 84 86 86 82 75 74 74 74 76 76 80 74 70 67 64 67
90 83 87 89 69 95 94 71 77 81 88 91 89 99 99 96 99 98 99 99 99 98 100 96 96 88 97 95 94 95 98 94 90 96 90 90 90 88 87 87 86 80 79 82 81 81 84 81 77 84 74 67 69 70
93 80 67 67 86 95 76 74 73 90 99 98 88 96 83 94 97 88 95 99 98 98 99 98 97 92 89 93 98 99 99 97 84 92 93 90 79 85 87 86 82 77 74 75 76 77 79 78 76 84 77 74 72 67
91 81 74 82 92 80 70 76 74 92 94 92 95 95 86 94 99 85 83 89 89 99 100 100 99 83 92 99 99 94 92 84 87 93 98 99 95 89 87 84 82 79 76 74 77 76 82 84 78 72 78 76 70 67
97 74 81 92 90 67 72 74 76 86 86 88 96 95 89 92 97 93 86 85 96 98 100 100 99 100 95 99 94 89 91 96 100 99 98 94 87 87 86 87 84 81 80 78 80 83 81 74 71 74 78 75 70 67
86 91 96 90 72 78 94 87 87 88 88 83 83 80 83 86 92 92 92 88 86 92 99 100 99 98 92 95 94 92 93 97 87 90 92 89 86 88 88 86 86 85 84 84 79 74 72 66 71 73 71 66 68 66
100 94 84 71 62 84 91 98 91 91 92 92 86 86 86 88 92 97 98 93 98 98 99 99 98 98 95 95 97 96 94 91 93 89 88 90 90 93 92 87 88 86 83 79 75 72 71 72 71 68 66 64 63 64
88 88 72 64 88 87 92 89 96 92 84 85 78 89 97 90 97 89 96 97 98 92 98 98 95 88 92 97 98 94 92 94 94 89 83 98 93 93 94 90 84 78 75 73 71 70 66 67 68 66 66 63 61 58
86 77 73 73 89 96 95 85 96 94 95 96 90 96 100 95 97 100 99 99 98 98 95 90 92 91 87 88 94 98 96 94 92 90 84 86 96 96 95 88 81 83 78 74 67 65 67 66 66 62 60 61 59 62
88 77 69 69 78 77 76 88 95 97 99 100 100 100 100 100 98 97 96 98 98 98 94 92 92 94 95 94 98 98 99 96 94 93 92 92 90 87 88 84 82 83 85 79 70 70 69 66 63 62 63 64 64 65
74 76 79 76 82 72 70 88 87 100 100 100 99 100 88 99 96 100 100 98 94 93 94 95 93 89 77 87 94 95 97 98 97 91 90 94 97 96 86 84 80 75 73 76 74 71 67 65 64 62 61 63 59 52
77 72 75 67 90 79 78 89 98 96 93 100 100 100 100 98 100 100 100 96 98 96 96 93 85 82 91 83 86 90 96 98 97 97 97 90 92 91 89 84 82 80 77 77 77 74 71 69 67 69 66 60 57 57
77 76 73 72 86 78 79 81 97 93 98 100 100 99 100 98 98 100 96 97 94 96 97 97 92 92 84 76 89 87 91 97 98 96 96 97 90 87 90 89 89 85 78 75 75 76 75 78 75 69 66 63 59 52
87 81 70 57 68 74 86 87 82 94 100 100 99 99 100 100 100 88 95 98 97 87 83 83 95 97 94 87 85 93 97 96 97 97 97 97 97 89 84 84 84 84 79 81 88 85 84 80 74 69 69 68 52 43
83 72 86 96 99 96 85 98 99 97 93 89 94 99 98 98 86 90 93 74 76 78 88 89 90 95 100 100 97 98 96 96 96 97 96 97 97 97 95 88 91 94 94 91 90 90 84 74 71 68 60 53 46 39
93 87 91 100 100 100 96 82 82 88 79 95 92 94 91 92 95 96 72 73 84 94 100 96 91 87 96 96 95 96 96 96 96 96 95 95 96 97 98 98 98 97 97 98 98 89 69 61 55 46 39 37 42 44
96 91 96 100 95 92 88 94 96 98 89 82 80 94 94 95 82 80 79 83 93 99 97 98 99 100 96 97 94 95 96 96 96 96 94 94 95 98 98 98 97 97 98 97 97 97 97 81 72 38 40 47 42 37
97 96 99 99 97 97 98 94 97 76 95 100 97 100 98 96 85 86 90 92 95 98 100 98 95 95 96 96 96 95 95 95 96 96 96 95 96 97 97 97 97 97 98 98 98 97 91 71 48 49 47 43 50 44
98 99 100 100 100 98 98 100 100 100 100 100 99 100 100 100 100 96 90 93 91 94 92 95 96 95 95 96 96 96 96 96 96 96 96 96 97 97 96 96 96 97 96 96 95 72 42 46 56 50 49 52 50 49
97 99 100 100 100 100 99 98 100 100 100 100 100 100 100 99 97 92 91 96 98 99 97 95 96 96 96 96 96 96 95 95 96 99 99 98 97 96 96 96 96 96 94 83 57 40 40 41 44 45 45 44 46 59

GFSWCAN_925_rhum_006.txt.gz
RH
86 85 86 86 79 84 82 81 81 79 75 75 76 78 78 79 80 88 90 91 92 98 88 77 66 72 77 68 72 79 85 93 97 98 91 84 89 68 74 60 69 66 81 88 77 77 77 51 60 56 50 52 55 58
88 87 92 87 80 86 82 82 82 79 77 75 74 72 74 79 80 85 85 88 84 98 92 92 84 75 65 60 78 80 82 81 83 93 91 93 84 76 70 66 62 74 60 58 60 52 46 48 51 48 52 56 56 60
92 92 95 94 90 85 84 83 82 82 79 76 73 72 74 73 77 81 90 93 80 97 93 89 73 80 74 70 66 77 91 73 87 89 94 94 96 88 76 70 65 63 61 67 65 50 53 49 49 52 59 60 61 66
89 93 95 94 88 84 87 83 84 83 82 80 76 75 75 78 79 81 90 92 88 97 100 80 82 82 87 78 75 74 76 86 89 95 93 89 95 67 72 67 68 60 67 64 63 52 50 50 51 57 63 60 60 60
90 92 95 95 84 86 85 84 82 80 81 80 80 80 76 80 82 84 83 92 95 94 99 90 83 97 98 93 90 87 80 82 91 94 97 93 76 88 71 76 70 60 56 55 49 52 50 50 57 60 60 61 59 59
94 93 95 89 80 80 88 82 83 86 82 81 82 80 80 82 87 89 90 99 100 98 99 95 89 91 93 93 90 91 90 87 90 95 92 84 73 83 83 77 55 51 54 50 47 51 54 60 58 58 60 63 58 56
95 94 95 94 84 79 83 79 83 81 80 80 81 80 81 87 90 82 86 100 94 95 98 99 92 90 97 91 91 89 90 95 96 94 97 88 85 96 96 80 55 55 54 54 56 55 60 61 56 59 60 61 58 53
96 95 96 95 85 79 82 82 84 82 83 80 80 83 91 93 92 88 84 76 87 100 97 100 94 87 94 93 89 88 96 99 98 95 95 99 93 98 98 70 59 59 61 59 58 59 61 60 61 65 62 58 58 57
95 97 96 95 85 87 83 84 86 85 82 80 78 75 91 79 84 93 90 89 92 100 100 99 96 93 94 92 88 99 96 100 91 100 97 97 86 97 79 67 62 61 62 58 69 65 65 63 66 66 62 59 58 58
97 96 92 91 89 90 89 82 86 84 83 76 72 87 94 89 83 87 96 96 100 99 100 98 77 90 82 87 97 91 94 98 100 90 96 99 97 72 65 64 59 58 63 70 76 92 95 94 85 68 63 54 53 54
95 95 93 96 92 93 94 87 87 90 69 87 89 96 89 94 99 95 100 100 99 100 98 90 78 82 84 91 90 88 94 99 100 89 96 96 84 71 67 65 66 60 60 60 56 58 60 59 61 60 57 54 54 54
94 94 90 92 94 94 87 92 90 89 89 90 98 99 98 99 100 100 100 100 97 93 96 96 86 81 90 88 90 94 99 97 100 82 97 94 74 73 66 67 74 64 60 62 56 59 58 59 56 56 60 59 58 63
93 88 87 88 95 95 94 93 89 85 88 81 82 92 91 94 93 94 96 99 100 100 100 99 99 89 91 86 92 93 100 95 81 97 90 81 75 70 66 73 76 66 62 61 67 66 62 64 62 59 62 64 64 62
94 88 87 87 97 94 95 87 65 79 76 83 91 92 95 95 94 96 99 98 100 100 99 98 98 94 88 96 88 95 84 85 96 98 93 84 72 64 67 77 76 70 64 65 68 68 73 70 70 66 66 65 62 62
87 84 93 95 83 94 90 56 78 76 74 88 90 97 94 86 93 99 99 100 99 99 99 98 98 84 96 98 86 95 97 94 85 85 82 82 74 73 76 80 77 69 66 71 72 73 73 72 65 71 69 63 61 61
85 96 84 66 78 96 66 68 72 83 91 92 92 94 84 91 90 89 88 92 99 97 100 99 100 99 98 94 98 97 95 94 83 97 83 70 69 73 78 78 74 67 64 66 67 68 67 66 64 68 65 61 60 59
98 92 70 76 86 83 65 72 71 81 77 84 92 89 91 90 95 91 73 76 77 98 100 100 100 100 96 97 99 91 92 90 93 87 78 86 83 78 77 76 74 69 66 66 70 69 68 70 67 63 65 65 62 59
98 81 77 80 86 66 73 74 77 83 85 82 88 86 78 84 88 84 80 78 81 96 100 100 100 98 96 98 94 88 86 89 83 83 86 84 79 77 78 75 75 72 70 73 74 80 77 70 65 64 74 73 70 65
96 87 88 92 78 64 84 91 86 92 89 82 82 76 77 80 80 82 83 81 78 83 99 100 100 96 88 84 90 94 93 91 91 84 79 78 79 79 79 82 83 82 83 84 78 73 69 62 64 68 68 62 61 62
100 100 100 85 64 80 88 94 89 88 93 86 82 85 81 83 80 86 91 94 90 98 100 100 96 96 96 92 94 94 91 87 88 83 78 73 78 87 86 83 78 85 83 84 78 72 70 69 67 66 64 64 61 61
100 97 86 70 85 85 86 89 92 89 89 86 81 83 93 83 92 92 92 94 88 77 93 93 88 84 82 80 82 93 86 90 90 88 83 87 75 84 84 87 87 77 73 72 70 68 64 64 67 68 68 62 61 59
87 79 71 73 87 97 90 89 92 92 94 93 86 88 96 93 94 97 95 97 98 93 87 80 80 83 78 78 79 88 94 97 95 94 87 84 85 87 86 85 82 82 78 76 67 65 65 66 66 63 61 62 60 63
80 74 68 72 75 76 84 89 91 93 99 100 96 100 98 98 95 93 96 84 88 85 82 82 86 85 83 80 87 90 92 94 90 87 92 84 84 88 86 88 82 86 85 75 72 70 68 67 65 61 61 63 65 67
70 71 75 77 76 74 68 87 84 96 96 100 100 99 91 93 91 99 96 94 83 81 79 85 77 69 63 69 68 70 81 92 91 88 98 96 90 86 87 84 82 81 76 76 73 71 67 63 63 62 59 61 60 53
74 78 73 73 87 79 82 84 96 95 93 100 100 96 92 92 98 100 98 92 89 79 80 79 72 72 74 70 71 70 75 85 91 91 88 98 98 96 91 87 82 80 77 77 73 71 68 66 63 63 65 60 56 56
86 83 75 73 83 72 75 77 96 89 92 100 98 91 96 96 100 99 90 86 79 81 79 75 73 75 73 71 76 75 74 81 96 90 84 97 98 97 95 92 88 86 80 73 73 72 70 68 70 70 66 62 59 60
91 87 69 51 59 66 76 79 75 85 100 86 86 98 96 100 100 82 76 83 82 82 73 73 83 87 86 83 83 85 88 90 97 95 97 97 98 98 97 93 90 81 80 78 73 72 74 79 79 71 68 65 62 59
79 68 77 86 92 85 82 92 91 88 78 77 86 100 93 93 75 76 82 75 74 71 75 79 83 90 96 96 95 99 100 98 100 97 96 97 96 97 98 98 97 93 83 78 82 91 92 87 82 74 70 67 68 61
87 79 85 100 100 100 88 77 76 76 68 88 85 84 82 81 83 82 72 69 75 85 95 93 87 85 91 91 91 93 100 100 94 92 92 94 95 96 97 98 97 98 99 98 99 96 93 94 86 71 60 60 55 47
97 86 88 98 89 87 84 87 87 90 85 78 76 87 87 88 81 77 76 82 91 91 91 98 100 100 99 98 94 93 87 90 98 93 93 94 94 96 97 97 97 97 98 98 98 98 98 98 93 67 53 61 57 52
91 91 94 92 92 93 96 91 95 75 94 97 96 96 93 93 83 80 86 88 90 95 99 99 96 90 100 98 97 96 92 83 91 96 96 96 96 96 96 97 97 97 98 97 97 97 97 84 73 74 77 66 51 43
95 95 96 100 100 95 95 100 100 100 100 100 96 99 95 94 95 87 87 92 94 94 95 97 100 96 95 97 98 98 99 98 92 95 96 96 97 96 96 97 97 97 97 97 97 97 93 95 93 85 81 64 50 48
95 95 98 99 100 100 98 96 100 100 99 100 99 97 98 96 94 86 87 94 97 98 100 100 96 98 99 98 96 98 99 96 95 96 98 97 96 95 96 96 96 96 96 97 97 96 96 86 80 65 52 50 52 64

GFSWCAN_925_rhum_009.txt.gz
RH
91 87 86 89 94 87 85 83 83 82 80 79 75 73 73 76 78 81 80 88 84 96 87 66 53 55 65 59 73 76 82 83 87 92 99 97 98 62 62 48 63 68 80 82 82 92 78 42 46 59 51 46 48 54
89 87 92 90 94 92 81 87 83 83 83 82 79 74 73 74 76 80 76 81 98 95 88 83 78 77 67 54 54 72 75 70 73 90 93 93 97 66 57 61 48 63 47 52 52 50 38 40 45 42 46 50 48 53
95 91 88 93 96 90 79 90 86 81 82 80 79 78 76 72 74 79 77 78 88 95 90 94 70 69 77 73 74 66 75 73 69 79 95 94 97 86 89 60 55 50 44 57 58 41 42 40 39 45 50 52 51 54
91 91 87 93 96 86 80 85 87 83 82 84 79 78 72 78 76 80 80 76 88 90 100 84 78 72 87 78 78 71 68 76 82 93 96 94 93 69 68 63 63 55 58 55 53 45 40 45 46 49 52 51 58 53
90 92 89 92 96 90 82 77 85 81 82 79 82 78 81 80 78 82 78 78 79 85 99 91 75 94 95 85 76 74 66 70 88 97 97 92 85 76 60 67 65 48 51 58 47 44 46 46 49 49 51 54 54 54
91 93 91 94 95 96 85 79 86 86 87 80 80 85 84 79 80 81 78 99 98 91 98 97 80 86 89 85 79 76 74 83 94 93 93 88 72 82 89 72 43 36 36 36 41 44 46 50 51 49 52 53 52 53
93 94 95 97 96 96 91 81 79 80 84 86 81 81 82 84 85 82 77 100 98 98 97 99 93 90 90 85 88 90 88 94 90 95 97 87 83 97 88 75 45 42 43 42 44 48 53 53 52 52 53 53 51 50
97 95 93 96 96 96 92 88 85 82 86 84 82 87 94 96 92 85 79 88 86 99 95 100 90 86 88 89 86 84 91 93 97 94 92 93 94 92 93 64 54 49 44 50 50 48 53 50 53 56 54 52 53 52
96 96 95 97 96 97 86 90 91 87 85 85 76 80 93 80 69 92 94 84 95 100 100 98 98 91 88 85 85 95 89 94 89 98 94 97 92 95 70 64 57 51 58 54 56 56 56 57 58 59 55 52 52 53
95 95 97 97 96 94 92 92 89 88 88 72 85 80 91 84 89 92 98 98 99 98 99 95 69 88 80 80 84 83 87 92 100 78 83 100 95 66 54 51 51 55 52 62 75 90 99 96 80 60 57 49 49 50
89 97 98 96 88 94 94 87 91 91 74 86 80 86 87 93 100 96 100 100 100 100 94 86 63 70 75 82 78 81 90 98 100 84 85 86 77 59 60 54 54 58 54 56 50 51 58 56 58 58 54 50 49 47
98 99 97 89 92 96 90 90 92 87 85 89 95 96 96 100 100 100 100 100 98 100 91 83 76 66 82 82 85 86 98 96 99 74 91 93 70 70 62 58 60 63 58 55 52 53 53 53 52 52 51 51 48 48
97 98 91 84 98 96 92 95 86 79 82 90 82 96 90 96 95 92 92 97 100 100 100 99 98 82 84 83 89 89 100 96 75 95 88 76 72 64 54 59 68 64 58 56 59 57 56 58 55 54 54 50 53 52
97 99 92 90 97 96 96 92 54 78 82 80 90 90 96 94 87 93 97 98 100 100 98 98 98 94 83 97 83 98 85 80 94 94 90 88 77 63 58 66 73 68 61 61 63 63 69 67 64 58 57 56 52 52
97 98 91 97 98 93 90 69 73 76 77 83 90 91 88 84 92 98 100 100 99 98 98 99 99 82 98 100 81 94 96 94 82 82 85 83 73 65 66 70 70 67 65 69 70 71 70 70 63 67 64 57 55 56
99 95 85 86 92 88 82 60 74 87 87 95 90 94 82 90 91 88 90 94 95 87 100 100 100 100 100 98 97 91 90 92 88 99 88 74 72 68 67 69 69 64 60 62 62 63 64 62 64 64 61 56 55 54
100 96 79 65 80 88 67 73 79 74 80 82 86 80 82 86 87 77 62 62 63 90 100 100 100 88 100 99 98 88 94 94 93 91 80 79 83 75 71 74 73 68 61 62 64 63 62 62 62 57 57 57 55 54
97 92 85 79 83 85 72 75 88 78 87 79 88 79 75 73 78 68 65 66 74 88 99 100 100 99 96 96 94 89 88 93 84 78 76 71 70 68 72 75 72 70 66 67 68 73 71 67 64 61 66 64 63 57
98 97 93 84 89 63 81 89 92 89 83 78 75 71 70 73 68 68 70 68 70 68 84 99 100 94 88 92 91 90 88 88 89 82 76 64 68 71 80 86 85 81 81 81 76 71 68 63 61 66 65 57 55 56
99 100 100 97 77 77 80 88 90 84 87 81 75 82 77 75 70 75 80 88 82 79 96 91 90 90 87 89 93 91 87 83 84 86 78 65 65 77 84 88 77 81 80 80 75 68 65 65 64 62 57 56 56 58
100 100 100 83 73 84 80 84 87 82 80 82 75 80 83 78 85 88 88 92 92 81 80 66 78 76 75 73 74 81 80 75 81 85 89 91 78 78 79 79 88 79 75 72 70 66 63 61 61 60 61 58 60 60
100 100 84 72 82 91 86 86 84 86 88 84 83 83 90 89 88 88 92 92 93 82 76 71 71 67 56 54 57 64 69 80 87 84 84 81 86 84 80 79 86 84 79 77 69 66 61 62 64 63 60 60 59 61
99 86 73 76 78 77 81 86 93 89 92 88 89 92 90 92 89 90 96 80 77 73 70 69 77 76 72 70 75 75 75 76 74 76 78 79 82 87 88 87 85 89 89 80 73 69 68 64 65 60 61 60 63 67
84 78 78 77 74 74 68 86 78 88 89 87 86 76 85 88 87 94 91 80 75 75 76 82 66 60 53 64 60 53 59 68 71 73 76 77 84 81 89 95 83 84 82 79 74 71 67 65 64 62 60 61 62 58
92 92 79 81 82 77 79 85 87 86 86 90 88 82 87 87 90 92 91 77 83 76 75 73 66 63 62 56 55 55 62 67 70 77 77 80 81 85 87 98 98 94 82 80 77 75 71 66 64 64 65 64 58 56
94 91 82 75 77 74 68 79 87 85 80 92 88 83 91 89 94 86 74 76 70 72 75 74 66 62 57 56 62 63 62 68 74 78 79 81 84 90 93 93 93 96 93 80 76 75 71 70 66 68 67 65 60 60
95 96 66 48 51 56 60 64 61 72 86 81 77 92 91 95 88 72 60 67 70 76 76 73 70 71 72 70 70 73 77 80 88 86 86 90 94 95 98 95 94 95 96 97 86 74 72 69 73 79 86 74 69 61
78 66 78 74 71 72 77 75 80 81 71 62 74 92 89 80 68 69 73 79 82 70 69 71 73 82 88 89 89 90 91 92 95 99 100 98 99 100 100 97 98 97 97 97 94 78 71 74 82 95 90 85 84 80
84 73 72 91 89 84 81 71 70 64 54 74 80 75 75 68 73 75 74 69 66 75 87 84 85 92 98 95 96 95 96 100 96 95 93 88 83 87 94 97 98 98 97 97 98 85 83 94 96 96 92 91 87 72
94 74 77 88 85 82 80 76 79 81 74 72 71 73 75 76 80 70 72 82 90 87 89 93 96 100 97 96 93 91 89 92 100 96 92 88 82 93 95 97 98 97 96 97 97 98 98 98 98 97 96 93 85 80
83 83 86 79 83 88 88 83 85 69 85 89 88 90 83 86 79 80 81 87 90 92 97 94 94 95 97 94 94 93 89 83 89 97 98 98 97 97 95 97 97 97 97 97 97 97 97 97 96 95 87 84 80 58
90 92 90 92 92 92 89 92 92 91 91 91 88 94 88 88 89 79 81 89 94 91 90 94 94 93 97 100 99 99 97 97 100 97 98 99 99 96 96 96 97 97 97 96 97 97 96 96 94 90 91 91 73 49
92 92 93 91 94 95 92 90 92 92 93 92 89 90 89 88 89 78 78 87 90 94 94 94 97 100 99 98 98 98 98 96 96 100 100 100 100 97 96 96 96 96 96 96 96 97 96 96 95 96 96 86 81 76

GFSWCAN_925_rhum_012.txt.gz
RH
73 92 94 90 93 93 95 87 81 82 82 83 82 82 77 75 75 78 75 94 87 96 85 70 68 72 66 66 86 83 86 84 90 87 96 94 97 77 71 60 75 79 87 93 92 98 94 43 51 65 60 54 50 53
83 95 94 90 89 93 98 86 84 83 83 82 82 77 77 77 74 74 71 72 75 96 88 85 75 72 76 73 70 73 77 75 80 91 95 91 92 90 75 76 50 68 60 68 71 71 46 45 51 45 52 58 57 55
95 96 96 91 89 92 99 78 77 81 86 80 83 79 82 73 78 75 83 72 79 92 83 93 81 67 73 74 72 78 82 72 78 84 90 92 98 87 93 77 70 53 48 67 60 48 51 49 49 53 54 56 54 56
96 90 94 95 93 92 96 93 80 83 89 79 79 75 76 77 84 77 82 78 76 92 100 86 76 74 81 76 74 71 73 77 86 88 94 87 97 79 85 77 75 66 59 64 65 58 50 55 56 53 55 56 64 58
91 95 92 95 94 92 95 99 86 76 84 84 84 80 83 85 86 79 74 75 75 91 100 96 80 84 87 83 76 73 70 81 92 98 98 88 86 86 77 73 77 60 68 74 74 52 54 60 55 50 58 61 59 63
94 98 92 96 94 95 96 99 94 85 83 82 82 87 84 87 84 80 79 88 82 81 99 100 87 87 86 81 75 74 75 76 90 95 93 88 75 86 96 79 56 51 50 48 52 49 54 57 55 52 59 60 60 63
89 96 97 96 93 96 96 99 90 85 84 83 86 85 88 93 88 82 78 99 100 84 99 100 99 92 85 81 86 91 89 94 95 95 98 90 87 89 96 90 56 45 49 53 44 52 56 57 62 59 60 61 57 56
81 95 98 96 96 96 94 99 84 89 88 86 86 86 97 85 86 89 69 83 98 99 97 100 99 96 90 92 96 90 96 96 99 93 93 96 88 95 97 79 69 60 56 57 52 52 58 61 62 64 59 59 61 58
81 88 92 96 99 95 95 99 91 89 89 88 78 78 91 83 74 93 87 90 91 99 100 100 100 100 94 89 93 94 92 98 92 98 96 96 93 98 83 74 69 62 61 59 65 63 62 64 68 65 60 60 59 59
80 81 84 93 98 95 96 94 87 91 88 84 85 75 88 86 88 85 96 98 99 98 98 100 78 96 87 88 96 92 96 93 100 87 86 99 97 75 67 63 68 68 61 71 74 86 90 87 80 65 62 55 55 56
84 86 87 98 98 96 97 92 87 91 79 82 81 86 82 84 98 96 100 100 100 100 97 93 78 87 82 88 86 90 96 100 100 92 87 96 87 72 65 60 60 63 66 67 62 59 72 70 69 64 60 54 54 53
84 92 92 98 98 96 99 89 94 93 85 89 96 96 95 99 99 100 100 100 100 94 97 95 89 84 87 90 89 89 100 98 98 83 94 95 88 77 61 59 60 70 68 68 60 57 64 61 61 62 61 56 52 53
87 94 97 97 99 94 99 85 95 81 80 91 85 95 93 99 99 98 97 98 99 99 100 100 99 85 94 93 95 90 99 96 84 96 85 92 90 72 67 68 74 72 66 62 63 58 58 66 61 57 57 52 54 52
96 96 96 98 98 92 100 82 76 74 79 78 86 95 90 85 81 96 97 99 100 100 99 99 99 97 87 98 90 88 91 87 85 93 93 99 90 79 71 74 76 77 74 68 70 72 72 73 72 61 56 59 63 51
98 96 96 98 98 99 98 74 58 76 71 83 84 92 86 91 97 100 100 100 100 99 99 100 100 88 100 100 88 98 94 85 78 91 99 93 89 84 78 76 77 76 73 77 74 76 75 74 72 76 71 60 53 54
97 98 99 97 84 100 82 69 71 78 70 93 85 87 88 96 86 96 93 99 98 90 99 100 100 100 100 99 96 86 85 88 96 100 97 93 86 85 80 78 80 77 67 67 66 69 70 69 69 68 59 57 56 55
98 99 97 93 80 80 84 67 79 90 75 82 94 86 94 90 85 94 71 71 68 92 100 100 99 90 99 99 93 82 86 99 95 97 97 88 88 85 81 84 85 80 74 67 67 66 66 65 65 59 62 59 56 55
99 98 98 99 99 89 72 78 97 77 93 86 93 76 73 68 78 75 72 74 84 92 99 100 99 99 99 95 88 100 96 93 93 94 95 89 85 80 80 90 89 82 79 74 73 69 67 66 72 70 67 63 60 56
99 98 98 99 98 70 91 94 93 97 93 90 80 70 71 74 79 76 76 73 76 74 84 99 100 98 97 98 97 95 95 89 92 88 89 83 74 79 84 86 85 83 85 82 79 77 72 67 66 68 66 59 58 58
100 99 98 100 98 70 89 95 88 96 96 92 78 80 90 93 84 86 88 86 81 92 90 93 90 93 87 93 94 93 94 89 88 89 87 84 82 84 88 86 89 87 83 81 76 73 70 69 67 64 60 58 57 59
100 100 100 99 93 76 89 93 95 94 94 95 88 81 95 93 95 88 84 74 84 97 97 94 90 90 82 76 73 77 86 80 85 87 85 86 81 79 82 83 81 85 86 85 85 75 69 71 66 61 60 58 57 60
100 100 99 98 90 91 94 89 98 90 94 96 95 90 96 98 98 89 95 89 88 92 95 92 93 91 78 73 74 62 64 71 80 87 78 76 83 83 79 86 87 97 88 82 78 77 71 63 62 61 60 62 61 65
99 98 98 97 95 85 86 87 97 94 97 97 96 98 97 97 92 90 94 95 93 93 87 89 85 72 80 66 65 65 64 74 90 81 78 80 80 79 79 84 87 94 97 89 77 70 64 64 66 62 62 63 67 74
96 98 97 95 94 89 78 95 82 91 94 95 96 89 94 98 92 94 99 96 94 94 94 93 86 84 79 83 92 87 58 59 68 76 74 77 90 84 81 84 84 90 90 89 84 75 66 69 67 63 62 65 70 72
95 96 95 96 91 84 88 94 92 93 94 93 95 91 96 98 99 99 96 93 96 96 95 94 91 88 88 89 86 59 54 59 79 85 74 72 79 86 85 84 86 91 95 92 86 78 72 70 68 66 67 70 71 64
96 94 94 86 86 82 79 89 91 89 88 95 94 96 98 98 100 86 90 93 93 92 90 89 86 88 84 76 80 83 63 62 66 83 75 75 79 87 92 92 87 86 90 95 98 97 88 75 72 71 70 69 66 62
96 97 85 56 61 60 65 67 68 86 89 89 94 99 98 97 88 81 88 91 91 78 72 72 72 81 88 75 63 63 66 70 75 77 74 79 84 84 89 92 89 85 86 93 98 98 97 93 78 71 72 69 69 72
84 69 81 73 75 83 79 82 81 81 84 82 80 94 92 76 68 87 93 77 73 72 71 70 65 62 65 66 72 81 85 85 88 90 93 97 96 88 87 96 100 100 99 100 99 98 98 97 96 87 81 85 95 94
86 78 77 90 88 84 81 72 76 81 67 86 84 86 85 90 90 92 68 64 66 69 73 78 69 72 82 84 87 87 88 96 100 99 99 95 88 80 70 82 99 99 98 99 99 98 97 96 96 97 96 97 97 93
96 77 84 87 84 80 87 92 94 92 80 78 78 90 92 92 72 66 69 71 77 84 75 81 87 92 96 97 95 93 86 89 99 95 93 93 87 76 91 94 94 96 99 98 98 98 99 98 98 97 97 97 97 96
87 91 90 88 89 97 98 88 91 67 91 96 92 97 96 95 77 72 78 79 82 87 89 90 88 90 97 100 100 96 92 82 80 86 96 98 98 98 94 91 86 96 98 97 97 97 98 98 97 96 96 96 96 87
93 94 92 94 99 97 96 97 98 97 97 97 98 99 97 97 95 92 79 82 91 94 93 90 96 91 91 97 98 99 100 98 98 96 97 97 93 88 91 93 95 98 97 97 97 97 95 96 96 96 96 96 91 82
97 96 95 94 98 99 97 95 96 96 97 98 97 97 97 97 88 90 77 83 81 85 86 85 91 96 98 99 100 100 100 100 100 100 96 99 100 99 96 97 98 97 96 96 97 96 96 96 96 96 96 93 95 95

GFSWCAN_925_rhum_015.txt.gz
RH
96 97 97 76 95 88 92 97 89 82 86 81 80 79 77 76 79 74 67 75 87 98 90 70 71 90 94 81 88 83 86 86 93 92 92 90 94 81 80 75 89 88 93 97 98 99 92 50 69 74 58 58 54 54
98 93 82 88 94 92 90 93 89 77 80 76 78 77 80 71 72 78 77 73 72 95 88 81 77 70 74 76 89 84 84 84 86 94 92 89 87 84 91 93 62 89 74 83 78 76 51 48 53 51 56 62 58 57
94 91 85 96 94 94 92 93 97 92 80 88 84 77 86 74 74 81 79 77 78 97 89 91 87 61 65 70 73 86 87 76 82 84 90 90 94 84 89 93 80 60 53 64 67 58 56 53 56 55 55 58 57 70
95 94 96 92 93 95 93 93 95 97 86 74 81 79 82 79 82 84 86 74 82 92 100 87 76 78 79 77 75 72 74 81 87 87 93 91 92 86 89 83 86 74 65 67 75 65 60 58 57 55 57 64 63 71
96 96 98 95 92 96 95 94 94 97 94 81 84 77 83 83 85 84 84 81 70 88 100 99 88 74 84 82 78 73 76 85 92 98 97 96 86 88 81 82 93 71 75 79 81 58 58 60 56 53 61 65 65 68
96 96 91 91 97 97 91 94 96 95 77 80 84 89 85 87 91 96 90 97 90 76 99 100 92 93 89 85 82 80 81 82 88 91 93 89 75 85 98 95 61 58 59 57 59 51 58 60 57 55 63 65 65 67
96 96 98 95 95 96 94 94 95 98 90 84 84 85 86 90 97 94 87 98 100 84 98 100 99 94 86 84 88 90 86 93 91 94 98 92 89 88 96 84 65 65 59 56 52 55 60 62 65 62 63 64 62 62
95 98 99 93 95 96 94 95 96 95 88 88 88 89 85 81 75 85 70 72 94 100 99 99 99 97 90 98 98 91 98 98 98 94 93 97 90 91 98 80 78 69 70 70 70 60 60 67 67 67 64 61 63 62
96 98 93 94 95 99 96 96 98 88 90 88 85 76 94 86 84 92 95 91 84 99 100 100 100 100 94 92 96 98 94 99 93 98 95 94 91 98 84 85 79 69 74 66 70 67 68 69 72 68 63 61 60 62
97 95 91 90 93 98 90 89 98 90 73 80 78 74 94 82 86 91 98 98 100 99 100 100 93 100 93 91 99 96 99 97 100 93 93 99 93 79 68 64 60 64 71 77 70 78 87 85 82 71 65 56 56 58
95 92 87 90 94 98 81 98 98 84 64 77 84 80 79 83 94 97 100 100 100 100 98 94 93 91 89 89 92 91 99 100 100 94 88 92 94 76 69 65 63 65 75 77 76 72 69 70 75 70 65 58 60 58
96 96 89 86 94 98 87 97 95 86 76 82 95 88 93 99 99 100 98 99 100 98 97 97 94 91 93 90 90 92 98 99 98 85 94 86 93 84 76 72 73 73 74 73 68 74 66 70 70 66 63 66 62 61
96 97 86 87 93 99 94 99 95 74 72 82 86 92 95 98 97 99 97 99 100 99 100 99 99 92 91 89 96 94 94 92 86 95 85 92 92 83 79 76 76 73 74 73 71 66 59 67 64 62 61 58 55 55
97 95 93 92 96 98 97 100 84 62 77 90 92 95 95 95 92 88 98 99 99 100 99 99 100 97 94 98 90 90 87 86 85 92 91 98 95 90 82 76 77 80 75 82 79 79 74 80 81 73 67 58 59 66
98 98 95 95 99 98 98 94 72 73 75 92 92 97 94 90 98 99 100 99 100 99 99 99 100 94 99 100 93 96 92 88 78 89 98 98 95 92 87 80 81 83 78 75 78 80 78 81 81 85 76 68 68 80
100 99 99 99 98 98 98 80 65 80 74 92 92 98 90 96 95 98 94 98 97 93 99 100 100 100 100 94 97 86 82 87 95 98 98 97 92 92 88 82 84 83 78 72 70 71 72 73 77 79 80 74 64 56
99 100 98 95 97 86 87 66 81 93 92 90 97 88 95 96 95 99 86 77 72 96 100 99 99 96 98 100 96 89 92 100 99 92 98 91 92 94 89 88 87 88 83 79 76 70 70 70 66 62 66 62 58 57
98 98 95 98 98 99 82 81 96 94 96 93 97 94 82 77 83 87 86 84 91 96 99 99 99 99 99 99 89 100 98 96 94 97 96 92 90 86 86 93 90 89 88 86 82 73 71 69 74 76 68 63 59 57
98 98 100 99 98 82 94 93 91 99 94 96 92 89 84 83 83 84 86 85 86 86 89 98 99 98 96 98 98 97 95 94 92 90 90 86 86 88 90 88 92 90 90 88 88 83 76 71 69 68 67 62 61 60
98 98 99 99 99 66 91 98 89 100 98 92 94 94 89 91 90 93 92 90 95 93 94 97 89 92 92 96 92 95 93 93 94 96 89 86 80 83 83 81 83 86 88 84 82 78 76 75 71 67 63 61 61 62
100 100 100 98 99 76 91 98 98 96 98 97 96 94 96 93 97 95 93 91 94 100 100 95 93 94 85 82 80 79 85 88 87 88 86 97 86 81 85 79 82 85 90 92 93 87 76 78 71 68 65 63 59 61
100 100 99 99 92 89 94 92 97 96 97 97 96 95 98 99 100 95 96 90 89 93 95 96 97 95 86 79 82 68 57 64 70 82 79 81 93 97 94 84 81 84 86 92 94 92 83 74 68 67 64 61 62 65
99 99 98 98 95 94 91 89 99 97 98 96 96 94 97 98 97 93 99 95 93 92 92 94 87 73 79 64 60 54 54 66 79 73 71 78 78 78 82 84 81 84 85 81 89 92 89 75 69 68 63 66 67 73
97 98 97 95 96 96 85 97 91 97 97 94 97 86 93 98 95 98 100 94 92 97 94 93 87 89 86 88 92 88 57 60 66 66 66 75 91 80 78 82 83 81 82 86 97 97 92 77 70 70 68 67 73 79
96 96 96 97 95 84 93 100 99 99 90 89 92 91 95 97 100 100 97 88 98 98 98 97 95 90 81 91 94 70 54 53 71 80 66 69 72 80 85 82 80 78 80 89 93 94 93 88 77 70 68 74 77 76
96 95 95 90 95 81 83 93 94 91 88 90 90 95 96 97 100 78 81 89 93 96 95 94 92 94 91 81 86 92 62 56 61 81 68 68 71 87 95 95 94 84 78 73 92 100 98 94 91 78 74 74 77 72
96 96 92 72 68 69 73 70 70 83 87 84 93 95 95 89 73 70 83 93 93 80 70 70 77 86 82 81 69 67 64 65 68 70 72 77 81 83 86 94 88 79 76 76 77 96 100 98 98 94 95 94 87 72
84 77 92 83 83 89 78 77 78 79 77 78 77 89 84 68 60 78 86 77 72 70 72 74 77 76 74 67 59 61 67 72 80 87 88 84 79 78 78 83 84 84 99 100 99 95 100 98 98 98 97 97 96 85
85 77 76 92 89 81 78 69 72 74 67 80 76 73 78 83 90 92 66 72 76 75 71 69 61 56 58 64 72 77 80 86 100 100 99 94 87 79 74 74 76 82 84 96 97 100 98 99 98 97 97 97 96 96
98 86 82 86 79 77 79 82 90 87 78 79 77 87 90 90 65 63 66 66 70 72 60 61 66 77 88 92 93 88 77 81 88 100 97 94 86 80 82 84 82 82 87 92 98 98 97 99 99 98 98 97 97 97
92 92 90 88 87 95 93 84 86 67 90 96 95 94 92 95 73 60 70 70 70 74 82 90 87 83 92 96 99 100 95 83 80 83 86 91 94 96 95 92 88 90 90 94 98 99 98 98 98 97 96 96 96 96
96 93 88 92 97 94 92 95 96 95 97 97 95 100 95 95 90 88 76 81 93 97 92 86 93 87 82 93 96 100 100 100 100 100 98 97 95 92 91 92 90 88 94 97 98 98 97 95 97 96 96 96 96 96
96 95 94 94 95 98 97 89 95 96 96 98 97 97 99 97 82 86 79 82 75 74 76 80 82 88 94 98 100 98 99 96 96 100 100 97 98 96 90 93 97 96 98 98 97 96 96 96 96 96 96 96 96 96

GFSWCAN_925_rhum_018.txt.gz
RH
95 96 94 99 93 78 90 93 96 91 75 75 87 75 77 79 74 73 72 69 80 96 84 81 68 83 88 89 85 77 80 84 94 91 90 90 90 82 86 75 92 88 96 99 97 98 93 55 73 73 58 59 56 56
96 89 97 97 90 89 94 93 94 98 90 78 85 82 79 84 73 77 74 76 73 88 88 84 79 71 76 73 90 88 78 86 88 92 93 91 91 86 89 73 71 89 74 83 84 78 51 50 55 58 59 66 60 59
96 92 99 96 90 98 97 93 94 96 100 88 76 73 82 83 82 76 75 80 78 97 93 87 70 35 48 56 61 98 87 79 83 83 91 91 91 84 85 81 83 67 58 71 70 59 57 55 56 56 56 59 60 65
94 98 94 96 96 97 98 86 94 95 97 97 82 81 82 79 83 88 89 86 81 87 89 80 75 80 66 82 74 79 83 84 86 88 91 93 92 84 89 84 91 80 71 68 74 72 66 62 57 56 56 65 66 76
98 98 95 96 98 98 97 98 94 94 98 90 80 78 80 91 87 89 91 91 87 79 87 86 63 59 73 90 87 83 80 85 92 94 95 94 89 89 86 81 90 77 81 84 78 63 62 61 54 55 60 65 64 76
94 95 95 94 95 95 96 97 96 96 98 94 81 89 83 86 91 97 94 94 100 90 87 93 89 93 92 92 85 85 85 89 89 90 92 89 78 83 97 94 74 72 61 60 69 59 61 59 57 56 61 64 64 68
97 95 96 96 95 94 95 95 95 96 99 90 90 89 90 90 97 92 82 89 98 93 98 97 99 95 92 92 95 94 86 93 89 89 95 91 91 89 94 92 60 67 74 71 67 62 65 64 63 62 63 65 64 65
96 95 96 96 96 96 95 94 95 96 96 90 90 94 86 76 75 92 86 89 78 96 99 99 98 97 90 98 99 91 99 96 97 91 93 96 91 94 99 81 79 72 60 69 69 67 65 67 68 68 68 65 67 66
96 95 95 97 96 96 96 95 91 98 87 78 84 78 78 75 83 92 95 92 89 99 100 100 100 100 96 97 98 98 93 99 92 97 95 92 92 98 84 73 70 67 68 68 76 72 68 66 71 72 68 67 67 66
94 94 96 95 96 97 95 83 93 90 57 78 79 75 79 82 88 88 100 97 100 100 100 99 99 96 95 90 99 95 97 95 100 97 96 99 93 82 68 69 72 73 74 80 91 87 89 85 84 76 73 63 60 60
94 93 95 94 95 95 97 79 96 84 51 76 88 84 82 82 88 97 99 99 99 100 100 99 98 97 91 91 98 92 100 100 100 94 91 97 94 73 76 76 73 75 77 81 85 82 83 80 78 76 72 63 60 60
96 94 94 95 95 94 99 85 98 88 75 78 89 93 93 96 99 99 98 98 100 99 98 99 99 98 93 90 94 94 97 99 98 87 94 91 91 87 83 80 76 74 74 79 76 78 79 75 76 74 71 61 61 70
98 95 94 98 90 94 98 85 99 85 74 90 93 92 96 99 99 100 96 98 99 99 100 99 99 98 90 89 96 92 93 94 88 95 87 90 91 87 85 81 79 75 74 70 79 76 76 67 70 66 69 72 76 80
99 96 97 90 94 96 98 88 92 68 77 91 94 97 98 98 97 94 98 99 99 100 99 99 100 99 97 98 92 89 90 86 93 82 84 97 96 94 87 81 81 83 80 76 85 88 85 84 80 72 72 68 60 62
99 96 95 94 98 98 97 91 82 69 75 94 94 98 96 90 97 99 99 99 99 99 99 99 100 97 100 97 93 95 96 93 77 88 97 98 97 93 93 86 87 88 86 80 75 85 86 82 82 87 85 76 67 71
100 100 99 97 96 98 97 90 71 80 78 92 95 99 90 96 96 95 96 98 97 100 99 100 100 100 100 96 97 93 83 88 94 99 98 97 91 92 93 90 90 89 86 82 78 75 73 74 83 87 92 91 88 88
100 98 97 96 100 98 94 77 79 92 95 96 98 93 96 98 97 92 92 86 76 96 100 100 99 91 98 96 99 88 92 98 98 96 99 92 90 93 92 92 93 93 88 87 88 80 77 73 70 77 83 85 89 79
98 98 98 97 94 95 95 78 91 96 99 96 98 94 88 82 86 84 88 88 92 99 99 99 99 99 97 98 97 99 98 97 95 92 96 92 88 89 89 95 91 94 94 91 90 87 78 78 76 76 69 67 72 78
93 98 98 98 96 78 93 94 92 99 95 96 96 95 90 86 84 84 86 85 90 91 95 99 99 98 89 96 99 99 96 93 84 82 88 84 87 86 86 85 84 85 89 91 92 92 87 81 78 72 68 66 66 63
100 100 100 100 94 66 87 97 94 100 99 91 96 96 94 92 88 88 89 86 96 97 98 96 94 89 93 96 97 96 95 88 89 78 69 80 75 82 84 89 92 84 88 87 93 90 85 79 74 72 68 65 63 63
100 100 100 99 98 71 87 98 98 97 98 96 96 95 94 95 96 97 96 94 96 100 100 94 93 92 88 89 83 79 87 87 88 73 60 91 80 86 85 80 72 82 87 81 83 92 97 91 81 74 70 69 64 59
100 100 99 100 97 87 91 92 93 96 96 96 97 97 97 98 98 98 95 97 95 92 93 94 96 96 92 87 86 68 56 66 66 73 78 81 89 95 93 78 87 96 91 88 81 85 96 92 92 79 72 68 67 62
100 100 99 99 96 92 92 92 94 97 98 94 96 96 95 98 98 93 100 95 90 87 89 96 92 87 89 74 65 62 54 57 73 70 69 70 70 70 76 77 79 94 94 81 77 79 90 93 96 86 73 71 67 69
100 99 98 97 96 96 90 97 94 99 98 98 98 92 90 97 98 97 99 89 86 96 96 93 90 88 86 83 89 85 53 54 61 64 60 64 86 70 63 68 72 75 77 75 85 92 92 93 94 86 75 70 70 74
98 97 97 96 92 91 95 100 100 100 98 94 96 93 93 97 99 100 93 86 96 99 96 94 89 89 87 90 93 72 57 56 78 84 57 55 57 66 78 74 72 70 69 78 90 90 88 94 94 94 75 74 78 80
97 96 93 92 99 82 87 94 98 94 94 96 95 96 97 96 100 76 77 88 93 95 95 93 90 91 91 85 89 94 62 56 58 75 64 60 64 77 92 91 87 80 71 72 80 77 82 87 98 98 89 79 83 87
97 96 93 70 76 74 79 77 77 92 91 88 89 95 94 92 75 68 74 85 91 79 73 75 80 84 85 82 73 70 68 64 63 61 61 70 77 79 81 89 88 80 76 77 77 79 82 88 88 98 97 93 95 98
91 91 96 91 86 90 77 86 84 83 78 77 80 92 83 70 59 76 81 72 77 76 76 76 75 73 75 75 74 69 61 62 69 76 76 72 68 68 71 77 84 88 98 99 97 95 97 98 96 99 98 97 97 98
94 83 80 91 88 86 77 71 72 70 64 79 79 73 74 78 85 91 66 77 76 76 74 75 74 75 69 60 60 63 71 78 90 100 94 88 95 76 70 74 78 80 92 97 94 100 98 98 93 95 97 97 97 97
94 87 87 86 79 75 78 77 86 88 80 78 75 87 86 88 63 61 64 67 81 84 66 63 60 61 66 76 81 78 74 74 81 90 96 92 87 78 85 88 89 86 81 85 93 90 89 94 98 98 99 99 98 98
86 91 90 88 85 96 94 84 84 66 88 95 93 92 87 92 72 50 55 64 68 68 71 78 74 77 84 91 97 100 97 79 81 85 89 93 97 97 94 92 93 94 96 94 90 91 96 97 99 98 98 100 98 96
96 90 88 91 96 94 89 93 97 95 96 96 94 99 94 92 84 84 72 86 88 92 88 80 82 72 75 79 87 94 100 98 96 95 100 100 98 90 92 96 96 97 98 100 96 97 98 98 97 97 97 97 96 96
97 95 95 94 95 95 95 89 93 93 95 97 95 96 97 94 79 85 73 82 73 70 68 69 77 82 82 88 90 90 97 94 93 99 100 100 95 96 98 94 94 97 97 97 96 99 100 97 96 96 96 96 96 96

GFSWCAN_925_rhum_021.txt.gz
RH
88 92 72 89 98 99 98 97 93 90 98 94 81 88 83 77 73 72 70 70 76 89 80 80 77 84 86 92 86 78 80 84 94 88 92 93 91 88 89 74 92 91 98 99 98 98 94 64 75 73 60 61 58 60
82 98 83 98 98 98 91 96 94 89 94 98 88 76 76 84 82 80 74 74 78 91 86 74 65 67 80 76 86 91 80 86 89 90 91 92 94 88 88 90 77 91 80 90 84 76 54 60 60 58 62 68 62 62
83 96 94 95 99 96 94 95 99 94 93 93 99 89 78 80 85 85 81 75 79 99 88 89 76 44 56 40 52 89 88 78 87 81 90 91 85 85 97 90 85 73 61 75 75 63 65 58 56 59 56 58 60 65
88 90 92 98 95 95 96 95 96 98 94 96 99 84 79 80 78 88 88 87 93 93 98 79 60 67 68 57 63 60 76 88 85 88 90 92 87 80 86 80 85 79 78 74 74 72 73 62 62 54 55 58 65 74
89 87 96 98 91 94 97 95 96 97 94 86 97 92 87 87 89 86 88 84 91 97 95 87 65 45 44 44 84 80 76 94 91 92 93 93 90 89 91 84 90 74 83 88 87 68 72 67 62 55 60 61 64 78
88 91 95 95 93 94 95 95 96 97 93 92 98 93 92 88 89 94 98 96 97 100 100 97 74 86 84 77 96 90 93 96 92 92 94 91 78 82 98 96 74 71 65 68 75 71 69 70 70 59 60 60 62 74
96 95 99 94 96 96 96 95 96 96 86 97 96 92 92 94 92 90 80 77 89 100 93 91 94 82 78 95 98 95 97 98 92 89 94 91 91 86 94 92 69 76 69 64 73 77 79 69 69 61 60 62 65 66
100 96 96 95 94 96 96 95 99 81 87 97 89 95 90 87 91 89 83 89 87 93 98 98 96 100 85 97 99 96 99 88 97 92 95 96 95 94 99 85 66 62 64 61 64 66 74 74 66 66 68 68 67 68
100 92 95 94 95 96 95 95 97 75 93 74 78 81 87 90 83 88 87 94 98 99 99 99 98 100 98 97 98 95 91 98 94 96 95 90 92 99 84 72 73 72 80 79 79 83 79 74 70 70 69 70 69 70
92 94 94 94 96 96 94 96 94 91 87 59 79 87 75 79 87 98 99 100 100 100 100 100 100 98 94 90 100 94 93 97 100 94 97 99 96 81 72 72 72 77 84 89 97 92 88 88 86 75 77 70 68 67
91 93 92 91 96 95 95 98 95 97 64 68 89 91 82 83 86 96 100 100 100 96 100 100 99 99 93 92 97 92 99 100 100 95 97 99 96 76 77 76 79 82 82 83 83 87 88 88 88 85 80 72 66 64
91 94 92 93 95 96 97 99 93 98 83 75 89 89 94 94 100 100 96 97 100 99 98 100 98 99 98 92 95 97 99 99 98 88 93 83 94 88 88 87 84 82 82 79 74 85 82 83 87 87 81 73 64 61
98 94 91 94 94 96 96 99 92 100 68 89 98 97 98 98 99 97 97 97 99 95 100 99 100 99 93 95 97 93 92 95 89 96 88 92 93 90 92 89 84 78 78 74 75 88 85 87 72 73 70 64 66 69
100 100 93 92 97 95 97 97 97 83 78 92 82 95 97 98 98 94 98 100 96 100 98 98 99 99 97 99 94 85 94 87 99 94 83 99 94 93 91 87 87 88 84 82 77 90 94 91 87 75 73 75 77 81
100 100 94 96 94 95 100 99 99 66 81 93 95 99 98 89 97 98 99 98 95 99 99 99 100 97 100 92 92 96 99 90 84 89 98 96 97 91 92 90 92 94 89 85 81 79 77 84 85 87 84 82 80 82
99 100 97 91 92 99 100 100 98 73 87 95 98 100 91 97 96 97 97 96 97 99 99 100 100 100 100 97 97 94 91 90 90 99 98 95 88 90 93 93 93 96 92 86 85 83 78 79 79 88 94 95 92 88
100 98 95 91 98 100 100 98 79 95 96 96 99 93 98 98 97 96 84 90 95 100 99 100 98 89 99 98 99 91 92 93 99 98 99 92 88 90 92 90 92 95 95 93 92 89 89 80 72 79 90 92 97 97
98 97 98 98 98 99 100 97 91 98 97 96 100 95 91 86 92 85 84 88 97 100 99 99 99 99 97 94 96 95 99 98 96 93 95 91 84 90 86 91 90 89 92 92 93 93 89 87 86 81 72 73 85 90
85 96 100 99 98 96 88 94 94 99 94 96 97 98 93 94 87 84 84 85 90 92 96 98 99 97 91 95 98 100 99 98 91 90 78 76 85 84 83 83 85 84 85 90 94 99 97 88 83 80 77 72 73 78
96 99 100 100 99 66 86 97 99 100 100 93 97 98 98 96 95 90 88 84 94 97 100 100 96 90 91 94 96 96 96 87 78 62 55 68 78 81 82 87 88 78 82 85 81 82 92 95 90 87 76 73 70 67
100 100 100 99 100 84 86 97 96 96 96 98 97 95 94 95 97 96 96 94 96 98 97 83 88 90 89 88 87 85 90 82 69 46 42 79 69 82 83 73 73 71 90 92 95 89 81 94 88 84 90 75 71 67
100 100 99 100 98 98 94 89 89 96 97 96 97 97 98 97 96 97 94 99 98 90 88 87 92 92 94 92 89 70 67 68 64 66 74 76 85 90 87 66 79 93 91 92 88 86 83 75 71 94 100 85 74 70
100 99 99 99 97 96 96 95 92 95 96 93 96 95 93 96 96 94 100 95 90 83 88 94 93 93 91 80 73 68 56 61 72 69 68 68 62 60 65 63 66 84 94 81 73 76 82 88 93 97 97 90 77 72
99 99 98 97 98 96 95 98 96 99 98 99 97 90 89 95 97 98 100 89 78 87 96 96 94 88 84 84 86 84 61 53 59 60 55 62 87 66 56 59 61 65 68 68 72 77 79 88 86 91 93 94 78 74
98 97 97 96 96 94 96 100 100 100 96 93 99 95 93 98 98 100 99 85 96 98 98 96 93 93 92 93 90 65 52 50 74 77 52 54 56 57 62 57 56 59 63 70 75 75 80 91 81 88 99 96 87 78
97 94 96 90 99 90 91 98 99 94 93 97 97 96 97 96 100 78 78 88 94 96 95 92 89 92 94 89 90 92 61 53 58 70 57 55 55 63 83 90 83 72 67 64 66 76 82 75 81 83 83 95 95 91
99 99 94 70 80 76 81 80 79 93 95 94 94 96 91 80 76 69 79 90 91 80 81 79 82 88 91 85 74 70 63 57 57 58 59 61 64 67 69 80 87 76 78 81 79 79 81 88 90 88 90 88 95 96
94 89 95 94 90 92 83 93 90 87 84 83 78 89 81 73 60 78 80 64 76 84 79 80 80 76 72 66 63 64 70 69 67 65 61 60 61 66 69 68 69 69 84 94 98 98 97 98 100 99 98 99 98 92
99 92 84 87 91 94 81 77 79 79 68 83 79 78 76 78 81 88 60 71 78 79 79 82 82 82 82 78 74 68 64 63 78 87 93 88 96 70 66 72 77 82 82 81 82 99 96 97 97 93 88 89 89 92
98 86 88 88 76 76 77 78 88 92 84 81 76 87 88 86 61 55 58 65 79 83 67 64 62 71 66 66 65 65 67 70 75 80 91 89 83 77 85 88 86 82 86 92 95 90 88 94 95 94 92 98 98 98
92 93 89 89 83 94 97 92 90 68 90 96 94 92 87 91 69 45 46 49 59 66 69 75 73 66 64 74 86 99 91 75 80 83 87 92 96 94 88 83 81 85 95 98 97 98 98 95 95 99 99 97 96 98
97 86 86 92 95 96 96 95 96 94 97 96 93 100 94 93 86 80 64 74 83 90 84 75 74 64 58 63 72 77 85 89 88 92 96 98 97 93 92 90 89 97 98 100 99 98 98 99 99 98 100 98 98 96
97 97 99 99 100 98 97 90 93 91 96 97 97 97 97 94 79 83 66 77 77 76 70 69 71 77 78 78 82 87 92 93 90 88 97 100 100 97 94 95 99 99 99 99 97 96 96 97 98 98 97 96 96 96

GFSWCAN_925_rhum_024.txt.gz
RH
87 80 77 83 96 99 98 93 95 96 94 78 95 90 80 79 80 86 71 70 74 93 89 75 84 89 84 92 92 81 84 85 92 87 89 92 92 92 89 83 90 90 93 96 89 99 92 65 76 71 61 61 61 63
84 85 86 89 88 98 99 88 97 90 85 86 92 96 90 82 80 90 83 71 72 87 81 65 63 60 64 68 83 88 84 84 89 90 92 91 92 94 87 94 78 92 82 90 87 79 54 58 65 59 66 66 62 63
83 89 87 86 90 94 88 96 91 98 93 80 95 99 95 86 85 81 80 77 86 98 92 90 88 53 56 64 54 95 90 81 87 82 91 90 88 91 99 95 82 76 64 73 79 67 71 64 63 62 60 64 58 64
82 81 89 91 91 91 89 98 93 99 95 98 98 96 98 94 86 86 93 88 89 97 98 78 57 63 60 71 64 54 67 67 85 87 88 91 86 80 88 78 87 81 78 80 75 69 70 61 62 58 57 58 66 70
82 87 89 87 91 93 90 89 93 94 99 96 98 96 98 93 85 86 83 87 91 94 97 87 69 65 64 55 51 50 62 73 88 98 94 92 91 88 92 89 94 83 79 86 84 71 78 75 68 61 64 66 65 72
84 91 88 89 90 96 93 92 93 94 100 97 95 100 95 93 94 92 97 86 89 95 100 98 72 78 62 72 58 52 76 81 90 96 92 92 80 82 92 96 74 75 76 69 83 77 81 77 80 73 68 68 67 72
86 90 94 95 98 95 96 94 95 95 99 96 99 96 94 97 95 91 83 75 82 97 99 94 93 77 86 83 84 83 90 93 95 95 93 93 93 86 91 84 83 78 65 63 61 69 73 72 80 82 69 61 64 66
95 97 97 99 97 96 93 95 95 96 96 98 89 82 95 89 94 90 79 88 88 97 98 98 94 100 92 92 89 88 97 94 98 95 96 95 97 92 96 80 67 63 69 63 70 74 72 72 76 81 67 72 68 70
100 99 99 92 98 94 94 95 95 97 95 94 63 83 88 94 86 82 91 92 96 95 99 98 98 97 88 92 95 98 96 100 99 96 96 90 96 96 87 79 71 74 78 85 87 90 89 87 80 75 71 70 71 72
100 95 91 96 93 94 95 93 94 96 95 67 76 86 80 85 84 89 100 99 100 100 100 100 100 98 98 97 98 96 96 98 94 92 96 99 96 85 78 77 79 81 85 88 94 94 93 92 92 87 79 77 74 71
100 92 88 94 94 96 95 92 96 97 91 63 88 94 80 80 84 97 100 100 98 99 100 100 100 99 94 94 97 90 99 99 95 99 96 98 93 88 84 82 82 85 86 87 88 88 89 92 93 92 89 83 76 70
100 95 92 89 89 94 95 94 99 95 98 91 84 87 76 92 97 100 97 96 99 96 99 100 99 98 96 92 94 96 99 98 97 92 99 97 94 91 88 84 87 87 86 80 72 79 87 89 91 93 92 90 76 65
99 100 97 94 91 93 94 96 96 99 84 89 99 99 98 96 99 99 95 96 94 100 99 99 99 99 94 93 97 98 95 97 90 98 91 92 95 91 92 91 89 84 78 75 74 78 92 91 90 78 73 68 66 65
97 99 100 94 92 94 96 98 99 92 71 93 92 96 98 96 92 96 96 98 95 94 98 98 99 99 98 100 96 90 96 90 98 99 86 99 92 91 90 89 92 93 89 85 82 80 88 95 97 92 83 72 68 72
96 95 99 98 94 98 98 100 98 74 78 93 93 97 97 89 95 97 99 98 97 91 95 98 99 99 100 97 94 99 100 97 88 87 96 97 93 90 90 89 92 97 96 91 87 85 80 78 88 94 92 83 78 79
78 90 100 95 91 95 100 99 98 76 91 94 98 99 89 98 95 96 98 97 97 94 96 100 100 100 99 99 96 92 89 88 87 97 98 91 92 91 92 88 92 96 95 92 90 88 87 83 82 85 96 94 90 88
91 99 89 93 91 100 100 98 86 96 97 100 97 93 97 99 98 96 90 91 96 99 98 99 99 94 99 99 98 96 92 90 97 100 95 92 89 90 89 82 88 90 92 92 93 95 93 86 78 76 80 83 98 95
88 82 94 99 97 100 99 96 94 100 93 97 100 94 95 91 94 89 87 87 96 99 98 99 99 99 99 97 96 94 100 100 99 92 93 91 85 92 81 85 86 81 81 90 95 98 98 96 90 90 84 75 84 96
88 82 99 100 99 98 98 99 91 99 96 96 96 98 96 92 95 96 96 84 88 94 99 98 98 96 91 96 96 99 100 98 97 94 85 76 81 84 78 82 82 76 79 90 92 90 94 97 93 90 87 77 76 73
86 96 100 100 99 98 96 96 99 99 100 89 98 98 99 97 93 95 96 91 94 95 99 99 94 90 91 93 95 96 96 92 90 81 65 84 84 82 81 85 86 74 73 80 76 78 79 78 72 69 83 94 82 76
99 100 100 100 99 97 94 95 99 98 97 98 96 99 97 97 99 98 97 97 98 97 98 85 82 86 87 88 88 88 91 82 72 61 49 77 70 78 82 77 71 67 80 80 88 82 76 78 72 70 87 100 96 79
98 100 99 100 99 98 98 89 87 95 100 96 97 99 100 98 97 98 96 97 97 90 86 87 88 84 79 92 92 83 78 70 58 58 65 63 76 88 86 64 74 84 78 72 77 80 75 72 78 90 95 98 98 86
100 99 99 99 98 97 94 98 98 95 86 90 96 96 96 97 96 96 100 94 91 82 85 93 90 91 92 87 79 71 69 63 71 64 65 64 55 53 60 59 60 73 86 63 58 68 74 77 78 91 88 90 90 89
96 97 98 98 98 97 94 97 93 99 100 100 100 93 85 95 97 99 100 88 78 94 97 96 96 94 91 88 93 89 67 62 58 59 51 57 86 59 52 48 50 55 58 58 64 73 77 75 89 87 84 90 91 90
99 96 98 96 96 94 96 97 100 100 100 97 100 97 94 98 99 100 91 85 94 94 96 96 96 95 94 96 95 73 65 54 70 71 46 50 52 62 65 62 58 52 49 56 64 65 66 71 87 77 81 86 89 97
97 92 98 92 98 94 95 100 100 98 96 99 98 96 98 96 98 77 77 85 85 93 96 95 93 97 95 94 94 92 64 53 51 64 51 48 53 64 80 87 84 64 56 62 66 69 72 77 84 81 80 79 80 80
97 95 94 74 84 79 81 80 80 94 98 96 97 100 93 74 73 66 73 85 85 75 80 88 84 88 96 88 76 70 57 56 56 57 56 55 56 58 58 68 78 60 70 76 80 83 85 86 88 92 93 89 87 86
91 90 96 96 92 94 82 92 92 91 87 86 86 93 92 86 72 72 72 49 61 70 78 83 88 84 79 69 59 61 71 68 66 65 66 66 62 58 57 61 65 68 71 78 87 93 99 99 99 100 100 98 92 85
96 94 90 96 93 95 86 80 82 82 71 88 86 84 77 78 84 86 49 57 68 80 81 83 80 82 81 79 76 73 70 69 74 76 78 82 94 61 62 65 69 74 79 83 84 94 96 95 94 94 94 94 90 89
93 92 92 93 84 84 81 80 86 92 87 83 79 87 88 86 58 52 53 56 67 75 54 58 61 75 83 84 73 69 65 61 60 64 82 83 81 73 78 83 87 85 84 88 91 93 92 98 98 95 94 94 96 97
94 92 88 95 89 91 95 94 95 70 92 96 95 92 86 90 67 40 42 44 50 61 67 76 79 81 75 73 74 90 80 56 63 71 75 76 78 82 83 86 89 90 91 92 96 99 98 100 99 99 98 95 93 95
100 91 88 90 90 95 97 95 97 94 98 97 92 100 95 93 85 80 58 65 76 84 76 72 76 68 56 54 57 61 69 72 75 78 83 87 90 90 88 88 97 98 93 95 99 100 100 98 97 97 98 96 95 96
100 99 99 98 99 100 97 91 95 92 97 99 94 97 98 92 79 83 66 72 73 73 71 68 71 76 69 67 71 79 80 83 87 88 100 100 99 96 97 98 97 99 100 100 98 97 96 96 96 96 96 96 96 96

GFSWCAN_925_rhum_027.txt.gz
RH
87 91 87 90 77 79 89 89 93 96 96 92 95 93 99 88 84 88 82 73 73 88 84 70 82 92 87 88 95 84 87 86 90 88 86 88 91 93 90 82 74 82 95 83 76 88 94 63 72 70 60 59 59 63
88 87 80 80 76 87 87 90 93 94 95 92 96 96 99 96 88 88 88 77 72 83 84 63 60 56 53 65 76 82 96 86 88 89 92 91 92 95 90 84 82 94 80 88 79 77 57 61 59 61 67 64 61 63
86 83 78 77 85 96 88 85 94 92 98 93 96 91 98 99 97 84 82 84 95 100 83 87 89 64 69 68 64 89 86 88 90 84 89 90 87 91 97 85 86 79 73 81 80 67 74 67 61 64 61 65 59 61
80 78 76 80 88 92 92 86 84 85 90 99 95 97 96 97 96 89 90 91 93 93 99 77 58 64 45 59 69 69 62 69 75 91 91 92 89 84 92 79 85 82 80 81 84 74 66 67 67 58 59 60 64 68
86 83 81 78 83 86 91 88 88 89 88 99 98 95 97 99 94 92 92 92 92 91 95 90 71 66 66 59 73 70 65 62 78 99 99 93 90 90 93 90 94 87 84 92 92 73 72 73 70 71 72 78 74 71
81 81 82 82 85 94 97 94 94 93 94 100 97 95 100 89 96 95 94 83 88 96 99 96 74 75 63 62 70 66 61 76 96 100 95 92 81 80 96 95 75 78 77 74 82 80 84 83 80 77 74 74 69 69
84 84 86 89 92 94 99 95 93 94 95 95 96 99 88 97 94 88 83 74 87 87 98 97 91 72 87 81 81 79 64 83 96 99 98 95 95 87 92 95 76 82 72 61 63 70 78 73 71 78 82 83 68 66
97 97 94 97 95 94 96 94 94 94 95 94 95 83 96 88 92 93 85 92 92 97 97 98 95 92 90 88 69 90 91 88 98 96 98 96 98 94 97 82 76 66 68 67 74 75 73 76 77 79 78 74 71 73
97 99 100 91 87 97 93 95 95 93 95 87 67 69 98 94 87 86 93 93 100 94 99 97 98 95 86 94 93 94 92 99 95 97 98 89 99 92 82 86 75 74 72 75 86 88 89 89 90 82 80 72 75 76
100 100 95 86 90 92 93 94 92 96 89 72 74 86 94 86 82 83 99 99 100 100 100 99 99 98 98 97 98 98 98 99 100 98 96 93 93 88 82 83 81 80 81 85 90 89 94 95 94 92 88 88 81 78
99 99 89 81 90 90 92 93 97 95 91 74 85 93 78 74 82 94 100 100 98 96 99 97 100 99 94 100 98 96 99 100 99 100 96 100 87 93 84 83 84 85 85 87 89 88 87 88 96 98 94 92 90 83
86 99 88 84 88 90 93 93 93 87 94 97 92 89 89 92 96 100 98 97 98 95 100 100 100 99 95 96 94 95 100 98 97 94 98 98 92 92 86 88 87 88 87 82 74 75 85 89 91 95 95 90 87 82
93 90 95 88 85 92 94 91 87 88 85 90 99 99 96 96 99 97 95 95 98 100 100 99 98 99 95 95 96 96 95 88 93 99 94 95 95 93 92 92 89 89 85 76 77 76 81 93 95 94 84 71 69 68
97 93 95 99 90 91 98 95 88 84 68 92 93 96 96 96 95 94 94 97 96 97 91 95 99 99 98 100 96 99 97 92 96 97 91 92 93 94 90 88 92 96 92 88 87 86 82 83 96 99 100 96 88 68
88 89 96 100 95 96 98 96 97 80 72 91 92 86 96 88 96 95 98 96 95 88 88 94 98 100 100 100 98 99 98 93 86 84 93 99 92 88 86 84 92 95 94 91 89 87 85 82 78 81 95 92 84 80
79 89 98 99 97 98 96 100 98 81 92 94 95 99 88 98 95 96 98 98 95 96 96 98 99 99 99 100 99 94 92 87 87 96 97 92 89 91 87 82 88 92 88 86 89 91 88 87 86 81 84 88 95 91
86 90 86 100 96 99 100 98 86 99 100 100 98 92 98 99 97 95 92 90 89 98 99 99 99 98 99 99 98 97 91 90 94 100 97 90 92 92 87 81 84 80 78 88 93 99 98 90 82 82 85 80 82 99
89 90 94 100 93 100 99 97 93 99 100 98 99 94 95 94 95 94 93 91 96 100 100 98 98 98 99 97 94 91 98 99 99 98 97 91 86 91 76 81 78 69 76 88 91 92 95 95 93 94 92 82 75 78
84 85 87 99 99 98 99 99 90 100 99 97 97 98 98 94 93 94 96 92 93 96 100 98 98 97 94 95 93 97 99 99 95 92 89 82 80 87 77 80 75 67 78 89 85 87 89 87 86 74 76 98 89 78
97 96 100 100 100 98 97 97 98 100 96 86 99 100 99 98 98 97 97 97 98 98 98 100 91 84 90 93 95 96 96 93 94 93 85 84 89 83 83 82 79 68 75 78 68 73 74 65 66 67 74 95 100 94
91 100 100 100 99 99 98 98 100 100 97 97 98 100 97 97 99 100 99 97 98 97 97 86 77 85 83 84 85 87 90 92 91 86 79 86 86 79 82 81 73 62 67 65 72 69 70 74 71 76 88 92 99 100
98 99 99 100 99 99 98 91 91 94 100 98 96 100 100 100 99 99 98 98 97 90 88 86 82 86 78 80 89 86 83 83 66 52 56 63 84 95 93 71 75 74 64 58 61 67 66 67 71 81 92 93 93 91
99 99 98 100 98 98 90 97 97 97 94 88 97 96 95 100 98 97 100 95 91 88 88 94 90 82 87 78 84 82 81 77 72 66 63 58 50 50 49 55 58 63 76 50 48 56 64 72 71 74 91 88 85 89
99 99 98 98 98 96 94 98 94 97 99 100 100 95 84 96 97 100 100 91 82 91 96 94 95 96 94 93 96 93 76 76 64 58 52 58 87 58 50 48 49 48 48 49 56 63 64 68 74 80 90 79 83 86
99 98 99 98 96 94 98 99 98 99 100 95 100 98 94 99 97 100 97 87 91 88 83 91 94 92 84 93 96 85 75 66 73 71 47 47 48 54 54 52 50 50 52 56 58 61 65 70 73 86 85 75 79 79
97 86 98 96 98 95 94 99 99 99 98 98 98 96 100 97 93 76 81 83 74 81 83 85 87 92 93 91 94 92 75 68 56 63 43 39 43 50 72 80 86 60 52 50 59 66 69 73 76 82 86 83 86 88
96 94 96 93 91 88 88 82 80 92 96 94 96 100 94 78 74 68 78 87 78 63 67 79 87 89 89 88 78 72 62 65 59 53 49 47 47 49 53 66 77 57 56 62 70 74 78 84 89 90 91 91 91 90
90 89 95 95 95 93 85 91 89 90 85 82 87 100 91 83 79 84 80 44 43 51 61 71 82 86 84 80 72 75 73 67 66 64 62 61 60 59 60 61 63 64 72 76 78 83 91 93 95 95 95 95 91 85
96 91 89 97 94 93 90 86 82 79 68 89 90 88 83 86 87 85 43 43 51 66 80 80 70 81 84 82 76 66 65 70 77 81 82 83 88 48 47 55 62 65 68 72 77 91 96 98 98 97 95 95 92 94
94 90 96 98 91 91 84 82 85 89 84 82 80 89 89 87 50 42 46 53 63 71 45 41 48 67 81 92 84 83 77 72 69 67 76 71 67 57 65 69 70 73 82 90 89 84 81 96 96 98 95 96 97 97
95 96 95 97 93 92 94 92 94 69 90 96 96 94 86 89 67 39 38 36 42 50 63 70 69 69 79 83 86 89 76 51 48 51 57 63 68 73 76 76 80 86 94 99 100 96 91 94 97 98 98 97 95 100
100 97 93 95 91 94 99 99 97 95 98 98 90 100 95 94 85 77 46 52 68 82 74 71 77 72 56 60 66 62 53 52 60 66 70 74 77 80 84 85 83 92 97 99 99 99 98 97 97 98 97 96 95 94
100 100 100 97 93 95 98 90 95 96 98 99 93 93 95 90 75 80 67 71 72 70 68 65 66 71 72 64 60 62 67 74 78 79 88 99 100 99 95 96 95 93 95 98 98 98 97 97 97 97 97 96 96 95

GFSWCAN_925_rhum_030.txt.gz
RH
84 85 84 80 79 74 80 85 83 91 94 88 91 92 94 96 92 87 84 77 73 76 61 55 65 64 53 63 84 80 81 82 85 85 78 72 66 64 67 58 63 66 75 82 74 78 79 47 58 54 49 51 49 53
86 87 86 78 74 81 92 87 82 85 91 91 89 92 96 99 96 92 88 79 78 80 67 60 54 51 50 54 66 69 92 84 73 79 75 73 72 73 66 72 60 73 57 56 54 52 40 49 50 51 54 54 54 57
86 87 86 82 79 92 89 88 84 84 84 96 92 93 92 94 98 97 90 83 92 99 85 73 71 67 74 64 57 62 67 79 86 85 80 78 74 69 77 66 66 65 58 61 64 47 50 47 49 51 53 55 53 52
83 80 76 74 76 82 84 84 86 86 88 92 89 98 91 93 97 95 95 87 91 92 92 78 71 67 52 59 71 65 54 64 69 94 92 82 74 66 68 59 60 60 64 60 60 57 57 55 52 51 56 57 57 57
87 86 82 76 76 83 83 86 93 91 88 87 93 93 95 99 87 92 92 94 94 96 86 74 69 66 64 66 71 72 67 66 76 92 100 92 74 73 70 68 68 63 65 66 59 52 48 51 54 62 66 65 62 64
87 80 78 75 81 86 90 94 96 92 90 91 92 93 98 82 96 92 84 79 92 98 95 93 69 66 62 69 71 71 70 68 74 83 95 95 72 66 78 73 55 56 58 56 55 56 60 59 61 64 62 60 58 61
92 87 85 85 91 91 92 94 91 88 89 91 92 94 92 88 96 88 77 74 80 94 99 87 81 55 70 80 75 71 67 67 66 76 94 97 84 72 80 69 51 55 56 63 56 58 60 63 63 63 62 62 66 65
97 94 94 98 94 87 94 91 89 88 89 91 92 88 78 89 94 94 89 93 94 99 90 92 88 73 76 92 74 68 76 71 77 81 88 96 95 83 87 66 68 63 59 58 61 61 61 60 62 66 69 72 66 63
98 94 96 95 86 87 88 90 91 89 90 89 78 71 92 96 88 81 87 95 100 98 93 88 91 88 94 98 91 74 69 79 65 97 94 94 98 97 72 71 67 62 61 63 68 66 64 70 72 72 73 70 71 67
97 89 98 87 84 81 83 88 90 92 88 80 66 88 91 85 79 81 98 98 100 100 99 96 93 94 98 99 98 93 97 95 98 95 93 97 98 82 72 70 64 66 67 71 71 78 89 93 85 78 80 75 73 72
98 92 91 80 85 79 85 89 91 84 84 83 86 84 77 70 86 86 96 99 92 93 94 89 97 96 94 100 100 97 100 100 100 99 100 96 83 83 73 72 71 70 70 71 72 72 72 75 82 87 87 79 79 78
97 86 81 84 86 89 91 86 83 81 83 97 94 88 92 90 92 95 92 91 93 91 100 100 100 99 99 97 98 93 100 99 98 94 96 95 82 83 73 76 75 72 72 72 70 69 74 83 90 93 85 74 74 82
90 87 83 82 84 84 86 83 81 81 80 89 95 93 88 90 92 91 93 90 92 99 96 96 95 99 96 97 97 96 99 94 93 99 86 78 85 81 79 78 78 75 74 71 73 73 72 82 93 98 95 89 70 67
93 86 83 87 91 92 91 91 90 79 67 86 86 67 88 87 87 88 84 90 86 92 86 88 96 100 98 99 92 100 100 96 96 90 77 83 83 79 77 80 77 80 78 76 77 77 77 77 88 99 100 100 99 90
97 92 88 94 100 95 89 91 88 75 69 84 81 60 88 79 88 88 92 96 89 90 92 93 94 98 99 100 100 98 95 87 74 74 76 86 83 78 73 75 79 76 74 76 80 78 77 78 75 74 91 95 92 87
83 88 100 94 100 100 95 93 95 80 89 91 93 96 82 93 88 90 92 93 88 91 92 97 98 98 99 100 100 95 92 83 79 90 86 81 79 72 67 70 76 75 66 69 81 84 84 81 79 77 75 76 87 96
82 82 81 99 99 100 98 96 84 96 98 98 94 85 85 92 89 82 75 79 81 90 95 96 97 99 98 100 97 90 86 84 88 91 87 81 80 76 64 69 72 63 65 71 80 86 89 88 83 81 80 82 80 88
89 86 98 100 96 100 100 97 94 96 98 94 96 82 80 78 82 78 81 83 87 92 94 95 96 98 94 95 87 86 88 97 92 87 82 80 77 80 66 66 65 58 66 77 84 89 91 87 70 64 73 97 83 77
88 94 100 100 100 95 99 99 91 98 97 95 88 85 84 80 81 79 83 87 87 92 95 96 99 96 85 85 91 93 92 91 82 80 77 76 78 78 69 72 63 66 78 82 74 73 76 78 80 71 72 87 95 89
86 90 100 100 99 94 97 96 99 98 96 80 90 97 94 89 89 90 92 90 92 95 99 96 89 72 78 75 82 82 83 79 78 79 76 74 78 84 80 76 63 64 70 76 66 70 69 60 64 69 79 87 89 95
98 100 100 100 99 99 98 96 99 96 94 87 91 94 90 92 94 98 97 92 98 97 95 80 71 66 73 78 80 80 85 84 79 71 70 76 75 79 78 81 71 62 58 51 49 51 60 60 68 71 83 88 93 92
89 98 99 99 98 99 97 94 90 86 98 93 92 96 99 100 94 94 95 96 94 86 80 76 68 68 69 72 68 76 77 82 85 66 61 73 77 79 76 75 77 65 62 59 55 54 56 59 63 76 81 89 90 85
96 99 93 99 98 96 95 97 96 95 94 89 93 93 90 95 93 92 99 93 86 76 76 82 82 79 77 69 70 73 78 88 78 64 58 56 55 65 61 60 52 57 65 50 44 50 59 62 72 74 81 93 86 78
97 99 99 97 96 94 91 96 91 94 96 97 100 91 86 87 92 97 99 84 71 73 78 81 81 80 82 87 82 75 75 86 83 71 58 56 62 54 47 44 43 42 41 44 50 54 56 64 74 74 80 90 82 81
99 98 98 98 96 95 95 95 95 94 100 94 100 92 90 95 89 96 93 82 80 75 71 72 76 81 80 75 77 77 74 80 80 74 60 53 50 48 54 50 45 41 45 51 58 59 59 65 70 73 79 85 84 82
96 95 97 86 91 95 93 97 98 98 97 95 95 90 96 92 93 85 77 76 65 68 66 65 70 75 77 80 79 82 78 75 72 68 58 49 46 49 64 65 63 50 44 48 53 55 61 70 76 78 84 81 85 89
96 91 93 87 88 87 88 78 76 87 94 92 85 96 93 93 84 70 62 68 66 55 52 61 76 82 78 77 78 74 72 73 69 65 59 48 39 35 36 54 66 46 49 52 52 58 68 73 77 80 84 86 84 83
88 85 95 96 94 92 93 94 93 92 82 77 83 96 92 86 75 75 75 42 38 37 45 49 53 66 74 70 68 72 77 74 73 67 63 60 54 51 50 52 56 58 62 64 65 72 77 80 86 89 90 90 88 84
95 89 89 99 96 98 95 91 93 90 72 81 86 83 83 79 79 77 40 36 39 45 58 55 38 42 56 71 76 76 74 77 80 84 80 73 76 54 50 53 62 66 66 70 77 91 87 89 90 92 92 94 94 95
98 88 91 95 94 94 85 82 85 84 78 78 78 83 83 81 49 40 45 46 57 62 46 45 44 50 64 74 74 72 75 75 75 73 74 71 66 45 46 54 62 67 70 74 80 85 88 91 92 96 96 96 97 99
92 96 97 94 94 90 93 87 87 67 85 91 91 91 68 80 64 41 40 39 43 52 60 66 66 61 69 75 84 85 77 57 66 71 72 72 70 61 61 66 71 74 80 87 94 98 98 100 98 96 97 96 92 100
98 99 96 100 93 93 94 99 97 95 93 96 87 97 91 86 82 70 42 48 60 71 68 67 76 69 57 58 62 65 70 61 51 54 56 62 65 71 76 78 82 88 90 95 98 99 98 98 97 97 98 97 95 95
100 96 100 96 94 92 99 90 96 96 96 96 90 92 91 86 78 74 60 67 70 68 64 62 63 66 68 69 64 70 66 65 69 74 78 90 94 97 98 96 92 88 90 94 94 98 98 99 100 99 98 97 95 95

GFSWCAN_925_rhum_033.txt.gz
RH
73 80 82 79 74 73 77 89 80 80 88 90 86 87 89 87 90 93 83 77 69 69 58 50 44 48 39 45 63 72 71 74 79 77 66 60 52 48 47 46 54 59 64 64 57 66 72 38 54 57 49 46 46 48
78 84 84 78 73 74 89 94 90 83 81 86 90 89 92 94 94 91 88 82 82 81 64 63 59 54 48 44 55 56 80 73 75 72 57 53 51 50 50 56 42 58 45 48 47 48 35 37 38 44 46 48 49 52
82 86 86 84 81 81 90 86 86 84 83 90 90 88 81 92 92 99 98 93 92 93 71 60 61 61 64 67 57 52 50 69 83 84 88 74 67 47 57 53 52 47 40 54 49 40 40 38 43 44 47 50 49 48
83 85 82 78 80 81 81 80 84 89 89 87 89 85 82 86 91 92 89 84 87 82 92 61 62 62 58 64 64 54 48 55 58 86 97 86 74 45 49 46 47 44 51 56 50 43 49 44 38 38 49 52 53 52
80 86 85 84 83 82 84 86 94 93 89 87 86 87 91 97 86 96 94 94 94 86 87 77 67 61 60 59 60 59 57 58 63 82 97 100 68 62 57 55 54 49 51 57 52 37 38 38 42 47 54 56 54 55
85 92 82 80 82 85 82 92 100 91 83 85 87 83 92 87 90 94 72 75 86 93 95 82 58 57 54 57 61 62 61 62 64 70 76 74 86 92 67 57 39 36 39 38 42 43 44 48 51 51 56 54 54 54
87 85 82 88 90 92 84 84 88 81 77 86 91 93 91 83 96 82 78 86 82 89 87 84 78 49 53 70 70 66 60 68 68 77 65 66 76 99 86 60 41 39 40 47 50 53 57 53 54 57 54 52 58 57
81 83 87 96 96 90 86 87 84 84 86 89 93 87 68 92 96 89 91 92 93 98 98 89 83 69 68 85 71 60 68 70 65 60 54 61 60 92 99 63 46 47 48 53 53 52 54 53 51 51 56 59 61 60
83 86 87 94 92 86 81 77 86 85 89 91 79 74 88 94 79 91 86 93 100 99 95 91 92 95 94 99 83 69 64 74 53 70 61 53 74 99 85 65 59 56 55 53 58 57 55 56 58 63 65 65 64 61
98 87 90 94 86 82 79 82 80 84 81 77 70 72 83 82 74 71 99 100 100 100 100 94 94 94 98 98 99 94 77 96 79 63 63 83 88 80 78 65 56 57 58 58 63 73 86 93 79 69 73 70 69 68
91 91 95 90 86 78 84 85 82 78 78 82 81 78 83 73 89 79 93 100 97 95 95 89 97 96 86 100 100 98 100 98 100 98 93 100 96 79 74 66 63 60 58 60 60 62 62 65 72 80 85 77 70 69
97 89 84 84 88 87 86 86 80 79 83 88 93 91 95 80 87 94 94 96 97 96 100 99 83 83 99 97 100 100 100 100 99 100 100 96 82 75 67 67 66 62 62 63 62 63 64 71 80 89 92 82 73 64
96 82 80 82 83 85 82 78 85 80 75 94 85 95 84 85 88 82 84 82 85 90 84 87 92 78 95 98 99 99 100 95 90 100 79 74 82 74 72 69 69 65 65 64 67 69 66 70 86 94 95 95 95 78
83 83 77 74 77 88 87 81 90 75 80 80 83 62 86 83 78 80 76 83 82 90 85 81 82 87 94 100 100 100 94 93 91 90 77 79 76 68 67 68 66 69 68 68 71 70 71 72 76 86 96 99 100 97
95 84 80 77 92 93 91 82 82 75 82 89 83 70 75 67 84 86 95 90 83 84 87 86 90 93 98 100 100 100 98 87 67 72 82 85 76 70 68 68 66 64 64 68 70 68 70 72 70 69 75 74 85 88
95 97 98 99 99 99 90 89 87 78 94 93 93 90 72 84 84 85 91 89 81 82 82 94 98 98 96 99 100 99 94 88 82 98 88 74 72 62 59 65 65 58 51 56 69 73 74 74 74 72 70 74 75 85
88 86 89 98 100 100 98 94 83 96 98 97 90 77 78 84 81 68 56 60 72 81 85 91 93 97 94 98 96 84 88 94 97 91 82 76 74 62 56 62 62 52 53 56 64 70 79 77 62 57 64 85 88 80
89 84 90 96 95 100 98 90 98 96 98 91 88 81 68 59 65 59 58 62 75 81 88 88 92 94 92 92 82 88 91 99 92 84 78 76 68 65 58 58 55 50 56 63 72 78 78 71 59 53 58 66 83 82
86 89 96 99 98 94 99 99 96 97 93 90 83 76 72 70 64 63 63 66 76 82 90 90 93 91 84 79 90 100 96 90 80 75 69 70 70 71 60 64 56 60 70 72 62 58 61 64 66 62 64 71 73 82
89 95 98 99 99 93 100 96 99 97 96 82 79 84 80 76 74 75 77 81 82 84 93 92 85 68 66 61 80 81 81 74 73 84 89 68 66 79 78 71 55 56 60 70 62 65 56 53 58 60 67 78 80 76
96 100 100 99 100 99 98 96 96 95 89 84 82 84 80 82 85 88 90 81 87 85 87 72 64 55 55 55 61 72 72 79 81 80 72 72 64 71 73 74 72 55 48 42 39 38 53 45 54 60 66 72 80 79
95 100 99 100 99 100 98 94 91 81 92 87 89 86 89 89 86 90 90 93 87 80 72 59 59 61 62 65 62 66 68 72 76 80 69 70 72 76 75 71 73 63 54 53 47 43 43 49 56 64 69 68 83 78
95 97 96 100 100 98 95 95 94 92 94 87 88 87 84 89 87 86 96 84 80 67 65 67 73 78 82 75 75 75 71 76 74 73 69 63 58 70 69 72 68 72 74 60 49 57 61 57 64 70 66 78 79 71
96 99 100 97 94 92 90 95 86 90 90 92 93 85 82 84 84 92 88 74 66 58 64 77 70 66 62 80 78 70 72 79 77 79 69 59 60 50 61 64 49 52 48 49 48 54 60 59 65 68 67 78 82 76
99 99 96 94 96 94 96 96 93 91 99 88 92 88 87 89 89 87 81 79 75 65 68 62 60 63 67 63 66 67 68 78 75 78 73 65 53 48 50 48 45 41 40 45 58 57 62 62 64 72 77 81 80 80
96 89 93 91 91 94 86 94 97 93 87 92 89 83 89 90 94 89 74 72 60 64 60 56 58 64 63 68 69 68 74 76 82 78 72 69 60 57 70 66 62 50 33 35 47 61 63 62 65 71 76 74 79 81
95 93 90 77 72 77 81 72 71 83 93 95 81 91 92 96 91 72 58 58 62 54 40 43 60 72 71 68 64 63 66 69 77 75 70 64 60 54 48 64 66 42 38 41 46 54 60 65 72 77 80 81 84 83
82 78 95 93 90 84 89 86 90 93 82 76 88 94 94 88 78 73 74 45 30 33 36 35 37 40 42 41 48 60 66 71 75 74 71 66 61 54 51 48 45 44 49 53 57 58 59 64 71 77 84 88 87 82
88 84 83 97 95 93 92 88 85 74 65 78 88 90 81 71 74 76 52 42 39 44 68 66 59 48 47 44 47 50 67 77 86 85 82 72 78 62 51 53 55 59 63 65 69 85 77 77 80 84 87 90 92 96
92 82 86 93 94 93 83 82 86 82 72 72 70 72 74 78 49 40 44 48 62 60 48 50 54 61 63 66 68 68 55 60 74 77 75 73 70 60 47 45 47 51 58 63 67 70 75 88 94 94 89 95 99 99
86 93 92 87 90 84 84 83 81 62 75 83 84 86 68 74 61 39 38 39 47 54 60 64 68 69 73 73 76 76 73 62 55 60 74 80 72 64 60 55 59 65 70 73 79 86 93 97 98 99 98 95 91 97
94 95 94 97 90 89 89 91 86 86 86 89 86 87 84 82 82 74 38 48 54 71 67 69 75 73 68 66 66 68 71 67 61 55 64 80 80 79 73 67 71 76 81 87 90 93 96 100 99 98 99 97 95 95
95 91 94 93 92 85 91 87 87 88 91 90 86 84 84 80 79 72 51 55 60 66 70 70 69 67 67 70 70 69 71 70 70 71 73 74 76 81 84 89 94 95 96 96 96 98 99 98 97 97 98 98 96 95

GFSWCAN_925_rhum_039.txt.gz
RH
63 70 72 64 70 65 64 74 94 91 85 79 87 82 82 81 88 83 93 84 74 91 85 60 55 57 60 66 74 68 79 84 85 86 85 81 72 61 58 57 74 76 85 89 85 84 86 60 60 72 62 57 56 56
62 75 74 72 65 63 66 81 90 86 83 84 86 80 81 76 90 90 92 86 84 91 84 62 68 67 68 64 69 68 66 74 95 98 95 97 78 67 68 76 56 74 69 74 71 70 48 60 53 54 56 58 56 61
69 77 79 80 77 72 69 78 85 82 87 93 84 79 84 79 95 92 86 86 94 96 88 75 69 60 63 62 65 71 74 75 82 84 96 96 99 79 76 74 58 52 54 61 58 49 49 47 56 55 54 59 59 60
73 80 82 76 71 69 72 79 84 82 92 96 80 77 83 92 88 97 98 89 90 93 95 77 60 64 63 60 61 66 69 62 64 82 87 94 94 87 87 73 71 62 58 62 65 57 52 47 56 62 63 62 62 59
76 78 76 71 70 73 74 82 87 86 97 86 73 80 88 92 77 93 74 76 89 89 96 88 70 62 55 66 72 74 72 68 81 92 98 93 92 95 90 83 80 64 66 70 74 57 54 52 51 62 69 69 68 65
76 74 74 68 70 72 82 87 78 84 78 73 81 87 92 78 79 94 95 81 84 84 99 95 68 61 55 57 60 61 65 71 78 87 88 84 79 94 95 90 49 45 55 57 58 54 59 68 69 64 70 69 62 61
75 75 70 71 76 82 89 80 73 70 73 79 80 88 81 78 84 84 89 85 89 84 95 95 91 65 51 64 76 79 69 80 80 86 88 80 76 84 97 79 56 53 65 77 62 68 68 65 72 68 66 64 62 62
78 74 75 80 83 85 77 77 75 79 77 79 74 68 74 88 92 87 89 87 92 93 94 96 91 85 74 91 91 79 85 86 88 87 87 85 79 82 95 67 58 46 56 72 68 64 69 70 65 68 67 69 72 76
82 80 81 84 85 79 81 77 80 77 73 74 64 78 86 83 82 87 81 94 95 91 98 97 100 97 92 93 92 94 83 98 81 94 85 76 79 92 73 68 59 69 89 96 78 69 67 71 75 77 76 79 80 83
85 85 85 84 80 78 75 78 79 75 73 76 71 73 92 79 73 77 97 97 95 99 98 95 97 97 92 95 97 99 98 97 98 88 81 82 87 60 65 69 89 86 83 93 81 81 89 91 84 82 86 88 87 85
87 84 84 87 78 74 76 77 76 75 73 79 82 85 84 83 80 90 87 98 94 95 98 93 96 95 82 98 98 93 95 98 95 95 91 97 99 98 94 81 76 70 77 82 79 70 74 79 88 91 94 90 85 82
84 85 87 83 75 75 75 73 74 71 75 77 77 87 84 76 95 90 99 92 93 98 94 93 93 89 90 90 99 99 99 99 94 100 99 99 100 94 100 100 92 84 84 78 75 73 78 88 92 93 91 91 93 93
88 85 86 76 76 76 73 74 73 72 76 84 86 95 93 88 75 75 82 84 90 97 97 96 95 88 85 93 96 100 100 98 98 99 99 100 92 82 89 99 99 100 100 92 75 74 76 87 90 92 91 92 94 94
90 88 80 75 74 76 78 76 73 74 76 95 91 68 82 89 90 93 91 92 91 99 98 97 95 96 87 97 98 100 94 99 98 98 98 99 100 93 79 74 72 82 96 97 92 79 79 78 80 79 75 73 79 92
90 85 79 76 75 82 85 81 76 74 80 100 88 74 84 85 96 99 98 94 94 96 99 98 96 94 96 99 93 100 99 98 98 98 99 98 99 99 76 73 70 70 75 77 76 76 75 75 76 77 76 78 77 81
88 87 86 81 86 90 89 84 80 79 85 97 97 85 91 89 92 97 99 99 96 94 98 97 97 95 96 100 99 97 99 98 95 95 98 98 98 99 95 78 65 56 60 70 71 84 87 74 72 70 69 64 84 80
84 87 82 88 97 97 94 85 82 94 93 96 99 95 98 98 96 96 88 84 82 92 98 94 96 89 95 97 100 97 97 95 98 96 98 93 98 98 99 77 66 53 56 63 66 76 79 82 54 46 54 56 78 82
95 94 90 96 98 96 94 89 95 90 94 87 100 94 91 86 87 84 80 84 90 96 82 93 91 93 98 93 93 92 99 99 99 98 96 90 83 91 99 83 66 49 57 95 98 91 95 87 85 61 54 60 65 69
86 97 94 88 86 73 86 98 96 92 93 85 87 92 94 88 87 81 82 79 82 81 88 88 92 87 94 93 94 93 98 98 97 97 96 84 79 91 99 99 98 67 81 94 81 75 58 54 50 53 52 62 74 73
86 95 91 87 74 88 96 99 97 90 93 94 97 97 97 96 91 91 92 90 84 92 92 95 88 86 91 74 93 96 96 90 95 94 77 79 78 86 98 99 98 98 97 78 64 58 53 52 50 50 51 62 74 74
94 100 100 90 90 90 88 99 94 91 86 98 97 96 94 97 96 99 97 96 92 96 98 87 83 76 70 74 70 76 78 83 88 90 82 82 75 80 84 84 89 97 68 63 63 54 52 52 42 47 50 55 62 72
97 99 98 96 97 100 99 94 91 96 98 98 95 99 100 98 99 100 98 93 88 92 91 94 90 77 86 82 77 70 72 76 78 78 70 71 80 91 89 82 89 87 75 64 51 47 39 36 40 44 47 55 62 67
96 84 92 99 99 98 95 97 96 100 99 97 98 96 96 100 98 95 100 97 92 88 80 86 75 73 79 70 66 58 59 69 84 82 82 83 81 82 85 82 78 86 88 80 62 41 38 36 44 52 51 57 60 67
83 93 98 97 98 98 97 99 98 99 98 98 100 100 92 98 97 100 100 92 80 86 91 85 81 90 83 71 92 76 47 55 69 74 72 83 93 86 76 74 74 76 76 74 64 52 45 44 45 47 51 55 59 63
95 98 98 97 100 94 98 99 98 96 99 98 100 98 93 98 97 100 94 78 87 88 86 84 87 89 76 77 80 50 31 46 74 86 65 71 88 92 80 68 63 63 66 75 68 56 50 45 46 52 54 57 59 63
96 92 98 92 96 90 95 100 99 98 98 100 99 96 99 99 100 94 88 90 91 92 93 90 78 76 76 73 74 72 37 33 56 89 63 55 72 82 89 88 80 62 47 47 56 55 50 49 51 56 61 62 73 75
100 99 98 84 87 87 90 85 83 95 100 99 97 100 98 96 95 84 87 90 84 45 34 36 42 63 58 47 41 38 37 43 54 54 49 58 63 68 73 82 83 66 58 42 36 39 40 41 47 55 60 60 61 62
89 86 98 96 95 96 91 96 96 97 92 88 87 100 95 90 82 85 87 42 38 39 37 32 32 34 38 42 41 44 46 49 57 70 72 66 54 50 51 58 61 63 66 57 43 39 41 42 46 51 59 62 61 69
98 94 92 100 100 100 94 90 91 87 75 87 92 95 91 88 85 86 40 36 42 47 53 56 53 51 52 53 55 57 60 68 90 92 86 77 70 59 49 47 49 58 62 65 62 55 50 54 58 62 62 64 66 74
97 94 94 99 95 95 88 86 92 96 90 84 82 89 83 81 49 44 47 50 56 62 57 57 59 63 70 70 70 71 62 69 74 86 87 82 76 72 69 63 60 61 65 66 66 76 92 93 94 95 94 96 97 96
94 97 97 94 94 94 94 95 93 73 86 90 94 94 75 84 61 48 45 44 45 53 62 66 63 64 70 75 84 95 89 68 78 82 88 88 89 88 86 68 52 52 62 72 75 76 79 90 90 87 88 91 91 99
100 97 98 100 98 95 96 93 98 96 98 100 93 99 96 94 88 79 34 32 40 63 57 57 67 66 59 67 71 77 86 83 75 77 76 71 64 73 95 92 87 77 68 67 71 75 79 82 87 92 95 95 95 95
96 95 96 100 97 94 96 90 94 96 98 100 96 95 94 88 75 75 36 33 37 39 46 46 47 51 57 65 68 73 80 80 86 99 100 89 78 78 80 82 80 77 77 80 85 93 96 97 97 97 99 99 98 96

GFSWCAN_925_rhum_042.txt.gz
RH
63 61 58 68 60 59 64 75 89 91 80 80 76 78 91 85 83 77 86 87 78 94 88 66 62 67 72 72 79 70 80 83 87 87 87 82 79 67 64 63 75 74 84 90 85 94 88 52 58 69 60 58 60 56
57 68 59 66 56 59 68 77 82 81 84 90 80 78 87 93 86 83 83 87 78 90 84 79 71 71 71 65 73 75 70 88 94 96 95 98 92 70 72 79 64 73 67 78 77 74 48 53 54 53 57 59 57 60
60 68 65 57 59 65 70 68 79 85 88 90 75 75 75 93 91 91 89 83 94 94 84 72 67 56 62 61 62 74 76 75 79 85 95 92 97 91 88 83 65 57 59 64 62 51 55 48 54 58 58 56 57 60
71 70 72 73 74 73 70 70 82 89 90 86 73 74 81 90 80 84 88 90 88 94 93 77 62 66 58 63 63 67 68 65 72 84 82 90 93 90 94 84 82 67 60 65 68 58 58 54 56 58 59 61 62 60
71 74 81 88 81 70 70 77 87 92 90 73 72 77 86 79 78 73 73 86 83 79 91 84 68 61 56 63 68 71 72 71 80 87 96 85 88 94 87 92 77 66 69 75 74 56 54 51 49 62 70 69 68 67
74 85 82 74 71 69 74 84 83 81 76 72 74 77 78 70 87 93 91 84 86 84 98 90 69 64 58 56 62 65 70 74 81 86 89 86 77 93 95 87 68 42 44 76 85 77 69 63 64 67 71 73 69 67
78 79 76 74 72 78 79 73 73 73 72 75 78 71 70 78 69 79 84 92 91 85 93 94 96 69 53 59 79 80 70 81 82 87 92 85 78 87 90 99 50 44 41 42 54 78 76 70 72 74 72 70 64 64
78 77 79 78 79 81 76 76 75 74 72 72 66 70 79 78 75 78 85 92 93 88 90 95 91 84 79 93 94 80 87 88 88 89 88 94 82 80 93 71 60 56 55 50 70 86 84 72 72 74 73 71 73 76
79 79 81 85 82 76 76 76 73 71 69 66 73 78 84 75 78 76 74 90 92 91 98 96 99 97 87 91 92 96 86 97 83 96 90 78 78 93 70 64 63 59 83 89 91 91 89 78 81 81 80 82 82 84
80 83 86 85 78 76 76 74 74 72 72 75 73 75 91 79 78 84 86 90 92 89 98 94 98 98 91 94 95 100 97 95 99 86 82 86 85 65 70 96 86 72 88 88 96 98 98 98 90 84 89 90 90 88
83 88 87 80 74 74 74 71 72 72 77 75 82 92 81 84 79 89 83 92 90 91 90 80 96 90 84 96 95 92 99 98 99 95 87 97 96 99 88 98 97 91 84 90 89 93 95 89 87 92 95 92 90 90
88 88 84 77 72 72 70 69 70 75 75 73 74 83 79 83 93 89 100 90 90 92 91 88 94 93 93 91 100 98 98 100 96 98 97 96 99 97 96 98 100 99 99 88 87 90 86 90 94 93 90 90 92 93
85 85 83 73 69 72 71 70 67 66 65 74 74 83 83 89 62 59 63 76 82 93 96 98 96 92 89 91 98 98 99 96 99 99 99 99 92 96 98 78 92 99 97 100 100 99 99 96 90 92 90 86 90 91
88 87 80 74 71 72 72 73 72 72 71 90 76 54 79 83 82 92 86 86 88 98 98 97 90 99 92 98 94 100 82 100 98 97 97 86 88 97 97 90 75 78 94 100 100 97 98 98 83 78 77 76 78 90
91 84 78 77 74 74 78 80 75 73 76 98 79 68 79 85 95 99 97 95 92 98 99 96 82 93 96 97 94 98 98 98 96 94 92 86 97 98 97 98 79 63 68 76 91 99 97 99 97 79 82 81 80 80
92 86 83 81 81 83 85 83 75 76 89 93 93 82 93 88 89 98 100 98 96 94 98 90 90 90 92 99 96 93 94 94 90 95 92 94 95 94 98 98 98 66 59 68 71 86 90 81 71 60 59 59 83 82
85 89 81 80 87 93 90 80 80 92 92 92 94 94 98 97 96 96 93 88 87 90 94 97 98 90 92 92 98 96 97 91 94 95 96 92 93 94 98 97 96 92 61 93 88 91 97 96 92 53 49 53 72 76
92 84 81 88 92 94 88 88 90 86 96 94 99 95 95 89 91 88 87 88 91 97 96 94 90 93 98 98 93 92 96 99 98 98 96 93 89 87 89 97 94 92 97 98 99 98 98 96 96 91 54 54 63 66
96 93 85 91 83 76 95 98 88 95 94 96 95 88 91 92 89 82 85 86 85 86 94 84 90 90 93 93 92 93 96 98 97 82 82 86 87 85 85 92 99 97 73 98 98 98 84 65 56 51 51 54 68 70
98 94 97 88 72 86 92 99 91 91 97 94 98 99 97 96 93 95 94 93 93 95 92 93 91 85 86 83 91 90 95 89 92 89 76 70 68 70 80 92 98 99 100 99 98 99 84 55 46 48 48 50 70 68
100 100 99 80 77 80 90 98 98 94 92 99 98 97 95 97 98 100 99 97 94 100 96 86 82 82 70 70 72 78 82 86 90 92 80 79 67 73 82 85 82 94 100 96 97 82 61 59 42 39 45 49 52 59
99 98 95 88 95 98 91 95 92 97 98 100 99 100 100 98 99 100 99 94 92 93 89 92 77 67 75 82 73 68 68 74 75 79 74 73 84 80 82 81 88 93 95 93 89 71 57 45 40 41 44 45 57 61
90 82 94 98 98 94 98 96 95 99 98 100 99 95 94 100 100 95 100 98 93 88 83 84 71 69 75 69 72 69 61 58 70 69 69 71 74 79 88 91 86 93 92 87 82 78 73 61 38 46 41 47 57 60
76 83 98 98 95 99 95 97 94 96 98 99 100 100 93 98 95 100 100 92 78 80 91 82 77 88 86 78 91 71 42 47 57 62 50 73 88 75 72 81 82 78 78 81 83 78 72 66 43 45 51 51 52 58
72 84 91 100 96 94 98 98 99 96 99 100 100 100 94 98 97 100 98 85 94 89 90 91 92 98 92 89 74 53 44 42 59 65 47 48 61 73 78 72 67 65 64 73 83 84 78 65 52 50 49 51 54 55
95 94 96 91 97 91 94 99 96 97 99 100 99 98 100 100 100 96 88 88 90 89 88 85 80 85 80 69 70 64 52 45 45 75 54 54 55 77 90 89 79 70 58 62 58 68 72 66 58 53 52 52 65 69
96 98 94 82 86 85 91 86 84 96 100 100 98 100 98 97 93 82 86 88 90 52 42 40 42 54 63 53 47 41 40 43 47 53 55 59 62 65 71 81 81 64 60 62 55 49 52 54 54 52 51 49 49 54
85 88 97 95 94 96 93 98 98 97 92 89 90 100 92 87 80 83 82 43 37 37 41 43 43 43 45 44 46 50 52 52 57 64 67 63 61 61 62 63 60 58 71 68 67 64 50 45 45 44 45 46 46 55
97 96 93 96 100 100 93 89 90 89 77 90 91 91 87 85 84 86 40 38 44 47 54 57 52 53 56 59 59 58 59 63 87 92 90 83 84 69 66 72 75 75 77 76 76 72 58 52 50 52 55 58 61 66
92 92 97 100 98 98 88 88 91 93 91 84 82 89 81 81 49 44 46 47 53 60 53 57 61 65 73 73 72 69 61 64 68 87 92 89 85 82 81 77 75 73 66 75 82 75 86 87 84 84 74 71 72 79
95 97 95 96 95 94 94 96 96 80 92 93 96 94 75 78 66 51 48 47 48 58 64 68 69 65 70 74 80 87 78 66 75 85 86 84 83 77 70 70 83 66 58 72 77 76 86 96 95 95 96 97 95 98
100 97 100 100 100 95 96 98 100 100 99 100 97 100 96 93 90 82 32 32 40 59 51 58 68 62 53 56 57 59 69 72 72 75 76 79 76 75 78 87 91 89 82 70 72 78 80 83 85 82 84 88 93 94
96 96 95 98 99 95 96 92 92 95 98 100 96 96 94 89 76 75 36 30 30 30 33 38 46 48 51 52 56 58 68 74 79 99 100 100 100 89 85 86 85 79 78 78 80 83 88 93 95 96 97 97 96 96

GFSWCAN_925_rhum_045.txt.gz
RH
62 58 60 62 53 58 66 79 82 73 76 72 66 74 79 78 75 78 91 80 79 93 82 74 71 75 74 74 72 66 80 81 89 88 89 84 86 74 70 66 73 80 87 87 86 93 91 47 58 69 60 64 62 65
60 62 65 54 51 57 69 78 81 78 86 79 71 70 82 81 75 75 80 84 82 83 80 82 73 70 72 65 77 74 72 89 92 92 91 94 94 83 75 79 65 76 67 74 80 79 52 48 61 52 60 64 59 64
59 64 58 46 52 62 68 78 78 79 90 78 71 73 88 82 72 72 82 89 78 91 75 71 69 62 64 64 65 73 81 74 78 86 93 86 90 95 94 86 70 61 62 67 64 51 58 53 50 61 56 59 56 59
60 63 50 46 55 65 70 75 79 85 94 77 74 77 84 75 72 64 78 88 84 90 91 78 66 65 58 62 64 68 67 67 76 86 82 89 90 92 96 91 92 72 68 70 74 63 60 54 56 53 57 60 61 59
62 58 47 51 61 67 73 76 82 90 91 79 76 79 81 71 71 64 74 89 88 81 85 77 69 60 57 64 68 70 72 74 81 87 93 79 82 91 82 88 94 62 65 82 66 86 88 74 63 63 67 68 68 67
62 61 56 65 69 82 76 80 88 90 82 79 76 77 70 74 84 77 87 85 88 89 94 90 72 64 61 58 65 69 75 78 83 83 86 85 77 91 92 94 67 63 48 58 68 48 70 57 68 74 71 71 72 71
65 69 72 80 82 78 82 82 81 78 79 78 72 69 71 70 75 68 84 90 91 80 91 90 93 73 56 66 82 82 71 83 81 88 90 86 78 88 91 91 54 50 48 51 55 61 70 80 91 84 82 72 69 67
73 76 87 75 76 81 81 77 71 77 74 70 68 73 70 71 72 74 90 86 80 85 85 93 87 88 85 94 98 82 89 89 89 89 89 94 83 81 86 69 54 52 58 63 83 88 91 93 84 79 74 75 73 76
79 84 74 77 85 87 77 74 74 72 66 68 78 72 73 64 71 72 84 87 82 85 98 95 100 96 83 91 94 98 90 99 86 92 91 81 81 91 80 90 95 96 96 81 80 90 90 90 91 84 84 78 79 85
85 76 79 82 89 78 72 73 71 66 67 77 78 72 88 79 78 85 92 88 94 92 95 94 94 97 91 92 94 99 97 94 94 86 84 82 79 70 90 96 96 98 98 93 98 93 97 98 98 90 95 91 90 88
82 80 84 84 81 73 71 72 73 72 79 72 83 92 82 85 79 87 96 94 94 90 88 79 88 85 83 86 95 92 97 97 99 96 84 96 93 77 96 96 94 98 100 99 95 95 99 98 99 96 95 95 93 92
81 86 83 82 77 73 74 73 73 74 70 65 70 79 77 86 90 81 99 89 88 86 91 95 94 93 94 90 100 97 98 99 97 96 97 96 84 74 97 97 95 87 100 100 97 98 98 98 98 96 92 91 92 92
83 85 79 78 73 72 71 72 76 68 58 57 63 79 80 86 58 53 54 74 74 92 97 99 95 96 91 91 93 100 98 98 98 98 97 84 77 80 96 99 93 79 94 97 99 97 98 97 99 98 80 77 85 91
87 83 76 72 71 71 70 67 66 61 65 83 69 56 77 77 78 85 83 85 85 96 100 97 87 97 94 98 92 99 79 98 98 94 90 93 77 90 92 96 90 79 65 90 99 97 97 99 98 99 97 82 82 85
88 79 74 75 75 74 71 71 71 73 72 91 76 61 75 86 95 97 95 97 94 97 98 95 94 85 87 92 93 94 88 98 93 89 94 91 84 94 94 93 97 96 67 67 76 97 100 99 99 98 92 75 84 80
88 87 87 84 78 78 77 77 75 74 90 89 90 84 94 87 90 100 100 98 96 95 97 81 88 85 85 93 86 87 86 88 87 96 94 89 90 90 91 95 98 96 84 60 79 85 97 98 97 95 57 49 74 85
89 96 87 84 83 87 82 71 78 89 93 88 92 95 95 96 92 98 96 90 90 88 87 96 87 73 89 91 93 91 95 90 93 94 96 91 91 87 86 90 94 94 93 76 84 94 99 99 98 98 97 66 58 70
91 90 89 87 87 80 78 85 87 93 98 99 90 96 94 87 91 89 90 91 92 96 95 84 89 95 99 97 88 91 96 100 98 98 98 91 85 83 86 89 88 91 94 96 98 99 99 99 95 94 90 76 64 62
100 95 88 87 75 72 97 97 87 97 96 97 98 98 92 94 90 84 87 89 86 86 92 94 94 88 92 91 90 91 95 95 89 81 85 78 78 84 84 80 81 92 99 97 93 98 99 99 90 80 58 50 72 66
99 92 94 77 60 80 92 98 88 92 97 94 98 99 99 96 96 97 95 94 94 96 98 94 93 85 83 79 89 87 92 87 89 89 73 66 63 65 71 75 82 83 94 99 100 100 99 99 98 74 47 50 54 62
100 98 84 66 74 74 95 92 96 96 100 99 98 98 95 96 98 100 99 98 95 100 98 90 87 76 67 69 67 71 80 83 89 92 78 78 64 74 80 74 74 84 95 94 97 97 98 98 98 63 42 49 53 52
100 91 78 76 97 92 95 97 94 98 97 100 100 100 100 95 98 100 100 94 84 92 91 93 89 73 69 75 71 66 64 70 76 81 77 75 86 76 70 71 83 89 90 91 94 94 92 90 99 74 48 41 45 50
78 69 86 96 94 91 100 96 95 100 96 99 98 96 95 100 100 95 96 91 94 88 83 84 74 72 78 72 72 69 70 73 81 68 56 56 60 69 71 71 73 92 93 85 83 86 89 81 77 74 56 44 46 53
64 78 97 94 91 100 94 98 92 96 96 95 98 100 94 98 95 100 100 94 82 80 90 81 70 88 83 82 94 76 55 53 54 54 52 62 68 55 50 54 60 67 74 73 81 84 85 84 78 69 55 44 48 55
79 91 89 100 94 95 97 99 96 96 92 95 99 100 96 97 99 100 100 86 94 89 88 81 92 95 93 93 81 56 40 46 70 75 56 51 51 55 69 66 60 55 56 65 81 82 82 81 81 72 55 55 55 54
84 96 87 93 98 89 95 98 96 93 98 100 100 100 100 100 100 96 89 89 88 89 86 86 87 93 90 76 77 65 51 41 54 82 58 54 54 68 78 79 77 68 58 56 67 75 75 74 79 76 67 58 62 63
99 100 95 78 85 83 89 86 84 95 100 100 99 100 99 97 96 83 86 85 86 47 36 32 45 58 60 52 46 43 43 49 53 54 53 57 59 61 72 82 81 72 69 72 68 66 66 64 65 68 65 58 51 51
83 91 95 97 96 94 94 98 97 98 92 89 90 100 93 89 79 82 80 42 39 37 37 36 38 44 52 52 51 54 55 56 60 62 63 58 52 54 57 67 77 82 95 96 96 89 78 69 66 59 56 53 46 46
94 90 90 97 97 100 94 90 91 90 77 91 89 90 87 85 78 74 37 34 36 43 56 59 55 54 56 58 60 60 62 66 86 88 83 74 79 66 74 80 81 77 75 74 71 98 97 91 75 62 56 55 53 55
97 94 97 99 100 100 90 88 91 93 89 83 82 89 87 83 46 43 45 46 54 62 57 60 63 66 70 72 73 69 58 62 63 78 89 84 84 86 86 79 75 69 77 77 67 71 86 93 89 89 79 70 71 70
96 96 96 99 97 93 95 96 94 83 93 96 98 96 77 82 64 50 48 48 51 59 68 72 69 60 67 70 75 86 80 58 66 77 84 82 78 77 79 80 78 78 73 70 80 80 84 94 89 88 89 87 86 94
100 99 99 100 100 96 97 100 100 100 100 100 100 100 96 94 91 84 36 32 39 65 51 61 70 60 44 49 54 58 61 62 63 69 81 94 96 92 86 93 95 94 90 84 76 82 87 93 97 98 98 96 94 92
95 96 95 99 99 97 97 93 94 94 97 100 96 98 98 92 80 76 33 28 30 27 28 33 43 50 51 48 48 52 56 61 69 86 99 100 96 98 96 93 91 90 83 82 83 86 88 91 94 96 97 97 98 96

GFSWCAN_925_rhum_048.txt.gz
RH
98 83 47 71 70 94 78 70 68 66 68 70 75 72 67 67 64 61 90 80 74 91 82 80 75 80 74 76 74 69 82 79 91 92 91 87 88 79 75 68 77 83 89 89 89 91 91 50 59 63 56 64 64 68
95 68 52 56 69 84 76 73 71 71 74 75 78 77 71 68 61 61 79 81 76 80 82 80 72 73 75 67 78 74 76 86 94 89 87 86 95 89 83 80 67 79 69 69 78 75 55 49 61 57 61 69 66 66
86 62 54 53 64 75 72 75 79 76 82 77 85 78 76 67 58 54 82 74 67 86 75 72 72 64 63 65 68 73 81 75 82 87 91 84 86 92 96 88 77 65 64 68 66 54 65 63 59 61 69 68 66 67
70 61 54 49 61 68 71 79 75 81 85 81 96 76 74 67 62 54 73 80 77 85 88 76 64 65 60 63 66 68 70 70 78 83 81 88 91 90 97 94 96 81 80 81 80 69 71 61 63 64 54 70 72 72
65 54 53 49 61 72 76 76 79 91 92 93 91 81 74 66 65 60 67 77 73 70 84 76 70 64 60 65 70 71 72 75 82 88 90 80 85 86 86 86 91 66 72 87 91 80 78 69 58 48 66 82 79 79
62 60 50 52 64 72 70 72 88 90 87 86 89 80 77 65 64 75 88 77 74 74 86 86 73 66 62 60 65 69 78 83 87 85 88 86 76 83 82 79 65 63 50 50 60 52 58 57 56 61 88 79 79 80
69 64 54 54 65 70 68 80 89 91 80 89 79 76 88 87 81 73 75 76 74 68 86 91 92 74 71 78 85 84 76 90 87 91 90 85 77 88 91 86 55 58 63 81 89 80 82 72 88 88 91 78 80 76
70 53 49 59 68 71 75 88 93 86 94 84 80 65 70 68 73 80 97 86 77 74 80 90 85 88 86 94 97 83 91 89 89 93 88 89 81 80 80 65 74 81 89 93 89 90 85 84 90 85 83 86 83 82
69 55 57 65 75 74 89 91 91 95 88 85 77 72 67 61 72 79 88 82 77 69 94 96 98 96 83 91 92 99 91 96 90 92 89 81 81 95 86 90 97 98 99 99 96 96 84 79 82 94 97 93 91 88
71 64 70 81 75 86 92 92 92 81 93 84 79 63 83 86 85 89 81 87 92 95 94 97 92 97 84 91 92 98 97 94 98 87 86 92 87 77 76 83 96 95 90 97 97 96 97 97 97 96 97 94 96 95
89 81 83 79 82 92 87 81 77 90 89 74 79 90 87 89 78 85 96 91 93 87 92 92 95 95 85 96 98 93 100 98 98 97 94 95 96 75 82 86 88 91 80 85 96 99 99 99 98 98 97 95 97 98
86 82 79 83 87 84 80 77 87 79 71 64 71 82 80 82 84 72 98 86 82 72 94 97 94 93 91 94 99 93 92 98 97 97 98 98 85 68 83 89 88 95 90 84 91 96 97 96 96 98 100 100 98 100
80 78 83 87 84 83 82 82 73 62 59 56 63 77 76 84 56 44 53 76 74 92 97 96 88 96 90 93 97 99 100 98 98 98 96 86 78 71 88 88 89 93 85 76 82 96 98 98 98 99 99 99 97 91
80 88 92 85 83 80 85 88 75 58 61 80 71 60 72 72 74 80 75 82 85 94 99 94 94 96 97 98 91 96 82 89 96 98 89 94 75 74 90 90 91 90 93 83 76 92 99 100 98 99 99 98 91 94
91 95 88 89 81 80 89 88 70 64 65 83 72 53 78 86 98 97 98 97 97 95 98 95 96 82 86 85 87 72 72 88 94 88 91 89 78 87 90 87 90 91 94 94 66 76 94 98 98 98 98 90 83 96
99 98 94 84 74 76 92 67 68 68 84 86 85 81 92 87 92 99 99 99 96 98 94 94 94 86 80 79 81 85 80 80 87 95 93 89 83 87 88 85 86 88 93 95 82 70 80 91 99 98 97 98 74 91
79 97 88 77 77 71 70 67 74 92 92 80 87 91 92 94 86 95 97 91 90 89 89 96 81 71 80 90 92 80 88 92 91 91 96 84 87 88 84 85 86 87 89 90 93 84 88 97 98 99 98 98 92 84
100 98 86 82 77 79 78 82 87 89 93 100 84 97 92 87 91 90 91 95 92 95 93 81 90 98 99 97 88 89 95 98 96 98 98 92 87 79 80 88 84 83 84 86 90 97 99 100 99 98 98 97 95 63
100 90 81 79 69 67 95 96 85 93 100 99 99 99 98 96 93 88 90 92 89 86 94 98 100 99 92 91 88 89 95 95 78 81 84 73 73 76 70 68 68 75 80 85 91 92 96 97 99 99 99 87 84 63
94 88 87 73 58 78 93 96 83 90 96 97 96 99 100 98 97 98 96 96 96 96 99 100 94 84 84 78 92 91 90 80 86 91 74 70 63 63 65 69 79 76 80 80 86 87 89 96 100 99 99 98 67 72
99 86 67 55 73 79 94 94 93 100 97 98 99 97 97 96 100 100 100 98 95 95 97 93 92 78 69 70 67 71 75 82 91 91 84 79 71 74 77 69 68 74 79 78 89 88 86 90 91 95 99 98 75 51
91 72 65 71 94 89 95 99 96 96 97 100 98 97 100 93 99 100 97 99 96 92 93 92 91 87 79 77 71 68 64 69 75 82 84 82 93 86 66 58 82 81 73 76 83 84 85 86 89 91 99 98 90 50
69 58 82 85 90 92 99 99 95 99 96 100 98 95 97 100 100 94 99 91 93 89 82 87 77 74 78 66 67 67 66 75 88 80 69 61 59 58 65 68 70 78 76 67 65 72 86 83 86 90 88 97 97 66
59 83 95 94 91 100 94 98 93 97 96 97 99 100 99 99 95 99 100 95 85 84 92 83 72 87 78 82 96 72 51 57 65 68 62 69 82 66 56 56 55 55 63 64 69 80 85 84 89 88 86 74 88 96
77 97 91 100 96 96 92 96 98 96 89 87 98 100 98 98 100 100 100 89 94 88 88 75 88 94 90 90 84 57 38 48 65 77 56 54 60 62 66 66 63 63 64 67 75 75 73 76 84 86 86 83 71 62
92 97 86 98 99 89 97 99 98 96 97 100 98 100 100 100 100 96 90 88 86 89 87 84 73 88 86 82 81 68 47 43 49 81 61 57 59 70 80 76 74 67 60 62 65 70 73 73 79 82 83 81 81 73
100 100 99 80 84 82 89 87 85 94 100 100 100 100 99 98 96 84 87 85 85 42 35 33 38 61 63 56 50 49 49 51 58 63 64 65 65 67 74 80 79 72 74 84 94 97 97 92 85 77 73 70 72 69
84 92 96 99 96 94 94 98 96 96 92 90 89 100 93 87 77 81 78 40 36 34 38 40 41 45 47 45 48 52 54 57 62 68 65 55 47 48 47 56 74 89 99 96 86 90 96 100 100 92 78 74 65 57
91 94 91 98 100 100 95 91 90 90 77 90 88 88 86 86 80 75 36 33 34 38 49 57 55 54 55 57 60 61 62 66 87 91 87 79 76 61 67 80 84 78 73 73 68 84 91 95 100 99 93 79 66 59
99 93 96 96 100 99 92 92 92 93 87 81 80 90 91 88 44 39 42 44 48 56 56 59 59 67 73 76 75 68 48 50 59 77 89 81 76 76 80 78 80 83 80 78 75 76 75 95 98 96 90 82 77 72
95 94 96 97 95 94 96 96 96 82 94 98 98 95 89 90 64 49 49 46 51 61 65 66 65 60 67 71 76 85 76 46 48 55 64 73 74 81 92 88 93 95 93 93 87 83 85 95 96 93 90 86 84 89
98 97 100 100 100 97 97 100 100 100 100 100 100 100 95 96 90 86 41 42 46 54 44 60 70 62 47 51 52 54 58 58 62 62 64 75 92 96 98 96 93 92 83 80 80 82 87 92 99 100 100 100 99 97
97 96 96 100 100 97 97 94 95 94 97 100 98 99 99 95 83 79 38 31 34 36 39 42 44 46 50 53 54 53 55 59 64 70 99 100 100 95 93 91 92 96 97 96 94 94 95 95 95 96 96 96 95 94

GFSWCAN_925_rhum_051.txt.gz
RH
99 100 94 91 70 61 56 63 74 77 65 69 71 69 70 66 58 57 88 71 62 94 86 82 78 83 72 74 81 68 81 82 90 94 89 92 88 82 77 69 78 82 90 93 90 88 88 53 56 69 70 72 73 71
99 100 97 84 65 52 68 64 89 72 67 74 75 75 67 62 60 55 79 70 59 82 83 77 72 78 74 71 81 80 83 85 97 92 86 84 94 88 90 78 67 78 70 71 76 71 57 63 60 68 70 72 71 78
100 100 91 86 62 57 73 80 82 72 74 70 80 77 62 53 51 52 70 56 53 87 80 77 76 65 63 66 68 73 84 78 84 90 91 83 84 87 95 89 87 72 75 78 72 68 74 61 65 61 54 52 56 73
100 98 87 85 54 62 73 94 87 78 78 78 95 76 63 55 52 48 52 59 54 79 88 77 65 68 66 66 68 69 71 74 79 83 80 89 90 90 92 89 94 87 76 83 77 78 56 59 51 54 56 56 78 77
100 100 85 67 58 75 83 95 90 92 81 93 94 80 66 56 56 52 57 66 61 67 86 81 72 65 63 65 72 70 70 79 87 90 92 83 85 81 86 86 83 74 67 75 77 64 62 62 58 61 66 75 86 88
100 86 78 72 55 69 91 93 79 91 80 83 87 82 70 60 64 64 76 67 66 62 86 91 74 70 62 66 68 76 77 88 90 87 92 85 76 85 83 73 64 66 60 56 76 74 86 83 72 65 82 88 90 88
97 80 76 61 64 71 91 89 83 90 74 82 84 91 80 67 77 76 75 81 68 60 82 93 93 73 88 84 87 84 80 92 88 92 94 90 80 87 90 77 55 65 79 83 78 87 87 77 87 80 81 85 81 82
96 77 79 62 58 82 90 79 84 87 79 82 92 99 97 77 79 79 83 74 66 63 76 86 84 85 80 93 93 88 94 89 94 94 91 92 91 89 82 60 69 76 95 89 82 85 91 89 90 74 82 92 95 85
92 93 85 55 66 86 84 84 85 86 80 98 96 79 69 66 75 82 83 79 68 65 92 94 87 77 81 89 92 98 92 96 93 92 90 86 94 95 74 78 78 88 98 96 87 87 82 87 92 95 91 96 97 95
96 97 72 63 73 90 86 87 79 88 91 82 72 69 86 90 88 90 79 80 91 94 93 96 90 97 88 92 93 97 95 96 99 93 93 95 94 74 72 73 81 88 91 86 89 92 96 96 96 96 96 96 97 97
95 97 86 65 86 90 97 81 83 92 94 81 81 93 93 90 78 81 92 86 89 80 94 96 95 95 87 93 98 91 98 98 98 94 99 99 98 81 77 86 87 88 95 94 86 79 81 96 97 96 96 99 97 98
95 92 71 76 89 96 85 83 87 87 76 70 76 83 77 78 82 65 94 83 76 70 96 96 95 93 89 95 85 91 86 95 99 97 99 100 90 73 74 86 87 89 94 93 81 76 78 88 98 97 97 98 98 99
94 78 76 88 92 90 85 84 86 66 66 62 66 74 74 81 53 41 58 77 78 96 96 97 85 95 91 94 98 88 90 96 93 98 95 91 78 66 71 88 89 84 88 93 91 78 77 86 97 99 98 99 98 98
96 87 89 97 97 89 83 90 71 64 53 78 74 64 68 67 65 74 74 83 88 95 96 93 94 93 96 98 91 75 79 94 97 97 94 94 77 69 80 87 90 86 87 93 95 92 79 84 95 94 97 99 99 90
86 88 99 99 89 88 92 75 70 67 58 76 72 55 78 90 98 96 98 97 96 94 96 96 96 90 92 81 80 77 67 86 91 91 91 89 75 82 85 85 86 89 90 93 89 94 86 78 88 90 92 98 98 84
100 100 100 95 90 95 88 81 69 67 76 83 85 81 89 89 100 99 98 99 94 98 95 92 97 96 82 72 76 81 94 91 86 94 91 88 73 76 79 82 83 84 88 89 88 90 91 85 84 90 96 97 99 99
91 99 96 94 100 94 86 67 71 89 85 77 89 84 87 87 89 94 95 89 91 90 89 95 76 69 78 86 89 77 89 88 91 91 94 79 74 81 84 83 82 80 83 79 80 84 88 91 96 100 98 94 98 99
100 98 93 95 90 80 74 76 84 85 87 100 86 96 85 86 92 95 93 98 90 89 90 78 89 99 98 99 90 89 95 98 97 97 94 87 86 82 78 84 77 76 78 75 74 78 88 94 90 90 97 98 99 98
100 99 86 85 69 63 92 95 84 93 100 99 98 99 96 93 94 90 93 94 87 84 94 98 100 100 89 90 86 92 91 92 78 74 83 72 71 73 68 67 68 71 71 68 71 79 83 87 90 90 96 100 98 98
94 79 74 78 64 73 88 96 75 89 95 97 96 98 100 99 97 98 98 96 96 97 99 100 92 79 80 78 91 89 88 78 84 88 75 74 64 66 69 71 78 67 72 73 80 74 76 84 81 84 98 100 100 98
97 87 69 62 71 79 94 98 99 98 98 98 98 97 100 96 100 100 100 98 97 100 97 94 91 81 72 68 68 72 77 82 92 91 77 77 71 79 86 72 66 68 78 73 71 64 68 74 73 76 89 100 100 98
84 65 63 76 88 89 97 97 96 94 95 99 99 98 100 96 100 100 98 99 89 93 93 93 92 91 79 73 66 62 60 68 74 80 80 82 92 91 75 56 64 72 72 72 73 71 68 69 73 82 91 95 98 98
61 54 72 71 88 89 100 98 95 98 92 100 98 93 100 100 100 94 98 95 93 89 83 86 79 73 76 63 60 58 56 65 81 75 72 74 76 74 74 73 68 80 79 71 63 66 73 73 78 84 87 93 97 98
54 84 92 94 91 100 93 99 91 97 97 97 99 100 100 99 95 98 100 96 88 86 95 90 84 90 74 82 92 71 50 57 62 67 55 70 81 70 64 63 63 62 63 63 65 71 75 78 83 82 87 94 92 94
75 96 89 100 97 93 91 96 100 94 91 94 95 100 100 98 100 100 100 90 95 91 91 78 82 89 82 84 79 59 43 53 65 71 60 59 62 73 73 67 67 65 64 66 71 73 76 78 80 82 82 89 92 95
96 96 82 95 100 87 95 97 97 98 93 98 100 100 99 100 100 97 91 90 88 88 84 82 75 87 87 80 80 66 55 46 51 78 66 62 64 73 83 85 82 73 68 72 84 92 97 96 97 95 93 84 83 91
99 100 97 79 80 79 88 88 86 94 100 100 100 100 99 98 97 83 88 85 83 40 32 31 36 46 60 49 43 44 46 50 57 63 65 65 58 63 77 87 86 79 83 87 96 100 100 100 100 100 100 96 87 76
88 92 98 99 95 94 94 99 96 96 94 90 89 100 95 88 76 82 80 39 32 30 31 32 37 42 46 46 49 54 55 58 67 69 56 42 41 47 51 57 71 87 94 83 80 86 87 88 97 100 100 100 97 85
94 95 89 100 100 100 95 91 90 92 79 92 89 90 89 88 81 73 34 30 32 36 44 52 53 53 55 59 60 58 61 69 82 85 85 76 87 56 58 68 70 70 77 79 75 92 93 95 97 98 99 100 99 90
100 93 94 99 100 99 95 93 93 95 88 82 80 90 92 88 46 37 38 39 44 53 55 56 57 64 71 75 77 68 46 47 56 68 83 75 72 70 76 77 83 85 91 90 89 87 82 86 94 100 98 94 87 84
92 94 95 97 95 96 97 96 96 81 94 100 98 95 88 93 64 48 47 44 56 59 62 63 58 58 61 62 70 78 74 45 50 58 64 66 68 71 83 94 94 94 94 87 82 83 86 88 100 99 98 95 87 90
97 96 100 100 100 98 97 100 100 100 100 100 100 100 97 96 91 85 46 51 52 50 42 58 66 56 55 61 60 61 64 59 59 62 61 64 71 86 94 94 93 95 97 96 94 92 91 91 92 98 100 99 98 98
96 96 97 100 100 100 98 93 97 96 97 99 98 100 99 98 84 81 54 51 47 49 51 45 44 43 45 47 49 51 55 59 62 66 92 100 100 98 94 94 95 98 99 98 97 95 96 98 99 99 99 99 99 99

GFSWCAN_925_rhum_054.txt.gz
RH
97 99 100 100 100 90 77 97 90 58 78 70 66 63 57 53 58 55 72 60 60 65 74 74 71 60 56 52 68 57 70 69 70 78 72 73 65 65 64 61 64 64 66 66 66 69 69 48 53 61 63 44 42 42
99 100 100 100 97 92 85 94 74 61 90 68 69 64 56 54 55 51 78 59 54 62 69 77 80 79 74 66 56 69 75 79 77 78 72 73 80 74 71 61 58 72 64 63 61 61 58 44 57 49 49 54 51 52
96 100 100 100 97 85 70 90 64 69 82 69 73 61 57 56 52 49 58 54 54 69 67 61 64 68 66 69 69 51 65 67 70 72 74 70 75 74 69 72 74 66 58 64 55 62 54 45 55 45 49 59 57 60
100 100 100 100 97 84 89 80 64 84 75 92 76 56 51 52 51 48 52 55 56 67 69 69 67 70 69 69 70 71 66 71 68 65 62 74 72 74 82 76 66 61 47 56 48 44 52 52 48 54 62 60 60 68
89 100 99 99 94 90 88 81 82 78 91 96 73 61 51 49 51 49 51 58 55 69 73 71 70 67 65 72 74 71 65 62 62 64 68 70 69 63 63 62 58 50 70 78 66 56 66 66 66 69 69 66 66 72
99 100 100 100 97 94 87 79 91 78 91 86 71 57 56 59 52 53 74 60 57 59 82 78 73 68 74 70 70 69 71 69 68 64 72 71 68 72 59 48 52 53 59 69 78 67 76 76 72 68 70 79 74 76
100 100 100 100 91 94 76 88 89 87 90 80 74 62 60 64 61 76 73 72 56 53 74 87 84 66 90 84 78 71 75 75 68 75 74 68 65 72 69 57 55 61 68 76 76 81 90 84 93 83 85 86 85 83
100 100 100 93 94 94 84 94 90 91 90 93 97 76 66 68 72 76 77 66 57 54 65 85 77 72 76 81 79 81 77 72 77 76 76 74 73 73 73 59 53 63 71 82 75 73 76 73 78 82 86 87 89 91
100 100 100 93 95 94 89 96 90 87 77 95 94 70 64 65 79 85 77 69 57 58 80 74 70 72 68 77 83 87 77 78 77 73 72 73 77 85 61 59 63 67 77 81 73 72 67 68 78 87 86 96 96 97
100 100 99 100 99 88 96 94 79 79 89 78 70 72 86 96 87 84 67 71 81 82 78 85 83 78 75 76 79 82 86 82 89 75 76 80 74 62 58 59 67 73 74 80 89 88 78 81 74 80 88 88 94 95
100 100 100 97 96 95 99 79 77 81 71 68 78 90 97 92 73 70 78 74 66 71 80 86 82 78 78 81 81 79 92 87 91 88 82 84 76 63 60 68 68 67 69 75 80 79 76 69 70 80 85 91 90 88
100 98 100 100 98 98 91 69 71 64 58 62 79 82 76 69 72 64 83 72 62 70 91 80 85 77 82 83 81 85 88 89 93 89 90 96 75 61 58 62 66 68 69 68 70 73 73 73 68 75 84 87 94 93
99 99 100 98 97 97 76 79 57 48 64 65 66 76 69 69 52 41 52 70 79 93 93 92 84 81 83 82 89 80 92 83 88 93 83 75 62 53 53 60 66 78 77 75 70 71 75 79 80 79 81 85 93 92
100 100 100 100 99 94 84 64 52 58 49 76 73 60 67 54 51 56 57 76 82 89 87 80 87 86 87 89 83 86 69 90 91 89 86 74 66 58 59 62 68 59 61 73 84 82 82 86 85 84 89 87 92 91
100 100 100 100 92 85 74 66 63 56 57 70 71 58 72 87 92 88 93 94 89 84 86 88 86 77 84 76 71 69 70 81 77 84 76 72 63 64 60 55 57 60 62 65 67 73 79 85 89 87 83 87 97 99
100 100 100 99 98 91 73 67 62 64 77 82 83 83 85 84 99 94 94 96 86 86 79 77 88 87 82 76 74 77 85 88 75 83 74 62 56 58 58 58 62 65 67 66 65 64 64 69 74 85 92 90 98 100
89 96 99 98 94 79 70 63 71 87 84 71 85 76 79 81 84 84 71 74 87 78 79 81 70 64 78 85 84 71 84 75 82 77 70 69 64 62 65 66 66 68 68 68 66 67 70 69 74 92 86 79 91 98
95 100 100 95 79 70 73 75 84 86 88 91 79 86 74 73 76 80 82 85 79 76 78 73 80 90 82 82 76 75 78 82 79 76 76 69 59 65 71 69 68 71 72 73 70 68 76 77 82 69 76 83 86 94
100 100 93 83 64 68 93 91 83 94 100 95 94 91 85 84 86 83 85 87 82 75 84 87 86 84 72 72 72 76 76 72 62 56 59 59 66 68 70 70 71 73 71 70 70 64 66 71 75 73 78 85 88 94
98 90 88 72 62 82 90 93 72 87 92 96 91 95 92 92 92 93 92 88 85 89 92 93 75 62 58 58 71 66 66 65 66 65 56 51 62 66 71 73 73 71 76 70 69 70 73 65 56 63 71 80 89 92
97 91 79 68 77 81 92 94 98 94 95 95 95 90 98 93 99 98 99 93 93 95 93 80 72 65 66 64 66 70 70 73 67 65 60 66 61 75 80 74 72 76 72 64 60 60 60 61 58 62 70 80 86 95
94 75 73 78 89 91 95 94 96 90 92 96 94 91 94 93 100 99 94 96 93 86 79 76 75 72 72 69 61 63 57 61 66 73 76 77 77 71 65 64 71 70 72 73 72 69 67 67 68 75 81 86 90 96
70 71 78 79 88 90 100 94 92 94 88 97 94 91 98 98 98 92 98 92 88 80 79 83 80 72 73 66 64 54 53 60 69 66 66 67 69 70 73 72 69 78 78 73 71 77 75 72 74 81 88 88 90 96
61 85 91 91 88 100 90 98 85 93 93 92 93 100 100 96 91 97 94 88 78 80 83 88 87 81 75 74 73 56 45 53 62 67 58 68 66 58 54 62 67 68 74 72 76 77 79 81 81 86 87 92 92 93
72 92 84 100 94 91 95 96 97 89 98 98 100 100 99 94 91 100 94 85 81 75 75 73 79 78 65 60 62 46 32 47 64 65 57 57 60 65 68 71 72 73 68 75 85 86 90 91 92 95 96 96 96 95
92 98 82 90 96 80 92 95 95 95 93 99 99 96 94 96 100 92 84 82 74 76 72 68 62 65 68 68 62 57 43 38 47 72 60 59 62 73 78 81 79 73 73 80 91 98 99 100 100 100 98 94 92 95
90 99 92 75 74 78 85 85 81 88 96 94 95 97 94 94 91 78 72 75 71 43 32 31 37 49 52 44 41 42 44 53 61 64 62 63 61 63 78 88 84 73 78 82 94 100 100 97 98 97 96 95 100 100
91 87 94 96 89 87 92 91 92 90 91 84 83 100 90 82 70 73 74 40 35 34 33 33 36 39 39 39 43 50 56 58 61 62 58 49 38 41 51 60 70 77 76 78 86 94 95 100 100 100 100 100 100 100
96 88 84 99 96 90 87 83 83 82 74 84 82 86 84 80 76 69 34 32 34 37 39 40 42 50 52 56 59 59 57 62 80 80 73 65 70 52 56 67 71 77 84 84 80 86 89 100 100 100 100 100 100 98
99 91 91 97 90 96 95 89 89 89 82 79 76 85 85 82 46 37 39 40 44 47 48 52 56 62 68 73 71 55 38 39 44 69 80 72 70 69 76 76 82 91 92 93 92 85 79 81 80 86 98 98 96 92
90 92 92 94 94 95 95 92 94 80 94 96 95 91 85 90 67 48 48 54 59 58 59 59 59 59 64 65 69 72 68 49 55 67 77 80 83 82 76 84 96 96 95 97 96 95 94 91 91 93 98 98 98 98
92 95 91 95 100 96 93 97 100 97 98 100 100 98 94 94 90 81 57 52 55 61 60 60 57 50 49 48 53 58 67 63 60 64 66 72 78 89 93 95 93 93 97 99 98 95 95 96 97 99 98 98 99 99
96 97 99 99 100 98 94 91 96 96 94 96 95 96 96 96 86 80 55 52 51 50 42 47 51 53 56 57 59 62 66 68 70 76 94 100 100 98 92 96 98 99 98 98 97 93 94 96 98 100 100 99 98 97

GFSWCAN_925_rhum_057.txt.gz
RH
92 94 94 98 98 100 100 98 97 71 85 63 56 56 52 43 47 64 77 59 48 56 66 58 55 49 50 47 54 54 59 60 60 70 70 64 56 51 53 52 55 60 62 61 54 67 65 42 49 58 55 48 49 48
96 89 95 98 100 100 100 97 97 80 90 86 55 57 48 47 47 62 70 66 59 53 67 68 69 70 65 61 49 60 64 66 66 67 60 64 66 60 51 57 50 62 52 54 53 57 48 40 44 45 45 51 53 55
93 92 97 100 100 100 99 96 96 82 95 75 63 59 50 52 52 55 68 60 53 55 57 51 61 66 66 69 68 53 58 60 61 63 58 60 65 62 54 52 58 58 47 57 51 52 49 39 40 43 46 58 56 54
96 92 100 97 100 100 97 95 94 90 95 86 83 60 55 52 50 49 59 58 64 46 58 69 64 61 68 68 67 62 58 60 54 53 57 63 62 65 60 61 58 52 42 48 40 32 44 42 42 52 63 61 58 55
98 93 97 99 100 100 92 92 89 91 97 96 87 52 51 49 49 45 48 53 56 63 60 66 59 64 63 65 61 58 53 51 49 58 58 58 56 54 48 46 42 39 48 51 47 58 59 55 55 62 68 66 67 74
98 88 96 100 100 100 93 91 88 96 96 94 58 55 51 49 43 52 58 54 54 69 72 72 65 68 65 62 60 59 58 55 54 53 60 59 59 65 55 42 44 44 51 57 69 73 75 67 64 63 73 76 77 83
94 89 93 99 100 97 94 89 95 95 94 86 59 57 53 52 49 74 77 76 49 63 64 83 79 65 78 72 67 62 62 63 57 64 63 56 58 65 61 52 39 48 54 58 65 72 73 65 70 63 69 73 76 80
93 91 96 100 100 95 96 93 97 88 87 89 58 54 50 48 62 73 68 57 46 57 57 92 86 69 68 71 74 66 64 62 67 66 67 65 66 66 73 51 47 48 53 56 62 59 62 59 56 55 65 77 83 82
97 96 100 100 100 98 94 94 94 92 97 73 54 49 45 60 68 82 62 54 45 67 85 78 81 75 63 73 74 75 66 70 66 66 62 68 66 82 55 46 45 51 59 61 61 64 61 58 59 59 57 67 77 86
94 100 97 100 100 98 92 94 94 95 65 51 46 63 82 92 73 69 63 66 75 69 65 78 76 78 66 68 72 74 78 71 84 67 68 71 65 51 47 46 48 51 53 55 70 78 75 81 69 62 57 59 68 74
99 100 99 100 97 97 94 94 93 65 55 52 71 90 100 88 72 63 80 76 56 74 65 72 72 74 69 76 72 70 83 80 87 81 80 75 65 50 44 46 49 48 48 49 51 54 56 57 60 62 61 59 66 73
100 100 100 100 100 98 93 91 70 61 57 62 79 82 77 72 79 71 77 73 69 68 75 67 71 64 74 69 67 80 79 84 86 81 85 88 71 50 44 51 46 46 49 50 48 48 49 53 56 62 65 68 72 76
100 100 100 100 100 95 91 73 65 45 56 54 65 84 77 68 63 61 60 70 77 82 85 76 82 69 76 72 79 74 84 75 80 85 74 72 52 41 41 43 44 55 66 69 60 58 62 65 69 70 69 70 69 72
100 100 100 100 98 92 96 65 45 46 38 80 84 59 79 65 57 64 62 82 78 80 78 71 79 76 74 79 77 83 62 78 82 78 72 60 53 43 41 41 43 41 46 61 70 74 79 82 82 79 82 79 77 75
100 100 100 99 98 96 68 62 46 34 57 83 91 61 73 83 84 88 90 84 80 70 74 78 77 66 77 79 64 69 70 75 67 67 76 64 47 44 44 44 46 46 47 51 52 58 67 70 76 73 65 62 72 74
100 100 99 100 96 77 75 55 40 46 79 93 84 81 77 84 92 87 89 94 79 72 71 69 78 75 80 72 74 77 76 78 69 84 65 45 46 47 50 49 51 52 54 55 53 52 52 52 56 62 66 66 70 75
92 96 100 97 92 70 57 42 52 87 89 86 88 70 84 73 84 76 61 64 68 71 79 74 64 70 73 80 76 60 77 71 77 74 65 59 64 62 55 54 57 60 61 62 60 61 63 63 69 78 80 70 67 71
94 100 100 92 68 59 57 59 84 89 84 91 87 80 64 60 64 64 69 71 71 69 75 76 70 78 73 73 68 69 75 88 72 65 58 56 52 51 56 61 62 63 65 71 76 76 75 78 77 66 59 61 64 68
98 99 88 69 56 58 90 87 85 90 97 89 84 78 75 76 75 68 70 72 67 62 80 79 74 75 66 63 73 84 82 68 51 45 46 48 51 54 61 68 73 77 80 77 74 67 62 64 65 66 69 67 68 67
97 83 74 55 41 76 90 88 80 88 93 94 83 87 85 88 86 80 81 77 76 88 82 83 66 59 53 56 69 64 68 60 55 50 45 41 43 54 61 67 67 66 73 68 66 62 58 56 55 55 56 58 62 65
88 83 67 50 78 84 87 88 94 92 90 93 89 83 94 89 96 96 96 88 88 88 86 72 61 56 56 51 55 58 58 60 53 50 42 51 48 53 62 64 67 66 60 58 57 57 57 58 59 62 63 64 68 75
93 66 79 80 90 89 92 92 93 86 90 91 87 83 89 89 96 97 94 93 90 83 74 67 66 66 70 71 62 67 60 59 60 63 64 64 68 64 63 61 67 71 73 74 73 71 70 71 70 70 70 70 75 81
67 72 85 85 89 88 99 95 90 86 82 87 90 84 91 92 93 90 93 87 83 73 75 77 78 72 74 69 67 63 55 58 60 57 55 55 56 58 65 68 62 68 72 68 67 70 72 71 73 73 74 75 77 79
64 90 94 93 90 98 89 92 79 84 83 81 78 86 92 92 89 91 84 80 75 74 78 86 81 72 73 76 66 53 43 48 58 60 56 62 63 56 51 51 52 55 62 66 72 79 82 81 79 80 84 90 92 91
75 93 89 94 89 88 90 90 88 78 87 86 84 91 92 90 88 91 82 82 79 70 72 71 71 70 62 54 53 42 33 41 57 59 52 54 61 61 62 64 64 63 64 74 83 83 87 85 89 92 93 94 93 94
87 92 83 80 86 78 82 85 85 87 85 90 91 90 91 90 90 83 80 80 69 72 71 65 59 60 60 59 54 50 45 41 48 64 54 57 65 69 76 76 74 68 67 69 81 94 95 93 93 92 93 91 89 88
87 93 84 66 68 72 78 78 73 76 83 85 90 94 90 87 80 73 68 68 69 54 42 41 45 54 52 48 46 44 43 47 54 60 60 63 62 65 74 82 79 76 77 77 83 97 99 98 99 98 98 97 96 96
85 81 88 86 82 81 87 83 83 81 82 75 77 88 83 72 66 72 75 50 46 42 38 36 36 38 38 37 40 48 53 57 60 57 49 43 39 41 46 57 65 71 74 74 80 96 100 100 100 100 100 100 99 99
89 80 79 92 89 83 80 77 75 72 65 75 77 77 78 73 73 72 48 44 41 40 41 43 45 48 50 53 55 55 58 61 77 78 68 60 61 64 56 60 66 73 78 85 87 96 99 100 100 100 100 100 100 98
93 87 86 87 82 87 93 88 86 84 74 74 70 77 76 76 54 45 44 45 49 52 52 56 59 63 72 77 70 53 40 45 53 71 80 77 82 84 79 75 78 80 94 97 97 94 85 90 83 82 86 91 99 99
86 86 87 86 93 94 93 88 88 73 86 89 90 86 83 88 68 58 57 56 57 60 65 68 66 61 59 62 67 76 72 64 60 66 72 70 70 73 76 82 90 98 95 97 99 99 97 94 94 95 94 95 94 99
86 90 85 90 96 93 89 91 94 89 92 90 92 93 88 86 87 80 60 56 59 61 66 54 48 50 53 58 61 63 70 68 67 72 77 90 95 95 95 95 92 92 97 98 98 98 97 97 97 98 99 97 96 98
93 90 91 92 94 92 92 89 88 89 89 90 89 90 91 90 85 76 54 50 46 46 44 53 60 67 67 63 62 64 68 71 76 83 96 100 100 99 95 94 96 97 98 98 98 97 96 96 96 97 98 98 97 97

GFSWCAN_925_rhum_060.txt.gz
RH
85 78 79 84 98 91 87 100 98 98 90 98 87 53 42 49 58 54 59 56 54 69 73 59 58 60 58 55 66 60 68 66 69 77 76 72 67 59 59 56 56 71 74 76 72 84 80 48 50 64 63 54 58 61
85 79 80 90 99 98 86 100 100 96 91 87 97 57 49 56 62 50 60 59 50 72 75 64 64 65 65 61 66 66 67 69 75 70 68 70 70 65 60 71 52 71 71 80 66 74 52 42 44 50 58 67 70 70
86 79 82 94 97 95 98 100 99 94 96 98 97 78 49 55 60 53 63 51 49 68 69 62 68 63 66 67 63 70 67 62 67 72 72 71 68 75 70 72 59 61 50 66 56 59 50 45 55 61 67 72 68 66
85 82 85 95 90 89 100 98 95 91 98 96 94 70 57 59 54 48 58 58 53 66 78 78 60 62 63 65 63 58 61 59 58 66 73 75 74 71 74 70 70 60 48 55 51 66 53 56 61 69 68 64 65 70
85 85 91 97 93 92 97 99 98 94 94 97 96 84 58 64 58 52 54 60 58 71 82 80 62 63 62 60 56 53 51 55 63 84 85 78 66 66 57 55 55 47 53 62 75 77 79 70 72 63 68 70 70 75
85 86 96 97 90 88 98 98 93 92 91 95 94 69 70 51 43 42 80 56 51 48 88 92 69 67 62 60 58 59 58 63 68 72 76 70 62 81 72 59 51 57 57 62 71 70 78 73 65 62 68 71 72 78
87 92 96 87 98 100 100 94 94 93 91 99 83 70 53 52 48 84 82 57 56 56 85 95 94 72 75 73 71 72 63 74 74 77 76 69 71 78 77 74 53 52 58 62 69 71 70 65 76 64 61 64 70 74
90 94 86 92 100 99 96 94 97 93 96 97 75 57 49 43 56 62 57 46 40 55 85 95 94 84 67 69 76 70 73 74 82 80 78 76 77 79 92 60 55 53 55 62 62 60 65 64 61 60 61 60 71 74
92 95 88 91 100 96 93 98 96 90 95 72 51 44 46 57 76 55 46 41 39 59 92 99 95 95 71 76 74 77 76 88 78 80 77 78 82 95 73 59 51 61 61 62 62 64 67 67 74 75 67 66 69 74
90 82 91 100 99 96 98 99 90 84 60 51 43 61 90 96 65 61 57 76 88 83 91 95 93 96 80 74 72 75 81 75 81 84 81 85 84 63 53 55 58 58 55 54 66 79 72 84 76 70 67 67 68 69
88 78 100 100 99 97 98 95 81 59 53 50 86 97 98 80 69 73 88 85 85 89 81 86 89 94 77 85 80 78 76 78 82 94 76 76 88 67 56 57 54 52 48 49 49 52 53 58 63 67 67 64 67 70
80 98 99 96 100 99 98 88 65 59 50 59 76 80 73 77 89 71 90 86 79 84 85 89 83 82 90 75 84 79 79 83 83 88 84 83 85 57 57 54 53 56 56 59 56 57 54 54 58 67 72 74 74 74
94 100 100 100 97 100 91 71 57 51 48 53 66 78 79 80 79 58 69 84 94 93 95 91 94 90 88 70 74 77 90 92 89 91 78 89 66 49 46 47 46 46 52 62 62 60 63 67 69 73 78 72 71 74
100 100 100 100 100 92 77 62 63 51 47 87 72 52 70 76 80 89 91 94 96 92 89 90 92 93 81 86 73 88 80 75 77 90 88 91 64 48 45 46 48 49 49 61 64 61 67 74 78 70 70 65 74 80
100 100 99 100 91 80 76 65 59 44 58 81 82 66 86 94 96 96 96 93 94 87 90 92 92 83 92 90 75 83 82 86 87 87 94 92 61 52 51 51 56 59 60 61 56 58 57 57 63 62 54 60 64 68
100 100 97 98 86 85 84 76 50 42 78 87 86 86 86 88 96 96 93 94 92 86 92 92 90 90 92 91 86 88 86 89 87 96 93 65 53 63 66 64 61 59 62 62 61 60 59 59 59 59 59 66 64 70
94 95 99 96 93 80 66 49 49 86 89 85 96 78 91 84 90 92 76 80 74 89 96 93 75 82 90 93 85 79 90 91 96 94 93 71 69 71 67 62 62 64 67 67 67 67 67 64 66 75 83 66 65 67
93 100 100 97 82 66 55 56 83 86 94 97 92 96 72 73 74 81 85 79 89 92 93 86 88 90 89 83 90 90 93 97 93 91 86 70 61 56 56 64 63 64 67 66 65 67 74 80 85 81 68 62 65 69
98 99 93 73 54 48 86 83 83 95 98 96 92 91 86 86 82 78 81 76 72 75 86 92 82 90 90 89 93 96 96 93 73 61 60 52 51 54 53 54 61 67 66 67 73 78 73 71 74 74 74 74 77 69
99 88 71 52 41 73 87 93 78 90 96 97 94 95 95 96 90 93 93 90 94 95 86 84 78 76 72 76 93 92 92 81 75 71 65 60 47 48 51 57 62 59 66 66 68 63 61 62 61 59 62 65 66 67
87 76 61 48 76 81 92 96 97 97 96 96 96 95 99 92 94 93 98 98 95 94 92 93 74 66 57 57 58 57 62 64 74 70 61 78 50 51 54 56 58 64 76 71 69 66 70 71 69 71 73 74 75 75
89 62 66 77 90 90 94 92 93 93 93 96 95 96 97 98 99 98 99 98 97 95 95 93 90 90 80 72 67 61 59 59 59 61 61 62 82 82 74 60 65 73 75 76 78 82 79 73 72 73 75 76 76 78
60 58 84 84 91 86 99 96 93 94 91 95 98 91 98 98 99 96 99 96 95 90 86 87 79 70 75 73 65 61 59 60 67 62 59 58 56 56 58 59 63 72 79 70 66 67 70 74 77 79 79 80 82 86
49 91 95 96 88 100 87 96 88 94 94 91 88 95 96 98 96 97 92 95 94 85 91 92 81 92 84 81 91 65 46 46 47 47 47 58 71 64 56 54 54 54 54 54 60 67 75 81 80 82 86 93 94 94
85 95 91 94 93 89 93 94 96 92 92 90 88 97 98 98 96 94 89 91 94 93 94 88 88 93 91 88 72 48 42 43 49 79 41 50 50 59 66 66 65 64 62 65 67 77 78 79 84 90 93 94 95 94
93 94 84 85 91 80 92 87 92 92 88 91 98 98 98 96 90 77 89 91 91 91 92 86 83 89 89 70 84 62 37 39 49 64 51 54 57 65 79 88 83 73 72 71 77 80 88 91 92 94 97 95 95 96
92 96 83 66 78 80 84 85 80 84 83 82 94 96 94 83 80 81 89 85 87 57 52 47 48 54 61 49 44 42 46 52 55 56 59 60 58 57 70 79 83 80 91 91 85 81 91 97 100 100 100 100 99 99
87 82 90 95 92 94 92 91 87 82 87 84 81 90 71 65 66 86 87 57 48 47 43 40 40 42 41 38 40 46 50 54 57 53 46 40 41 47 49 61 65 70 74 78 83 93 98 100 100 100 100 97 93 97
93 83 86 95 94 91 91 88 89 86 71 82 86 89 85 90 84 80 48 44 42 40 37 42 45 52 54 55 55 55 53 51 67 80 77 78 84 68 74 75 70 70 79 82 86 99 100 100 95 96 98 98 93 97
93 94 87 90 89 95 98 94 96 92 81 82 78 91 88 86 60 53 51 49 49 50 55 62 63 64 66 66 58 45 52 57 62 74 96 89 84 76 73 79 90 94 96 96 96 96 94 98 92 87 89 91 92 96
91 93 90 92 97 96 95 92 90 74 92 96 96 94 94 95 67 67 58 58 58 59 62 63 61 51 49 55 60 68 73 72 70 71 71 72 77 88 94 93 96 96 92 95 99 98 98 97 97 96 95 96 95 99
92 96 92 93 97 96 93 96 95 95 97 96 96 96 94 92 87 95 59 54 56 59 60 43 45 52 61 67 68 66 74 72 72 76 88 100 100 96 92 96 97 94 97 100 99 98 99 100 99 99 99 97 97 98
95 95 94 94 96 96 95 93 93 93 95 95 96 98 98 97 84 85 55 51 45 43 41 52 63 68 68 64 66 66 67 72 76 88 93 100 100 99 96 95 93 95 99 97 97 98 99 99 98 97 97 98 98 98

GFSWCAN_925_rhum_063.txt.gz
RH
97 92 92 83 83 80 88 89 93 99 95 99 97 90 94 87 90 58 58 59 59 92 86 76 74 74 67 73 80 66 70 70 80 77 82 83 77 67 69 72 70 76 82 84 84 90 91 50 55 68 69 69 77 76
96 92 92 86 83 80 96 89 90 97 97 99 91 92 72 87 93 57 61 58 55 83 81 66 68 68 68 68 76 76 73 79 83 80 79 82 78 77 72 82 58 76 70 80 74 78 56 57 79 77 75 79 77 79
93 87 93 87 82 83 97 92 91 99 96 95 91 93 95 91 64 50 55 51 53 85 82 77 75 62 63 63 61 78 76 69 74 79 83 82 77 84 79 78 70 66 55 75 67 63 62 78 78 75 74 75 71 70
90 94 92 88 82 94 83 92 93 98 96 96 94 92 95 83 56 52 50 53 46 79 91 84 62 63 64 59 57 58 64 62 67 78 84 85 83 77 82 76 77 73 53 59 63 69 74 83 79 73 73 70 72 71
95 95 91 85 86 96 87 100 97 97 96 92 86 94 94 70 58 50 56 61 57 65 95 90 70 63 60 57 55 54 57 68 80 86 91 81 79 70 68 63 66 59 60 64 61 78 75 77 75 68 69 72 74 79
96 94 90 86 98 86 91 95 98 94 93 93 93 91 79 60 54 42 60 49 47 49 90 97 74 78 71 64 63 67 66 76 82 83 85 81 70 81 76 73 54 68 70 68 87 77 83 78 68 65 67 68 72 78
96 93 89 89 97 76 96 96 100 90 88 91 80 79 68 56 53 73 64 52 52 44 88 98 98 79 75 76 80 84 71 83 83 85 83 81 80 86 86 80 59 64 71 80 77 70 73 70 74 70 62 64 65 68
95 91 89 92 94 95 98 99 94 89 94 92 92 76 60 50 50 56 58 58 53 64 84 94 97 88 68 78 86 80 84 86 86 88 84 82 82 86 93 70 65 68 73 77 74 68 70 68 66 72 71 68 73 74
92 90 91 78 94 99 96 99 92 92 92 80 71 54 56 52 60 48 45 46 46 45 96 93 95 95 74 80 78 86 86 94 85 86 84 83 89 96 72 70 68 66 66 70 67 66 68 71 77 78 76 74 76 79
84 87 74 94 100 100 98 95 89 77 79 65 63 67 81 87 66 56 58 66 86 89 92 97 96 95 86 70 71 82 77 90 93 87 83 85 89 71 64 70 70 67 64 59 62 73 68 84 71 70 70 71 74 78
84 83 74 99 100 100 96 93 83 72 64 57 88 98 91 73 65 72 83 72 89 87 90 93 91 97 84 91 84 80 76 80 83 94 89 84 90 77 66 66 63 59 54 53 52 53 56 62 67 69 72 70 71 71
84 72 92 92 100 96 95 77 66 63 53 57 70 72 68 76 84 65 90 81 80 82 93 91 90 91 91 83 89 77 84 78 79 87 80 81 86 62 62 57 57 59 54 56 57 62 61 61 61 69 75 76 72 64
67 80 95 99 98 94 81 67 54 47 50 53 64 76 70 77 62 42 63 81 96 97 98 94 97 95 87 76 80 87 91 98 91 97 85 89 75 58 56 54 50 49 48 57 58 55 56 61 59 68 78 70 69 70
82 90 100 99 98 89 75 62 57 56 58 75 66 51 59 61 75 85 77 86 94 94 89 92 96 92 88 89 85 87 88 84 89 97 93 92 72 58 54 51 51 50 55 66 66 58 64 68 67 61 63 61 65 75
84 100 100 100 89 81 71 62 66 46 61 78 70 45 87 96 98 99 98 95 98 90 92 92 94 84 96 89 83 86 88 94 90 88 92 92 70 62 56 55 58 64 69 71 66 67 65 63 67 66 55 56 60 66
100 100 98 98 94 86 70 70 52 45 79 85 86 91 90 92 99 97 95 90 96 90 94 88 92 91 96 93 89 91 87 90 82 95 95 80 62 65 68 70 70 66 68 68 67 65 65 67 69 70 71 75 70 70
96 96 98 98 94 76 69 57 48 86 90 86 97 87 94 90 95 95 91 90 86 88 88 89 69 74 91 95 90 88 88 85 94 97 96 74 69 71 71 66 60 59 64 64 64 61 64 66 74 82 86 68 69 70
92 100 98 96 81 77 57 55 82 88 99 100 94 99 84 86 88 90 91 86 86 94 91 76 88 84 83 72 87 88 95 98 96 94 92 78 66 60 57 58 53 57 60 58 58 63 68 74 85 86 76 72 78 81
99 100 98 83 62 45 82 82 78 98 100 98 97 97 93 91 89 89 87 80 82 82 85 91 73 83 82 89 86 96 98 96 76 67 72 59 55 55 51 51 54 59 62 62 62 75 76 72 72 70 68 68 82 78
100 99 77 55 36 68 84 92 76 90 97 97 94 96 98 99 96 94 94 93 95 92 73 70 57 62 72 76 90 92 95 86 75 67 64 63 51 53 52 52 54 52 62 63 68 74 72 71 68 68 72 78 78 78
98 83 63 41 61 79 94 97 99 98 96 96 98 97 99 96 98 98 98 98 88 91 79 91 72 71 64 66 70 66 73 72 76 70 59 81 52 54 54 53 57 61 73 77 84 77 73 76 70 75 78 82 81 81
87 61 56 65 87 90 95 93 96 95 94 96 96 94 95 96 99 99 98 94 96 88 94 95 94 91 76 65 63 58 55 59 63 64 69 69 84 81 65 54 62 71 74 75 74 80 75 68 73 79 82 83 80 81
56 43 77 79 86 83 99 96 92 96 80 95 97 89 96 97 98 94 94 96 93 94 93 90 81 80 81 76 68 66 65 62 68 64 58 58 55 53 60 56 58 73 80 72 67 68 68 69 77 84 80 80 87 90
42 90 94 95 87 100 91 99 92 96 96 95 89 88 91 97 96 95 76 93 90 94 93 92 82 94 85 80 90 68 54 57 56 50 46 57 71 58 51 56 60 63 63 63 64 67 72 80 80 75 82 90 96 97
86 94 86 94 94 89 94 96 96 88 95 95 86 87 91 97 95 92 80 84 97 94 94 94 92 96 90 93 84 60 49 46 53 79 36 48 50 58 64 65 66 66 67 68 75 82 80 79 77 82 92 96 98 98
93 96 87 85 93 78 92 90 92 94 93 92 92 93 97 96 79 58 85 90 92 92 94 93 92 95 94 80 88 67 43 44 50 63 51 51 59 70 83 90 85 77 83 90 94 95 91 87 93 97 99 98 98 98
94 98 83 71 82 79 83 88 88 89 87 81 90 95 93 73 63 69 89 92 86 63 58 51 54 60 62 52 49 48 52 55 57 56 50 47 52 65 80 92 93 92 97 86 87 92 98 100 100 100 100 98 97 99
86 82 81 94 94 94 90 94 92 87 88 81 78 86 68 56 61 82 86 66 54 55 55 56 56 54 46 42 46 49 52 50 37 35 37 44 52 61 75 82 76 66 68 73 87 99 100 99 97 97 99 98 99 91
94 87 88 98 94 93 96 93 92 86 74 79 81 86 81 90 89 85 57 52 50 48 46 48 55 51 52 55 54 45 43 47 58 72 76 81 82 71 74 71 87 93 95 94 92 100 99 96 98 98 97 96 94 91
95 96 92 93 92 94 94 94 95 92 81 84 80 89 89 89 73 64 57 51 46 48 58 60 58 56 56 44 47 53 57 63 64 75 95 92 85 80 83 92 95 98 96 97 99 98 94 100 94 89 89 90 92 95
93 92 91 92 97 95 95 92 90 74 89 94 95 92 90 93 64 69 61 59 60 63 64 64 61 50 45 54 60 65 70 68 70 71 72 76 88 91 94 96 100 94 99 100 100 99 98 97 97 99 96 96 96 99
92 95 90 92 96 94 92 93 93 93 96 94 93 93 91 90 73 89 58 57 60 55 48 40 39 48 60 65 65 66 68 66 68 72 85 93 98 97 99 100 98 94 93 93 96 97 98 99 99 100 99 98 99 98
92 94 94 94 95 92 93 91 93 92 90 89 93 99 99 95 68 80 61 58 51 42 36 46 58 64 66 65 66 66 67 70 74 81 93 100 100 100 98 96 94 99 99 98 98 95 95 96 98 100 99 99 98 97

GFSWCAN_925_rhum_066.txt.gz
RH
96 98 99 94 91 91 88 84 90 88 99 87 96 98 86 96 96 65 61 62 60 93 85 80 78 72 71 76 82 71 72 73 85 80 85 84 79 70 76 73 75 79 87 88 86 90 95 51 55 68 74 78 77 77
96 96 94 94 85 92 88 81 95 84 88 99 99 93 86 86 92 49 59 58 56 82 83 69 67 69 69 69 79 83 74 81 84 85 85 87 82 80 79 88 64 78 72 81 78 79 70 81 74 76 74 79 77 77
97 99 99 92 87 91 88 83 90 80 95 99 99 91 85 91 82 56 54 54 55 84 78 78 76 62 60 62 62 79 82 74 78 81 86 84 76 84 82 80 74 69 62 75 72 72 87 86 80 76 75 77 73 74
97 97 96 93 94 92 86 81 88 77 100 94 88 82 93 98 86 56 48 50 50 78 88 86 66 65 60 55 57 61 67 66 73 81 87 87 81 81 84 76 78 77 63 68 80 90 88 85 78 79 75 71 72 74
99 98 95 96 94 86 81 84 84 97 99 98 85 89 93 85 58 49 49 59 46 62 93 90 72 69 62 55 55 54 59 72 83 86 89 81 84 72 73 68 74 64 65 68 70 77 75 85 81 73 69 71 73 80
97 96 96 97 90 80 90 98 98 100 96 90 82 84 92 70 55 47 59 53 46 47 90 97 80 80 73 68 66 71 73 84 88 82 87 84 75 75 73 67 57 72 73 71 86 80 82 83 76 68 70 68 69 78
97 96 96 95 89 70 94 92 100 99 92 90 80 79 77 65 53 64 62 54 47 47 90 98 98 79 75 78 83 85 77 89 83 89 85 82 81 88 86 77 63 73 84 84 79 78 80 71 77 68 65 68 68 68
97 94 94 92 84 81 84 93 99 95 89 89 82 75 82 60 55 60 72 64 56 58 81 96 99 88 69 86 87 88 86 86 90 90 86 84 82 87 91 74 75 84 85 81 75 69 69 68 67 68 71 74 75 78
89 89 91 90 88 82 78 100 96 89 92 96 80 77 67 52 57 52 54 48 45 45 93 93 94 98 78 83 86 85 88 93 87 87 88 84 92 94 67 72 78 78 71 77 72 68 68 66 68 70 72 73 72 78
84 88 84 88 86 88 90 98 89 92 83 69 71 68 76 80 60 57 54 59 85 88 92 98 97 95 87 81 80 88 86 95 96 88 84 84 91 75 73 73 72 72 70 68 56 61 59 85 64 64 67 70 76 81
85 85 84 87 78 83 100 90 92 70 78 71 82 95 95 67 64 72 81 72 85 82 91 95 94 98 86 91 85 82 90 88 88 92 90 93 94 79 71 71 67 64 60 55 53 54 56 62 69 71 72 70 74 74
87 82 81 94 100 100 98 89 73 72 63 61 74 74 62 74 81 62 88 80 75 83 94 93 93 94 94 83 91 85 91 88 88 88 80 89 88 74 73 67 65 65 55 53 55 58 59 61 62 69 75 76 73 68
85 78 85 100 100 99 89 70 65 58 55 58 65 74 74 76 48 39 46 78 98 99 99 98 98 94 88 80 88 88 95 97 87 83 91 88 79 71 65 61 59 58 53 52 54 55 57 60 58 65 70 62 66 70
79 76 80 100 94 89 80 71 60 60 55 77 69 55 62 62 67 73 77 86 92 95 91 94 98 93 88 90 88 88 89 79 97 100 93 91 82 66 62 57 53 48 54 69 70 63 65 68 67 63 63 63 68 75
76 87 78 100 90 83 84 68 60 52 55 82 69 39 81 89 98 100 98 98 98 86 91 94 93 85 96 93 85 91 89 98 91 86 89 92 77 66 62 59 60 61 68 72 67 72 70 67 71 69 63 68 70 68
91 86 98 98 90 88 77 66 53 42 80 86 86 90 92 96 100 98 93 90 97 90 92 86 93 88 96 91 85 89 80 79 74 91 93 85 72 67 64 68 70 68 68 67 66 64 62 63 69 74 72 64 60 67
83 100 100 98 95 87 65 51 46 87 89 84 97 89 94 96 97 96 87 85 87 77 84 85 58 61 92 94 89 88 83 78 86 96 97 77 68 71 76 70 64 60 60 58 57 56 60 59 69 73 82 64 68 69
97 100 99 96 92 64 53 60 84 88 100 99 94 99 89 88 93 90 92 90 85 94 86 69 88 80 71 63 79 85 93 95 96 96 94 81 72 67 62 63 53 53 53 51 54 59 65 70 80 82 76 69 73 80
100 100 98 92 67 47 83 84 79 98 100 97 98 98 94 91 91 90 88 86 87 85 82 87 66 76 72 84 79 91 96 97 80 72 75 63 60 59 55 54 53 54 54 58 58 67 70 71 76 76 73 70 87 86
100 99 94 67 48 63 84 94 74 89 92 97 96 99 99 100 96 94 94 96 94 89 67 61 49 48 55 69 89 91 94 89 76 66 59 61 51 56 57 54 54 53 60 60 63 72 75 77 70 65 67 79 87 86
99 92 67 54 60 79 91 94 98 94 97 99 99 97 100 96 97 99 99 98 87 85 69 83 56 69 69 72 70 71 82 74 70 58 56 76 54 55 54 52 58 60 69 71 78 76 73 76 68 72 81 84 85 86
96 81 56 55 84 89 94 93 93 94 94 97 96 94 93 91 98 99 99 90 91 86 91 94 95 89 73 65 68 60 59 63 61 62 69 70 80 82 62 53 70 72 74 76 75 80 77 73 77 84 88 87 82 81
83 51 71 72 81 83 100 93 90 94 82 96 97 90 93 96 97 95 91 95 91 94 96 92 88 88 81 78 71 66 64 61 70 65 59 58 55 54 55 49 53 68 81 76 72 77 82 85 86 90 83 81 88 91
47 91 94 93 86 100 87 99 92 96 96 94 89 89 94 94 93 92 65 89 89 96 96 95 83 93 84 77 89 72 59 62 64 64 58 57 65 52 49 57 64 67 68 74 76 81 84 87 88 84 85 92 93 96
88 93 87 100 96 89 94 98 98 89 96 94 88 91 93 92 85 83 72 81 96 96 96 96 92 97 91 93 86 63 55 54 56 78 41 51 56 58 60 67 73 71 74 83 96 93 86 78 81 90 94 95 98 95
93 96 80 86 94 77 89 89 89 90 88 90 95 94 95 88 70 54 76 89 93 93 94 91 92 96 96 81 88 66 51 47 50 57 46 53 64 74 87 96 95 88 94 98 95 91 97 100 100 99 98 95 98 98
94 93 83 73 80 80 85 87 81 79 82 90 93 92 81 54 58 64 85 94 87 63 57 54 62 60 62 56 51 53 53 52 53 54 51 50 54 67 86 100 100 80 90 90 90 100 100 100 100 98 99 99 96 98
89 79 80 90 94 92 84 89 82 83 91 82 73 68 59 55 56 82 88 64 69 61 55 57 55 48 49 46 52 52 52 44 38 42 49 55 60 66 79 71 75 90 94 93 96 100 100 98 97 98 99 98 94 91
95 88 86 96 89 92 96 92 94 92 83 86 72 79 77 89 91 92 67 68 63 58 61 61 58 51 54 58 52 40 46 50 50 70 76 86 85 71 74 84 90 91 91 91 90 100 100 96 98 98 96 95 93 92
94 96 90 92 89 94 96 96 96 95 85 81 77 90 88 92 80 70 61 60 53 46 46 49 55 56 56 47 50 55 55 57 59 67 91 93 82 81 89 91 95 93 94 96 98 96 93 99 91 88 88 88 91 95
95 93 92 92 97 96 95 94 91 78 88 91 93 92 90 92 68 70 63 59 57 62 63 65 63 49 42 52 55 61 64 61 66 68 72 78 89 91 89 94 97 96 94 94 96 95 94 92 94 95 94 95 96 98
92 97 93 95 96 95 94 93 92 94 96 93 94 95 92 87 71 88 64 64 70 67 55 47 37 43 52 55 57 60 61 62 65 70 78 85 93 93 92 98 99 98 100 100 96 93 93 93 95 98 100 99 99 99
96 95 95 95 96 95 94 90 92 92 93 94 93 93 92 87 68 79 65 57 51 41 33 35 47 54 58 60 62 63 66 67 67 72 87 98 99 100 98 90 94 97 98 95 92 91 91 93 95 99 98 99 99 99

GFSWCAN_925_rhum_069.txt.gz
RH
90 90 92 93 96 96 89 91 92 81 81 97 96 76 89 88 98 98 63 58 63 96 89 82 78 71 76 77 82 75 73 72 86 81 83 86 80 78 79 74 75 80 86 86 86 89 85 54 57 68 70 80 78 76
89 93 95 93 95 95 86 92 90 73 84 98 95 89 87 93 97 85 55 59 58 85 83 72 69 70 71 69 82 84 74 81 84 87 87 88 84 82 82 88 71 77 71 78 79 78 76 82 70 76 75 80 78 78
97 96 97 97 96 92 95 93 88 71 86 98 99 97 92 93 79 57 52 54 55 83 80 75 76 62 59 62 64 80 84 78 80 82 88 86 75 82 84 82 74 70 68 77 73 75 84 83 79 77 74 77 77 77
98 96 97 96 95 96 96 92 79 77 80 99 94 94 88 79 68 54 50 51 51 79 87 83 69 68 62 59 60 64 71 72 78 85 86 86 78 83 85 76 78 77 66 76 82 87 83 83 80 78 78 73 73 74
97 94 95 97 96 96 89 82 84 91 93 99 86 83 83 95 75 64 49 52 47 63 91 88 73 72 70 61 59 58 61 75 80 85 90 83 88 77 77 74 79 69 72 76 78 73 76 79 83 77 73 71 72 75
97 96 96 96 93 88 73 93 93 81 100 91 80 98 90 80 79 54 62 54 48 50 87 94 83 80 74 69 69 75 77 86 87 81 89 87 78 73 74 70 56 72 75 69 72 79 80 83 82 70 70 70 71 74
96 96 97 92 88 81 73 99 82 99 100 87 78 88 74 68 60 60 67 58 48 48 88 96 96 80 75 77 83 83 80 91 82 89 86 81 80 85 82 72 61 77 83 84 82 80 83 73 81 73 67 66 71 72
96 97 91 90 83 88 74 97 97 97 93 88 87 80 73 69 59 63 78 60 49 51 80 98 97 88 70 86 84 92 86 84 92 91 88 82 82 88 90 73 72 86 84 76 72 66 65 74 70 66 70 74 73 78
96 95 88 90 80 87 78 100 92 92 90 89 75 68 61 55 59 65 64 54 45 44 87 93 97 100 79 90 89 85 87 90 88 88 89 85 90 93 62 74 87 89 77 76 73 67 69 63 61 62 64 68 72 76
90 93 84 89 80 79 87 96 87 86 78 70 70 76 75 73 66 55 48 57 82 86 91 98 95 93 87 90 91 88 89 94 94 91 87 86 89 75 74 73 77 79 74 78 65 67 61 81 58 58 61 66 73 79
88 88 83 89 83 79 96 94 84 88 81 76 86 93 90 73 66 76 83 66 84 82 88 95 91 98 86 92 95 84 95 94 95 88 90 95 94 83 74 80 77 74 70 59 49 51 54 61 67 72 72 67 70 73
88 83 85 87 84 80 89 95 86 81 73 67 71 72 66 73 81 60 78 86 72 77 95 92 96 93 94 83 90 85 92 91 89 88 81 93 84 77 78 71 71 71 65 58 54 55 57 60 62 69 73 73 69 65
89 82 88 88 86 85 97 90 74 67 61 63 76 74 77 76 43 46 45 78 98 98 99 99 98 92 88 81 89 88 95 96 82 85 94 90 78 78 77 73 70 64 54 51 50 54 56 60 61 67 70 63 65 69
85 89 88 83 83 85 99 83 74 62 53 81 72 51 61 60 70 70 74 84 92 95 93 97 100 92 90 92 89 88 86 77 94 100 94 90 80 76 73 64 59 59 57 72 72 64 67 68 66 60 62 64 72 77
88 86 81 98 100 98 88 78 66 57 55 75 72 48 80 81 95 99 97 98 98 81 91 95 92 83 96 95 86 82 88 100 92 80 86 89 76 75 69 64 63 61 64 68 63 69 68 66 70 68 60 66 69 68
94 84 93 100 100 99 87 72 58 43 78 86 87 91 94 96 100 98 97 98 98 88 90 84 85 83 97 91 87 91 79 76 70 91 90 88 78 71 65 64 66 66 68 66 64 64 62 62 65 67 68 66 58 63
86 83 87 100 98 92 73 57 45 87 90 85 96 90 95 95 93 93 86 81 87 76 75 81 54 62 91 91 81 85 77 74 84 88 97 85 72 69 69 70 68 64 63 59 58 55 56 55 61 71 81 64 66 71
79 69 96 100 96 70 60 64 83 89 98 98 94 98 90 94 95 89 92 90 88 91 82 68 87 82 69 57 75 82 91 94 96 97 94 76 67 66 67 67 58 56 56 52 54 57 60 64 76 80 76 74 77 78
84 96 100 97 80 64 94 86 80 96 100 98 97 94 92 94 91 91 89 86 88 80 78 84 62 73 67 79 76 89 95 96 84 84 81 69 64 63 59 58 60 59 58 58 57 64 67 68 76 80 83 84 91 86
98 100 97 89 56 67 88 94 78 90 94 94 96 99 99 100 93 92 93 95 92 87 64 58 46 44 49 65 87 88 91 89 75 69 62 60 53 53 55 57 56 56 60 56 56 64 70 77 75 74 78 84 88 92
100 99 94 71 72 81 89 97 98 95 97 98 99 95 99 96 96 98 97 97 86 82 64 82 50 68 73 74 66 70 83 74 71 58 54 74 54 57 59 58 57 58 66 68 77 77 80 80 80 82 89 93 92 90
98 98 98 63 87 88 95 92 92 92 93 96 94 94 93 87 93 95 99 87 88 83 88 93 94 89 78 72 72 65 68 64 59 62 64 65 69 78 60 56 68 68 70 74 78 84 86 87 91 95 94 86 83 81
98 84 76 86 89 84 99 94 91 94 86 94 96 88 94 96 96 96 85 92 88 93 97 95 93 86 85 82 73 65 64 57 68 65 62 59 55 51 51 54 65 73 79 72 81 88 90 92 83 91 84 85 94 94
85 94 95 94 86 100 88 96 90 93 94 94 90 92 93 95 94 88 62 87 85 97 98 96 88 93 87 78 90 77 67 65 62 62 59 55 60 52 57 65 67 70 80 87 89 90 83 79 86 90 94 95 93 94
92 97 88 97 98 91 98 99 98 88 98 96 88 95 93 94 86 77 65 80 94 97 96 96 93 94 90 94 90 68 63 60 66 85 47 48 54 61 56 70 76 82 96 90 86 91 91 91 94 95 94 95 98 95
94 96 78 85 95 76 90 89 89 91 92 92 93 94 95 91 65 49 70 83 90 91 93 92 90 94 92 78 86 73 52 50 50 54 62 64 69 76 88 100 100 80 87 87 96 98 99 98 98 98 99 98 98 98
95 93 81 74 79 82 89 85 79 88 89 88 93 95 88 57 46 62 82 92 86 71 64 66 68 72 73 64 56 52 50 52 56 58 56 53 61 69 74 83 87 84 98 98 100 100 100 100 100 100 100 97 95 98
86 79 81 91 94 94 82 87 80 78 86 89 81 78 73 69 67 76 86 73 77 65 60 64 53 46 47 47 46 49 55 44 45 50 56 61 65 71 78 74 86 94 97 94 100 100 100 98 100 100 100 100 95 92
92 87 84 94 91 92 97 92 94 94 82 86 75 74 71 83 91 88 80 80 80 67 76 70 69 54 54 58 51 42 45 49 49 68 73 88 84 75 76 84 89 90 88 88 85 95 100 99 100 99 95 94 93 92
96 94 87 91 91 95 97 97 97 96 90 81 75 86 89 94 85 78 77 76 72 64 56 51 54 58 65 46 53 56 55 54 55 58 86 91 78 77 83 89 91 91 92 92 86 82 79 81 85 88 89 90 92 97
95 92 91 92 97 96 96 95 94 83 92 92 87 86 92 93 72 68 64 59 50 50 55 70 69 58 46 49 51 59 66 60 61 63 67 71 77 83 88 95 94 95 95 93 91 88 88 90 95 98 96 96 95 98
95 97 92 95 97 96 95 95 95 93 92 86 87 92 92 88 75 91 63 62 70 74 62 60 50 41 46 48 50 52 54 60 65 68 70 77 87 89 96 98 93 93 91 90 89 90 93 96 97 98 98 98 99 100
96 95 95 95 96 95 95 94 94 87 90 93 94 95 96 85 68 81 70 66 59 57 50 38 35 42 47 52 55 58 61 67 69 68 73 84 100 99 96 99 94 96 92 91 90 92 95 97 96 96 98 98 97 100

GFSWCAN_925_rhum_072.txt.gz
RH
82 87 89 93 93 90 96 90 92 95 91 80 100 97 90 94 80 86 63 64 68 96 88 80 77 76 75 79 82 76 74 73 84 81 82 86 81 81 79 73 75 80 87 87 88 88 79 67 58 63 66 78 77 75
88 92 94 94 92 94 96 94 96 90 58 97 95 85 92 89 92 83 56 57 61 85 83 73 72 71 75 72 86 84 73 80 83 87 87 89 82 84 82 82 73 77 71 77 77 76 73 80 75 74 76 80 77 75
92 96 95 94 93 95 95 96 93 81 71 98 99 90 87 87 96 81 54 54 56 84 81 72 77 64 64 66 66 79 85 80 82 83 89 86 75 81 86 84 76 72 73 78 71 74 76 82 80 76 74 77 78 79
96 97 95 94 96 96 95 92 84 77 72 100 98 97 94 90 77 67 48 51 54 80 83 78 70 71 71 62 64 67 73 75 82 85 86 86 76 84 84 78 80 77 72 78 78 77 84 84 82 78 80 77 77 76
97 96 96 95 96 95 92 87 77 75 70 100 87 85 96 81 57 48 47 50 48 63 90 83 72 71 70 62 61 60 64 76 80 83 90 81 90 80 82 80 85 78 75 80 78 69 71 69 84 80 79 73 70 72
97 96 96 96 95 93 93 82 82 95 75 100 92 80 87 72 61 46 66 56 50 51 86 86 82 78 70 65 69 77 79 86 85 81 89 89 80 74 79 79 58 65 75 66 65 77 78 81 82 73 69 68 69 71
97 95 96 94 92 94 82 91 95 82 88 99 90 92 89 79 64 58 65 64 54 49 85 93 95 79 75 74 84 82 79 90 83 89 83 80 83 82 78 67 54 80 81 85 83 83 82 79 81 76 68 66 71 72
100 98 94 91 93 87 80 99 87 93 95 95 90 77 66 63 56 61 68 59 48 54 82 97 96 89 70 83 77 92 83 82 91 91 89 79 85 88 88 71 71 85 84 79 80 66 64 76 74 71 70 72 69 75
99 96 91 89 91 79 92 100 100 97 98 89 73 62 56 51 61 69 62 50 45 45 91 93 95 95 80 92 89 84 86 87 89 88 90 84 86 87 58 65 84 91 81 75 75 70 72 64 63 58 58 60 65 68
97 92 87 84 90 81 96 99 95 94 83 68 57 55 78 70 66 58 52 55 79 87 91 95 95 98 87 91 92 87 87 92 92 91 89 90 91 74 74 72 76 86 76 82 70 73 68 79 58 50 55 62 71 76
97 92 87 83 87 78 99 97 85 75 66 67 83 93 89 78 61 72 82 68 77 77 89 95 92 99 85 92 95 85 96 96 95 88 92 95 94 83 74 76 79 81 80 72 46 46 50 52 59 65 66 65 66 69
94 92 86 86 87 79 99 93 80 69 64 62 68 68 66 72 82 56 76 83 77 64 96 95 95 90 94 85 89 86 93 91 90 92 90 96 84 73 80 78 77 77 71 64 55 52 53 57 61 67 72 73 69 67
94 90 85 88 85 83 98 90 74 62 59 58 66 75 75 76 50 51 45 71 93 96 98 99 99 94 92 82 90 88 94 94 77 85 94 89 75 76 81 77 75 73 63 54 53 51 53 58 61 66 70 64 68 70
94 89 84 87 88 83 91 93 81 62 57 82 74 58 68 70 73 69 68 83 91 95 94 96 99 90 87 92 88 89 78 76 95 100 85 87 75 74 83 75 73 70 63 78 71 62 65 68 65 59 62 64 70 73
94 90 85 90 86 80 88 94 83 64 56 75 74 56 82 78 90 95 98 98 98 84 91 93 92 82 97 96 84 82 91 100 89 72 82 87 69 79 81 71 66 61 63 66 61 67 64 62 66 63 56 62 68 70
94 94 98 93 97 89 88 100 85 56 75 84 92 83 91 97 97 99 100 100 99 90 85 87 88 84 92 89 90 86 72 67 66 90 90 88 77 79 73 67 64 62 66 66 63 62 60 61 64 64 64 61 60 66
99 94 90 89 84 81 95 94 75 82 82 87 93 93 95 97 95 96 92 89 88 77 73 88 52 58 91 86 72 83 75 72 82 88 94 87 76 74 70 65 66 67 66 62 60 56 57 58 64 70 78 67 74 82
95 85 74 78 100 99 96 76 82 89 95 98 96 97 89 92 93 91 94 92 83 87 86 62 88 82 69 55 74 82 90 94 94 96 96 78 69 67 64 68 63 58 57 55 57 58 63 67 77 81 79 83 88 85
83 73 99 99 93 94 99 97 84 94 96 98 99 99 94 90 92 92 90 88 87 81 82 85 61 71 65 78 78 90 95 94 84 89 82 73 67 64 63 60 58 59 58 60 64 67 67 70 79 82 84 87 97 94
76 84 100 91 78 76 96 97 86 93 100 95 97 100 100 98 95 93 93 90 86 86 56 50 44 43 46 61 86 86 90 88 80 74 67 66 60 55 54 56 58 64 62 57 57 66 73 76 74 82 90 96 99 100
86 100 96 86 87 91 96 96 97 95 98 97 98 94 94 96 97 94 92 95 84 81 65 79 48 70 76 73 68 70 84 71 69 62 59 77 56 56 59 62 59 61 65 70 78 77 83 88 90 93 96 95 86 89
98 99 99 99 96 97 93 91 92 94 95 96 95 90 89 86 86 88 97 84 85 80 84 90 91 91 82 75 74 68 67 61 58 62 63 61 65 79 68 63 60 66 70 75 81 90 94 91 91 89 91 90 89 90
97 97 98 98 96 91 97 95 93 96 88 94 93 86 94 94 94 95 80 88 85 94 95 96 93 84 87 84 74 75 64 58 72 66 64 56 54 55 58 62 66 72 79 77 93 96 90 89 84 93 90 90 94 94
93 98 98 97 90 97 90 96 89 93 92 90 84 88 92 95 94 87 64 84 86 98 99 96 89 93 93 81 91 82 65 60 62 61 55 53 63 57 62 65 67 76 90 96 85 78 83 90 96 91 92 94 94 95
95 98 97 96 95 93 94 100 96 91 89 90 84 94 93 96 84 76 63 78 95 99 98 96 96 93 86 95 95 74 68 63 64 90 55 59 56 61 62 71 80 90 94 81 87 94 93 92 92 93 94 98 97 95
96 96 96 91 95 79 89 83 87 86 90 91 90 94 96 89 61 48 65 76 86 92 92 86 82 89 89 83 84 81 59 59 51 54 61 59 58 61 83 97 100 82 90 96 100 100 98 96 96 97 99 99 98 100
95 96 88 74 75 78 83 81 78 88 87 81 92 96 88 59 52 62 79 89 86 80 77 74 66 68 68 74 62 54 52 56 54 52 52 56 65 66 65 74 80 86 97 96 95 100 100 100 100 100 99 100 97 98
88 81 85 93 89 94 82 89 88 93 91 85 80 84 67 65 65 79 85 79 70 77 80 75 65 47 46 49 49 52 60 59 50 57 62 67 69 71 76 76 87 95 96 91 96 100 99 100 100 100 100 97 92 90
94 86 84 96 92 92 95 91 88 92 81 88 82 84 80 87 91 93 91 89 83 78 79 82 78 56 55 56 58 52 41 46 54 68 70 86 84 74 78 85 91 92 90 87 88 94 100 100 98 94 90 91 91 90
97 93 90 94 93 93 94 95 97 97 91 88 86 94 93 94 90 94 93 88 83 70 66 63 62 52 70 59 69 65 58 54 52 53 86 88 74 74 82 90 90 92 92 91 83 77 77 80 79 82 82 85 90 96
89 90 92 92 96 96 96 96 94 83 93 93 91 88 85 88 82 78 81 77 69 64 68 80 68 54 49 54 56 66 72 58 57 61 63 64 69 78 88 91 91 87 88 85 82 82 84 85 88 90 90 93 95 100
93 94 92 95 98 96 96 96 96 94 93 90 87 93 94 87 78 91 68 66 70 72 64 63 61 59 39 36 42 44 46 51 62 67 67 69 75 85 95 96 93 92 88 85 85 86 88 90 91 94 96 96 98 100
95 95 95 95 97 96 96 95 96 96 95 90 85 87 85 77 64 78 73 66 53 51 46 43 42 35 39 44 48 53 57 63 68 68 65 71 94 98 99 100 97 96 91 90 88 89 89 90 92 95 97 98 98 99

GFSWCAN_925_rhum_078.txt.gz
RH
81 77 88 92 94 96 95 96 95 89 77 97 90 92 89 76 64 55 70 64 65 69 73 72 72 71 64 64 60 66 62 58 59 61 59 65 58 63 61 62 63 62 61 61 63 64 50 50 55 53 48 57 53 55
68 70 90 92 95 96 96 96 93 85 76 100 89 81 78 80 67 55 66 60 59 64 69 72 76 79 80 72 67 67 61 66 62 58 62 61 60 64 61 52 63 62 54 49 52 44 49 52 54 56 54 51 59 57
44 65 90 95 97 96 96 96 85 73 88 98 90 84 89 84 72 56 55 56 57 64 66 63 66 70 73 74 71 61 67 66 66 67 58 60 61 57 56 57 61 60 59 57 56 52 54 54 57 59 58 57 58 58
34 75 92 96 97 96 81 90 77 66 88 93 95 88 84 82 80 69 49 51 56 61 66 67 66 70 68 68 69 71 70 71 65 61 60 60 57 66 58 58 58 55 62 58 57 53 57 54 58 56 61 62 64 64
40 84 92 97 96 91 84 83 73 72 86 94 91 92 92 87 81 73 49 51 51 62 68 66 67 66 66 64 67 67 63 60 60 64 65 61 66 64 63 65 62 57 53 53 43 50 50 52 57 58 63 64 62 61
58 79 95 98 92 85 89 82 78 82 77 95 92 92 86 78 73 61 56 52 51 53 73 75 71 66 67 66 65 65 66 62 60 59 67 68 70 64 63 55 44 53 55 52 47 56 58 67 68 66 65 63 58 59
48 85 98 99 90 81 81 80 87 86 74 98 85 86 60 59 55 56 57 61 51 49 68 82 77 64 73 67 69 61 66 66 58 66 64 62 72 72 62 55 40 44 54 58 58 64 66 70 65 66 61 61 63 63
37 79 98 94 81 80 93 87 90 83 83 92 86 84 74 69 54 59 58 52 48 54 66 92 85 68 70 64 61 72 57 58 69 68 68 59 68 70 67 49 51 60 68 70 69 60 58 65 68 70 67 63 53 45
32 68 91 93 80 83 97 93 76 80 85 85 87 78 74 61 58 64 50 47 42 46 82 79 85 82 71 77 72 67 64 60 73 66 66 69 60 68 47 42 53 67 65 65 73 65 65 62 63 60 52 44 42 41
28 68 89 91 79 84 98 99 93 86 83 70 60 57 75 68 65 59 53 59 70 73 74 75 81 83 71 75 74 70 73 68 77 69 75 76 64 54 53 49 49 61 64 68 69 67 64 62 52 42 40 45 49 51
32 70 86 92 81 78 99 99 92 76 67 59 71 76 77 75 56 59 67 64 58 57 71 81 81 83 75 76 71 72 82 83 79 77 79 75 67 60 62 64 63 63 62 58 45 41 46 46 43 44 46 51 55 56
38 74 83 90 80 78 99 97 84 73 64 61 64 72 72 64 70 60 70 62 67 56 81 84 82 75 79 75 72 79 80 84 78 78 85 74 63 59 67 69 70 70 66 59 48 45 47 47 50 54 54 56 59 59
38 76 82 90 78 77 94 97 92 70 58 60 61 71 71 70 63 68 61 68 76 79 90 92 90 80 84 76 78 75 82 79 75 87 74 60 54 62 68 70 76 79 74 59 52 51 49 51 58 61 59 64 65 63
38 77 82 90 81 77 98 97 90 72 54 81 79 65 76 78 76 73 65 71 70 84 90 82 90 77 76 76 74 80 73 72 96 87 64 61 60 56 68 67 66 65 64 71 64 58 62 62 63 59 63 68 66 62
48 81 88 91 84 83 99 96 84 67 58 84 78 77 80 70 87 89 91 90 90 82 80 82 83 70 83 87 72 81 91 96 74 61 60 65 59 64 70 68 62 59 56 53 55 63 64 62 64 65 63 67 70 71
78 95 96 89 86 86 98 97 85 78 77 80 83 78 73 86 86 92 95 94 91 79 76 74 82 82 81 82 92 89 72 64 63 76 67 61 62 70 71 68 62 58 55 52 58 60 58 60 62 69 65 69 77 83
98 93 82 87 88 97 99 98 98 100 100 98 87 75 76 85 86 79 79 77 80 68 76 77 67 59 82 84 79 69 74 64 70 70 72 73 72 75 73 66 63 59 61 64 60 59 63 65 68 74 76 76 85 84
89 81 82 83 99 100 100 98 99 100 99 96 89 84 82 73 81 81 80 84 78 75 71 66 77 83 76 62 63 69 74 78 74 70 75 74 69 69 68 61 64 66 62 61 62 63 66 72 76 69 87 89 91 84
84 78 86 89 98 96 99 100 100 98 92 91 89 90 85 80 79 80 79 81 80 72 75 79 68 73 60 65 67 79 81 79 78 78 70 67 66 67 68 65 60 61 62 63 66 66 73 75 77 84 88 89 87 80
82 78 84 100 97 98 100 100 98 97 99 90 94 98 87 86 86 88 87 82 78 79 74 74 51 40 39 44 67 66 69 74 69 70 71 70 71 71 68 64 65 63 65 66 66 73 78 73 84 90 90 86 83 81
92 80 89 100 94 98 95 97 100 95 94 91 94 92 92 92 92 94 94 84 82 86 78 59 43 38 62 60 62 60 71 67 60 57 59 73 64 64 70 70 62 62 62 62 61 71 82 84 86 90 90 81 86 86
95 88 99 99 99 99 98 97 91 91 92 96 96 90 93 93 91 91 90 88 87 63 64 54 60 68 70 68 72 63 65 56 54 62 61 62 70 78 75 70 74 73 73 78 81 84 88 85 90 92 88 85 88 85
93 99 99 99 97 97 96 96 95 96 98 99 93 90 90 90 90 90 86 84 76 72 68 75 81 81 80 87 74 64 55 57 60 60 56 54 59 56 58 66 64 72 81 89 90 89 87 93 89 89 89 90 87 86
99 98 99 97 97 96 95 96 94 94 94 95 93 92 96 92 91 89 84 81 72 76 83 88 77 82 85 80 74 71 66 55 63 59 55 59 69 69 64 65 67 72 77 84 82 84 86 87 93 90 93 95 95 97
98 97 97 96 97 96 96 96 96 95 94 93 92 97 96 94 90 90 84 77 82 80 82 81 71 60 61 70 79 72 64 61 60 63 60 49 59 78 79 77 80 80 80 78 85 87 88 87 89 93 95 99 96 95
98 97 94 94 95 95 93 95 95 94 92 97 90 95 95 91 84 76 74 65 72 73 82 73 65 71 72 70 67 76 69 59 50 58 61 54 50 56 76 81 80 83 80 78 80 85 88 89 93 92 96 96 96 99
96 96 96 92 85 90 83 79 76 82 86 88 94 98 90 74 72 64 68 74 76 79 61 58 52 52 49 73 68 60 54 57 47 44 47 55 47 45 45 62 76 63 72 77 80 82 86 91 94 94 95 90 91 95
95 91 92 94 91 87 79 81 82 76 77 83 75 80 76 70 59 71 80 85 84 80 70 63 58 50 61 68 62 68 70 58 55 58 62 65 62 61 60 60 63 66 73 78 80 82 87 91 90 90 91 91 91 95
94 88 79 99 100 95 88 82 78 84 75 69 68 78 73 86 88 91 94 92 95 86 79 80 86 63 69 71 72 62 57 60 65 74 69 72 83 72 71 72 74 78 79 78 86 93 93 98 92 92 90 90 92 93
94 94 94 95 94 91 91 96 96 97 92 89 82 91 93 94 96 93 94 98 96 90 75 68 87 73 82 79 89 86 64 55 40 44 65 72 66 54 65 71 76 79 78 78 78 77 82 86 85 87 89 90 92 94
91 91 94 94 95 95 96 94 95 83 94 96 93 92 90 96 97 96 95 94 93 90 84 82 77 75 70 74 72 76 79 54 48 44 44 44 51 58 64 71 77 76 75 76 78 80 85 89 91 92 94 94 93 96
92 92 94 100 99 95 97 96 97 97 97 93 88 94 95 88 82 94 92 93 93 87 75 74 73 73 64 58 52 46 42 42 52 52 54 56 58 63 70 76 74 74 76 79 82 86 90 93 94 95 94 94 95 95
98 98 99 98 98 98 97 96 97 97 97 96 94 94 90 76 67 84 92 88 80 79 76 71 65 54 51 44 40 34 32 41 53 60 61 60 61 68 76 78 77 80 82 85 89 92 93 94 95 95 95 95 95 96

GFSWCAN_925_rhum_081.txt.gz
RH
95 87 33 92 92 94 95 96 91 71 97 89 94 88 77 63 56 60 73 64 62 59 66 62 62 60 56 52 49 54 56 52 45 47 46 49 43 46 48 46 47 50 49 46 49 53 50 40 50 50 45 46 44 46
96 87 37 92 85 98 95 96 86 69 97 80 82 77 74 73 52 62 61 58 62 57 63 65 68 70 72 67 60 54 54 52 49 44 46 45 45 47 46 38 49 48 47 43 43 41 40 39 43 47 45 44 49 48
99 87 45 91 87 93 95 92 83 69 94 81 80 77 77 81 77 52 65 60 60 55 59 56 58 63 71 72 72 60 53 56 54 58 45 48 49 45 41 40 47 47 46 48 48 38 42 42 41 46 48 48 50 50
97 76 42 91 88 90 84 90 74 75 92 87 85 84 79 80 76 72 57 53 64 50 55 62 62 60 68 68 72 67 64 59 54 51 49 47 47 51 44 48 48 45 52 47 46 38 44 44 44 44 49 52 54 54
97 64 44 92 85 94 85 84 78 74 100 94 94 92 89 82 76 71 50 52 54 63 60 59 58 62 61 60 60 62 57 53 52 57 57 51 52 54 51 55 50 45 42 48 34 41 42 48 48 47 52 57 54 54
97 54 45 83 87 92 84 72 77 74 88 92 87 87 84 82 74 65 52 51 50 61 66 69 59 55 58 57 55 54 56 52 52 56 56 56 61 61 60 45 33 38 41 42 40 46 49 54 56 54 54 56 53 51
97 49 57 75 82 89 83 77 80 85 76 97 91 77 63 64 60 58 61 68 47 50 62 80 75 56 62 58 54 50 52 54 53 58 58 54 62 69 62 51 36 35 42 47 47 50 56 58 55 57 55 54 58 54
99 39 39 78 73 75 94 91 78 82 81 92 92 69 60 55 51 59 56 51 44 57 62 100 91 64 61 56 56 56 49 51 58 56 56 54 58 62 68 44 41 41 44 52 52 52 50 53 58 60 59 57 50 40
98 34 47 75 68 78 100 95 95 81 89 90 92 72 62 59 58 73 49 45 41 55 88 84 97 90 60 63 60 58 52 62 60 60 55 60 54 73 48 39 40 48 53 51 60 56 54 52 54 58 52 42 37 34
96 30 54 74 68 82 100 82 89 93 84 87 66 56 70 74 60 56 56 58 68 65 67 73 72 82 63 62 63 61 59 60 85 59 63 68 60 47 41 36 35 43 53 60 70 72 63 59 55 41 37 36 39 41
95 27 60 78 70 85 99 97 89 83 69 67 61 68 75 66 60 52 76 75 61 71 61 67 75 77 66 74 65 61 85 76 81 77 70 67 59 46 47 47 44 45 51 54 44 42 44 44 40 36 38 41 44 45
93 29 65 78 72 79 98 94 81 68 69 66 64 68 68 58 69 76 84 67 69 67 70 73 72 66 71 67 65 71 82 78 79 71 78 74 60 55 56 57 56 51 52 50 39 38 37 38 42 46 45 46 50 52
90 28 68 78 76 80 99 94 77 70 56 55 63 88 68 77 77 74 70 73 74 66 81 81 84 71 75 69 72 72 85 80 66 81 74 64 58 52 56 62 71 67 64 53 44 42 42 46 53 54 52 56 57 54
88 26 64 80 78 81 97 98 81 61 53 78 93 71 85 82 71 72 62 78 71 74 80 73 80 70 66 74 66 80 62 64 82 86 69 68 59 53 57 61 68 75 74 75 70 53 61 63 61 59 63 62 60 57
85 26 64 82 81 81 87 100 89 64 64 94 85 82 83 65 76 78 82 83 77 69 75 75 75 60 77 81 62 76 83 88 74 69 75 76 60 61 62 64 60 62 58 55 56 66 66 60 63 64 64 67 66 64
67 56 94 84 90 81 98 100 88 72 85 93 91 84 66 76 84 83 85 83 80 72 69 68 78 80 78 74 83 86 73 74 75 85 72 54 56 63 64 63 58 54 50 46 46 53 54 55 57 65 66 68 73 76
81 90 73 83 87 92 100 94 98 100 100 100 94 71 68 81 80 67 57 53 66 70 79 76 77 68 77 79 76 66 80 80 83 73 66 64 68 72 68 65 60 55 52 53 55 53 58 65 63 70 72 65 81 82
79 64 67 83 95 100 99 98 99 100 100 99 93 82 63 51 64 61 61 68 73 75 73 79 71 77 78 72 70 74 74 80 76 70 68 68 61 67 66 64 62 60 65 62 60 63 62 69 74 60 74 74 79 71
78 64 81 92 97 97 92 100 100 99 98 92 84 76 71 68 61 64 62 66 67 64 71 77 76 82 67 66 76 88 82 73 62 67 64 63 62 69 69 64 65 63 63 65 67 58 61 71 66 72 74 77 74 69
86 81 89 98 93 98 100 100 100 100 96 87 85 90 80 80 74 73 74 76 76 82 81 83 63 51 42 42 67 72 69 68 64 63 64 63 61 73 74 68 64 64 66 66 66 68 68 64 73 76 78 79 75 69
100 94 99 100 94 99 99 99 97 94 93 84 87 87 86 90 92 94 92 84 89 90 83 62 44 34 47 48 49 56 62 59 50 47 51 66 62 68 70 67 63 62 57 56 49 58 71 68 73 78 78 70 73 77
97 95 99 99 99 100 100 95 91 87 88 89 91 85 91 95 93 93 90 94 90 80 65 55 53 52 50 57 60 63 58 58 55 57 57 60 63 72 73 73 71 67 60 65 61 64 71 73 79 78 77 74 78 75
99 99 100 100 98 97 97 94 93 94 96 95 96 90 90 92 90 88 93 86 81 69 59 57 68 72 70 67 69 67 64 57 63 60 60 50 57 59 67 68 64 77 81 80 82 84 83 86 79 79 77 77 77 77
99 99 99 98 98 96 94 95 94 91 90 93 93 89 88 88 90 93 89 68 66 65 67 77 74 80 82 83 74 68 65 56 62 58 54 56 67 64 64 60 64 65 68 79 83 86 82 76 86 80 83 88 87 86
98 99 99 97 96 94 95 95 92 93 92 92 91 87 93 92 92 91 82 75 64 66 65 73 73 62 51 51 60 62 60 59 57 60 60 52 59 70 73 69 71 73 69 78 85 88 88 84 86 89 89 90 92 90
98 98 94 90 92 89 88 94 94 91 88 94 90 84 88 90 94 87 71 54 59 62 66 70 65 65 57 51 57 64 62 55 47 51 61 55 54 64 78 78 80 81 70 75 79 84 86 87 89 86 89 90 92 94
98 97 95 74 74 82 82 73 71 80 90 87 90 95 93 91 84 70 59 66 65 63 49 51 52 54 47 56 53 50 52 55 49 46 40 47 47 48 49 65 74 57 61 69 69 71 80 86 90 90 91 91 92 92
91 87 93 93 91 82 87 82 88 85 76 71 75 94 88 77 64 70 72 70 66 65 68 60 56 50 46 59 69 70 75 61 52 49 53 59 54 48 47 48 49 52 61 66 67 71 76 83 86 88 89 88 87 89
92 84 78 96 89 86 82 78 75 65 60 70 69 60 68 72 80 78 78 79 80 91 88 88 94 75 81 80 76 72 65 63 69 76 72 70 84 71 62 63 70 66 66 72 96 81 80 88 86 84 83 84 85 86
96 82 86 90 91 87 80 77 84 87 78 74 73 74 72 79 87 84 89 98 96 89 83 80 91 77 82 81 89 90 79 64 47 48 60 64 62 47 56 65 69 70 71 74 82 84 100 98 90 83 85 87 88 92
88 87 90 83 87 88 88 88 89 78 86 89 88 90 78 88 89 92 95 94 94 96 90 93 85 79 75 77 79 83 86 72 49 42 32 31 32 40 53 60 66 70 72 76 77 78 84 85 84 86 90 91 92 96
87 88 88 92 94 95 92 94 92 91 90 90 87 90 89 91 91 90 92 97 98 94 85 82 78 82 71 70 68 53 47 51 43 36 34 34 41 48 56 62 68 71 74 78 77 79 82 84 88 91 94 94 95 95
95 93 94 95 98 100 95 94 95 95 95 93 88 91 89 85 77 84 93 95 89 88 87 82 75 74 72 66 56 44 40 37 39 42 43 43 44 52 59 66 69 74 77 77 79 83 84 87 91 94 94 95 94 94

GFSWCAN_925_rhum_084.txt.gz
RH
93 100 98 44 83 97 95 94 70 71 97 92 82 74 70 55 55 59 60 64 68 74 72 62 61 68 64 64 63 62 64 64 64 58 60 57 57 55 57 46 51 59 68 61 59 62 67 48 50 52 54 49 47 48
89 100 100 47 66 96 90 90 76 68 98 93 78 72 76 80 60 61 64 57 57 73 74 63 66 68 70 69 79 59 61 58 70 66 58 55 57 54 51 54 50 61 57 63 53 60 47 45 52 51 50 52 51 51
86 98 98 47 72 96 88 85 71 66 91 85 78 75 76 78 74 48 58 60 59 72 70 67 62 63 67 68 68 77 68 68 61 67 70 64 63 57 57 53 47 48 49 64 56 45 48 47 44 48 49 50 52 55
89 96 98 49 72 94 85 76 72 69 92 79 80 77 79 76 74 61 50 51 66 64 73 72 59 60 62 64 67 66 66 63 62 66 69 66 62 58 62 60 60 58 58 56 56 48 49 47 44 50 55 55 56 59
89 93 99 51 75 87 88 81 70 73 98 97 71 80 79 81 71 67 50 55 58 75 79 72 57 58 58 58 60 65 66 62 70 77 83 75 67 67 63 68 75 61 61 68 58 50 52 58 53 51 56 62 57 58
91 90 100 50 72 84 84 79 66 69 91 100 96 70 73 72 68 62 78 59 46 68 91 90 64 55 56 56 54 54 60 62 68 74 74 71 66 75 85 72 44 47 44 51 53 52 61 61 59 55 56 61 58 54
93 93 99 48 72 78 74 75 78 74 73 98 96 81 71 66 62 60 73 58 46 55 82 92 94 62 59 58 60 62 56 67 70 75 77 69 76 82 85 85 44 46 50 53 55 58 62 61 67 62 62 60 56 53
99 89 96 42 67 80 73 87 87 81 78 89 90 64 60 53 55 60 48 45 39 61 77 98 98 77 61 70 71 65 68 68 72 74 71 72 75 81 91 69 42 41 52 57 57 54 60 65 66 66 60 60 58 48
98 94 95 40 67 73 90 87 93 83 78 89 91 68 62 61 63 61 46 45 42 57 99 98 99 98 69 75 74 71 68 87 76 81 72 70 80 88 68 58 54 54 60 62 68 61 60 64 68 72 66 51 40 38
98 99 95 37 72 75 99 94 99 92 84 89 78 66 85 68 55 49 61 70 88 82 86 96 90 94 84 77 78 79 74 90 91 83 80 88 87 61 57 46 46 56 60 70 80 79 67 64 68 60 49 41 43 46
99 99 96 35 72 82 98 93 96 93 88 66 72 80 67 58 62 62 90 86 85 85 82 85 92 92 76 93 90 75 97 94 95 92 87 93 89 66 54 47 47 58 67 69 54 60 66 64 59 44 44 45 47 48
99 98 94 37 73 81 98 97 88 74 68 68 69 66 63 73 90 72 88 86 80 85 81 88 82 81 82 81 86 81 94 91 93 88 94 96 85 62 61 59 58 64 67 52 44 46 42 45 46 49 49 51 53 53
98 100 91 41 72 76 96 99 77 66 57 54 67 87 94 86 89 82 79 87 90 88 92 92 92 83 83 85 86 86 96 94 80 95 94 81 72 68 71 74 70 70 63 51 49 44 44 51 49 51 56 55 54 55
99 100 90 44 75 74 94 98 74 64 53 94 87 74 82 91 89 88 88 93 91 92 93 90 92 90 80 91 80 93 76 72 92 98 82 88 73 70 73 76 82 84 73 72 70 57 64 63 61 56 54 56 59 62
100 100 81 52 77 75 96 100 82 68 60 93 94 86 90 85 93 95 95 93 93 88 91 90 94 77 92 90 79 87 86 97 90 81 84 96 71 75 77 78 80 85 80 76 67 72 70 62 60 62 62 62 63 66
100 100 75 56 82 80 93 100 82 69 76 90 99 97 84 92 97 96 97 96 93 87 91 92 90 92 93 93 90 91 88 82 74 88 94 76 74 76 79 75 74 68 66 61 58 58 62 61 63 65 60 61 67 70
100 95 78 68 88 90 99 96 95 99 98 97 98 90 89 93 94 95 89 79 79 89 95 94 86 72 89 95 94 84 87 81 94 94 92 70 75 80 78 71 68 60 56 53 56 54 57 59 58 64 78 68 71 71
95 87 61 70 94 100 99 97 98 100 99 98 99 95 78 65 78 70 68 79 89 93 92 84 87 82 85 85 83 83 87 94 92 93 90 74 74 78 73 73 64 59 63 62 59 64 62 59 69 73 68 72 74 73
94 83 79 90 98 97 100 100 100 99 98 99 95 92 85 79 72 72 74 77 77 73 89 92 88 90 84 84 81 92 95 88 68 74 76 69 70 77 73 65 62 67 68 65 63 63 62 62 61 67 75 78 79 77
96 88 88 98 96 97 100 100 100 100 98 93 96 97 95 96 88 86 87 86 89 90 93 90 79 74 72 64 85 85 88 77 74 73 72 73 69 76 77 75 72 66 69 67 64 64 66 67 68 73 76 79 76 72
100 100 100 100 97 100 99 99 99 97 99 95 95 94 97 98 99 98 97 93 96 97 96 84 68 48 50 42 40 49 64 76 65 56 63 81 72 77 76 65 64 67 65 67 67 65 66 67 71 72 74 74 72 77
100 100 99 99 100 100 100 97 95 96 98 96 96 96 99 100 99 97 93 96 94 90 88 64 53 51 48 56 47 53 46 60 60 56 59 66 75 84 82 80 71 74 63 59 53 61 69 70 70 75 74 71 77 74
100 99 100 100 99 99 98 92 96 98 99 98 95 100 99 98 96 92 99 94 88 84 60 58 55 57 61 49 55 60 56 68 70 72 67 63 62 62 70 75 64 76 83 74 62 66 71 75 74 75 71 72 76 80
100 100 99 98 99 97 97 98 98 96 96 99 98 98 95 96 98 100 99 95 83 91 73 66 69 83 91 91 85 69 72 71 65 66 61 63 75 73 72 66 64 62 56 58 70 75 72 68 78 72 73 80 85 89
98 98 99 98 98 95 96 97 98 98 96 96 95 92 99 97 96 96 97 90 73 67 61 59 70 65 60 54 51 60 63 66 69 67 68 60 63 73 70 61 64 62 60 67 82 78 78 74 75 78 82 85 88 93
97 98 96 90 95 90 93 97 96 93 95 99 94 96 96 94 98 86 91 78 52 54 58 63 66 69 67 57 51 78 75 66 60 61 69 60 59 65 75 76 82 83 69 57 61 75 78 76 78 80 83 88 88 89
97 98 98 80 81 83 87 84 82 92 93 94 97 96 93 90 89 81 78 65 62 66 49 54 59 62 57 56 50 45 52 62 55 50 55 60 51 47 49 66 76 50 48 59 64 63 65 72 75 77 84 88 87 84
97 94 94 96 98 93 92 94 92 87 88 85 80 93 86 82 75 79 78 67 54 58 60 60 58 57 54 49 54 66 76 66 60 55 65 61 56 55 53 47 42 38 40 51 59 62 62 62 70 78 83 83 85 84
97 87 85 98 97 94 89 88 86 82 72 76 78 79 84 83 84 82 75 54 50 62 92 96 88 66 69 71 74 68 70 70 70 74 65 67 88 73 61 52 51 47 53 63 70 62 62 67 74 79 82 83 82 83
97 80 93 92 93 92 88 82 86 91 84 78 81 83 80 83 84 76 70 75 93 97 86 81 87 84 90 90 94 96 84 65 46 46 54 62 63 62 65 66 62 59 62 65 77 90 98 99 100 93 86 85 86 87
90 94 93 91 92 95 97 95 93 82 93 96 95 92 80 94 88 79 77 76 80 83 92 98 95 88 91 88 90 89 88 74 60 46 39 39 40 47 52 62 58 59 62 72 79 78 99 97 89 88 89 89 91 94
95 90 89 93 95 100 98 98 98 97 98 97 95 97 95 94 88 91 85 88 98 99 92 92 91 91 88 82 75 67 60 65 72 50 37 37 40 39 49 57 60 62 65 70 70 73 80 86 86 88 90 92 92 93
96 97 98 99 100 100 100 97 99 99 99 99 96 96 94 88 79 87 88 89 82 84 88 90 87 85 89 91 74 68 62 59 48 39 29 26 22 33 48 55 62 64 67 69 74 76 83 86 88 91 94 93 92 93

GFSWCAN_925_rhum_090.txt.gz
RH
88 83 86 89 92 84 44 90 96 78 91 84 77 63 58 50 50 51 63 64 65 84 78 68 69 76 75 80 74 71 71 69 77 71 72 71 74 65 61 56 51 56 73 76 74 71 54 56 57 52 44 56 54 58
86 84 85 90 90 88 40 74 92 72 90 85 90 81 65 51 45 48 55 58 56 70 71 65 63 63 68 69 80 80 73 75 81 82 79 80 70 74 64 56 55 67 59 62 61 58 44 59 46 52 58 59 55 59
87 88 84 91 87 90 39 64 86 74 78 86 80 87 80 61 43 44 50 58 63 81 79 76 71 62 66 65 66 80 83 77 76 78 85 82 74 75 71 73 56 54 62 67 55 40 56 52 55 57 55 58 60 61
87 92 82 90 89 90 55 58 79 74 74 99 84 85 86 75 55 42 46 52 62 82 80 75 59 62 60 63 66 65 70 72 77 86 84 83 80 71 75 66 73 60 64 65 68 58 55 52 61 62 62 66 67 64
90 93 81 90 87 90 79 51 70 77 71 98 100 95 89 82 68 50 42 45 56 68 81 79 67 59 58 59 62 69 74 79 86 83 89 82 84 81 82 82 90 74 70 65 59 49 50 52 60 64 72 73 72 69
88 90 83 90 86 90 87 47 64 72 69 91 98 98 92 75 69 70 72 55 43 62 90 86 74 62 58 57 59 60 70 75 84 84 85 87 76 75 87 90 66 66 66 57 49 56 59 62 62 62 69 73 73 71
86 88 84 89 89 94 88 47 64 68 66 74 86 87 69 63 66 63 63 44 40 55 84 84 92 75 61 62 73 76 70 81 81 85 88 84 82 85 90 91 55 60 61 62 59 67 64 66 65 70 71 68 62 60
92 87 84 88 96 92 91 47 64 67 76 68 79 78 64 59 59 60 54 44 42 58 83 94 91 80 68 79 79 83 80 85 82 82 86 81 82 89 94 75 66 54 60 63 69 60 60 74 77 75 70 66 66 62
94 86 83 86 92 90 88 47 63 75 90 81 84 72 63 65 68 71 61 54 48 55 85 96 82 77 79 84 87 83 84 88 85 86 86 81 84 89 68 63 60 67 66 66 74 78 81 77 80 78 74 72 66 53
97 86 83 84 88 88 85 53 76 88 94 94 85 69 84 69 64 57 63 72 85 84 93 92 94 92 85 89 85 88 89 94 91 82 86 94 90 71 65 66 58 58 62 75 75 80 79 82 86 84 78 66 50 47
98 89 85 87 88 93 75 69 92 91 99 88 79 87 68 60 61 74 84 78 83 80 85 84 94 92 86 89 90 88 94 96 92 83 87 90 89 79 67 69 66 65 67 71 58 59 71 71 82 83 67 52 48 50
100 90 88 87 93 94 65 93 100 93 83 68 66 63 63 77 86 70 85 86 87 79 89 90 89 86 87 88 90 88 88 91 90 91 96 95 79 67 74 65 68 74 77 71 62 69 68 68 70 64 53 54 52 51
100 95 91 86 97 98 66 97 97 73 67 58 64 81 83 84 81 81 74 86 94 91 96 96 94 83 86 88 93 87 90 94 84 95 91 81 68 68 75 70 74 78 70 61 60 62 58 58 51 48 56 52 53 53
100 100 95 88 98 96 70 95 95 70 53 84 79 74 81 91 92 85 81 83 82 92 96 92 96 93 89 91 87 81 76 79 93 100 73 82 63 70 77 76 77 76 65 71 71 60 64 62 58 51 50 53 52 57
100 100 99 94 99 96 76 98 95 62 60 83 88 84 90 83 94 94 96 93 95 92 92 91 94 82 96 91 88 87 91 93 86 72 78 78 67 76 76 82 81 80 68 64 64 72 70 64 64 64 56 55 57 60
100 100 100 100 100 94 83 99 89 65 73 92 98 99 90 93 95 99 97 91 96 92 96 90 95 93 90 92 93 92 84 76 66 86 82 82 69 70 79 84 85 81 71 65 62 61 63 65 64 59 65 60 62 61
100 97 97 100 100 90 96 97 94 99 100 100 99 92 88 89 89 92 81 79 89 88 89 93 83 70 88 98 98 85 84 76 79 83 91 84 73 69 77 84 87 87 80 69 63 60 60 57 58 67 73 68 66 69
99 98 97 100 100 100 99 99 99 100 99 99 99 97 88 81 85 92 86 93 92 94 90 82 85 87 85 82 84 81 84 90 92 88 90 73 74 79 78 84 81 83 84 75 65 62 64 69 74 71 60 66 72 75
99 96 100 100 97 99 100 100 100 99 97 99 100 98 86 81 75 78 83 86 90 88 90 93 83 84 72 78 74 83 91 87 54 46 61 65 68 76 78 78 75 77 78 77 74 73 69 61 57 58 63 70 71 73
100 99 100 100 96 99 99 100 100 100 99 97 99 95 92 89 82 85 89 87 88 92 91 92 74 62 59 62 77 74 84 76 66 51 48 63 68 75 84 84 84 74 74 72 69 68 65 68 63 62 64 68 75 69
100 100 100 100 100 100 100 99 99 99 99 98 99 93 94 97 95 95 92 90 90 94 94 75 54 37 55 53 49 59 62 70 61 44 34 61 60 74 83 83 77 78 80 79 77 78 71 69 60 62 70 77 67 64
91 100 99 100 100 99 100 100 97 98 97 98 98 97 100 100 98 96 93 94 96 70 76 50 48 46 53 64 59 56 44 47 53 57 59 60 71 95 96 90 91 88 79 75 69 69 73 59 57 65 68 68 75 66
99 99 100 100 99 99 99 99 96 98 97 98 97 98 100 99 95 92 95 93 87 79 57 58 57 55 66 55 62 57 53 57 58 59 55 58 59 61 66 80 84 84 86 80 67 63 63 61 72 67 67 73 66 67
100 100 99 98 98 98 98 98 97 97 97 97 96 96 97 98 99 100 98 96 90 90 78 71 64 67 79 91 81 66 61 68 64 59 56 67 78 78 73 77 82 80 74 69 70 62 61 70 77 77 68 68 68 72
98 98 98 98 98 96 97 97 97 97 96 97 98 100 100 99 100 100 100 92 86 64 69 72 79 74 74 68 65 65 62 66 78 76 64 71 64 80 87 80 80 78 74 72 81 75 74 70 81 74 69 69 72 77
98 98 96 94 97 90 94 97 96 96 95 97 94 96 98 95 98 87 85 84 52 53 66 74 69 75 78 71 66 66 62 63 67 80 64 69 75 73 82 88 94 94 78 66 68 78 81 78 79 74 76 76 78 77
97 97 98 89 84 83 86 87 84 92 95 95 97 97 89 85 85 78 75 73 72 73 52 56 63 67 62 67 66 62 59 56 59 64 57 57 60 63 67 76 81 69 72 68 56 53 67 77 78 80 75 69 77 85
98 98 94 95 93 92 94 96 95 89 90 88 80 95 88 80 77 76 74 66 57 49 41 44 49 52 56 53 53 56 65 70 73 72 68 69 70 72 72 67 62 57 58 65 55 51 50 51 70 76 68 66 70 73
99 93 88 99 96 92 89 90 87 82 75 80 79 85 86 83 82 78 80 59 63 59 83 83 63 63 66 70 69 66 63 78 85 86 85 88 94 80 73 67 60 68 73 76 62 49 43 44 58 57 57 61 67 74
98 83 95 92 93 90 86 80 87 88 86 76 76 85 82 85 77 57 60 74 79 79 64 53 50 70 82 89 93 94 79 74 71 71 83 80 80 64 72 72 79 76 82 76 71 71 82 83 84 71 70 76 79 83
91 94 95 94 92 94 96 96 93 80 91 92 91 84 77 94 83 69 63 54 51 55 64 77 82 74 80 90 88 90 88 77 74 71 63 56 55 60 71 73 76 86 74 75 69 89 95 87 75 77 81 82 84 88
97 94 93 96 96 96 96 95 94 92 94 89 89 100 93 89 83 85 52 69 80 88 76 69 81 73 60 60 60 56 51 50 54 69 73 69 60 60 75 76 69 73 73 71 84 93 82 79 80 80 81 84 88 91
95 94 95 95 98 98 97 92 95 95 97 96 94 95 94 87 76 80 55 51 51 55 61 60 55 58 58 54 55 60 66 65 58 61 68 72 70 66 80 76 71 71 72 79 85 84 78 75 77 78 80 85 89 92

GFSWCAN_925_rhum_093.txt.gz
RH
93 84 81 78 85 87 90 56 67 76 81 89 68 78 79 66 60 53 59 57 56 82 78 73 69 74 79 82 77 71 71 70 78 74 74 75 77 70 71 57 52 52 69 77 77 74 53 59 58 48 39 58 54 60
92 87 82 81 82 87 90 55 68 68 73 77 71 70 78 74 55 60 55 56 54 65 68 65 63 60 63 68 80 81 72 77 83 84 84 85 74 79 68 63 51 68 59 56 64 57 43 62 43 52 59 59 56 58
91 86 85 85 81 85 90 75 64 72 67 80 77 72 74 71 52 54 56 64 60 80 81 78 76 60 65 64 64 79 85 78 81 81 86 86 84 79 77 77 60 57 65 70 57 39 58 56 56 56 62 56 57 59
93 87 89 87 79 85 88 90 54 70 73 83 98 83 80 75 59 46 49 58 67 77 79 73 63 63 60 62 66 65 70 75 79 88 86 87 83 73 80 66 74 58 67 68 72 62 59 57 61 62 61 65 65 65
95 91 87 91 80 86 86 92 57 67 73 91 97 96 89 84 70 57 45 46 56 70 78 77 70 61 61 62 67 71 73 82 89 89 93 88 85 84 87 87 94 76 69 64 59 50 47 43 53 65 72 72 72 69
95 96 89 91 81 86 85 90 68 64 72 82 97 94 93 83 71 68 74 62 46 70 89 87 73 67 62 62 63 73 80 82 86 88 87 88 82 76 88 90 67 72 68 57 48 48 58 61 60 66 69 73 74 70
97 96 86 87 82 83 87 89 75 63 67 76 84 98 75 64 66 69 68 52 44 57 84 82 89 78 64 65 76 80 74 84 84 86 92 87 83 86 92 89 52 57 63 63 57 64 62 67 64 70 71 73 70 65
100 99 91 86 85 84 91 89 79 64 67 76 84 91 70 63 62 64 58 49 46 59 80 90 87 78 70 81 81 87 84 86 86 84 88 88 85 92 97 79 71 63 61 62 68 66 60 71 79 78 75 70 69 66
100 100 99 92 88 84 89 87 83 62 73 89 91 89 70 67 68 64 66 56 51 53 83 94 83 77 80 87 89 86 87 90 86 90 88 84 89 94 75 68 61 57 61 57 74 74 77 74 81 81 75 73 71 65
100 100 100 99 89 86 86 88 82 62 91 98 96 76 87 71 67 60 67 71 86 80 93 91 93 92 86 90 87 89 91 94 93 85 88 97 93 71 69 68 71 68 66 79 77 82 81 80 84 83 78 74 68 56
100 100 100 100 92 87 88 91 73 79 100 99 88 91 74 64 63 74 85 84 85 83 88 85 93 92 86 89 89 89 94 96 93 85 90 93 90 76 64 72 72 69 75 73 64 59 73 73 81 83 80 69 50 48
100 100 100 100 97 89 89 93 66 98 93 83 74 66 64 76 87 75 88 85 91 78 93 93 94 86 91 89 91 91 90 92 89 91 96 99 80 62 66 68 70 81 77 78 62 63 72 68 78 80 70 56 50 48
99 100 100 100 100 94 92 88 76 98 84 68 64 80 86 85 83 92 88 87 99 93 97 97 97 86 91 89 93 88 93 95 85 96 93 84 66 60 64 76 70 77 75 72 68 68 66 71 71 63 58 49 51 54
100 99 100 100 100 97 96 84 99 85 60 80 80 80 85 94 94 86 85 86 85 94 93 91 98 89 90 93 87 84 77 81 96 100 76 80 56 48 70 78 76 76 73 75 76 69 71 69 63 50 47 51 52 55
100 100 100 100 100 98 100 91 99 74 62 80 84 85 90 81 94 95 95 95 97 92 94 91 94 82 98 92 90 87 92 96 89 77 79 77 47 65 70 75 81 80 76 69 70 78 74 66 66 64 55 52 49 54
100 99 100 100 100 100 100 98 100 85 85 89 98 99 89 93 92 96 99 90 97 90 95 90 95 91 88 90 96 90 85 83 72 86 82 72 58 64 65 75 83 83 79 68 62 62 64 67 68 62 59 57 57 56
100 98 95 97 100 100 100 98 98 100 100 100 99 94 91 93 92 90 84 76 91 88 86 94 83 70 90 97 95 85 85 77 80 81 91 74 60 55 65 74 83 85 82 71 64 62 60 59 60 65 83 66 62 61
100 93 90 95 100 100 100 100 100 100 99 98 99 98 84 77 90 88 77 90 88 92 88 75 85 87 85 79 84 83 87 90 91 88 90 69 63 65 70 74 77 82 85 77 66 62 64 67 76 75 62 61 68 72
98 96 88 100 99 98 100 100 100 99 98 99 98 99 89 85 81 82 83 80 90 86 84 92 86 83 70 81 82 89 92 87 56 56 67 61 55 57 65 70 75 81 86 85 79 74 70 64 62 60 57 63 73 71
82 94 100 100 99 99 99 100 100 100 99 98 99 98 93 91 85 86 87 86 91 93 95 94 74 51 62 63 83 80 82 69 60 50 49 50 55 61 74 76 84 78 82 85 81 77 73 73 65 59 56 60 70 73
89 95 100 100 99 100 100 99 99 99 99 98 97 93 96 97 96 97 96 88 90 94 93 73 47 41 53 50 48 58 60 69 62 51 43 44 48 58 67 68 73 83 88 85 87 86 78 72 66 59 63 69 66 66
94 96 99 100 100 100 100 100 100 98 97 98 98 94 100 100 99 97 94 97 93 75 76 52 48 47 47 55 50 60 49 51 54 56 56 54 59 87 87 81 94 90 88 81 78 77 76 71 59 57 62 66 73 64
98 98 100 100 99 98 98 100 98 98 98 98 98 98 97 100 97 91 96 91 84 84 60 56 54 52 59 52 57 60 57 64 67 65 59 58 55 57 62 62 72 81 88 87 79 75 75 70 70 63 62 74 71 68
99 100 99 98 98 98 98 98 97 97 97 97 97 97 97 99 99 100 98 95 94 91 71 67 62 62 65 88 70 63 61 70 70 67 64 66 75 67 70 68 71 72 70 68 80 80 74 77 73 76 70 73 73 68
99 98 99 98 99 97 97 98 98 98 96 96 97 96 96 97 100 100 99 95 94 83 74 68 69 68 70 66 64 65 60 65 77 77 68 71 71 72 78 80 78 78 77 80 89 85 82 76 84 77 74 74 75 73
97 98 96 94 96 92 95 99 98 96 96 97 94 94 97 96 97 93 89 85 63 56 62 63 64 77 78 70 66 67 63 63 69 85 69 68 77 79 82 90 90 87 85 78 80 85 87 83 86 78 77 74 75 72
97 97 98 98 87 87 91 87 84 93 95 94 97 97 94 95 88 80 81 73 61 67 51 53 64 68 63 67 68 63 58 55 60 66 56 59 61 62 69 82 84 68 62 76 79 76 78 83 83 79 76 73 73 75
94 96 96 95 92 94 95 98 96 91 90 87 81 96 88 81 78 78 77 68 59 54 50 54 58 60 63 64 56 55 69 69 68 68 67 66 66 64 64 68 70 68 62 68 78 75 69 68 72 72 72 74 74 74
99 98 89 96 95 94 92 89 88 83 80 82 80 87 84 88 86 82 77 57 59 63 92 86 78 70 68 69 67 65 59 70 86 87 84 82 92 67 64 69 75 73 71 79 87 72 63 56 55 55 63 62 59 71
98 90 94 94 95 94 87 84 91 92 89 80 78 87 87 90 78 55 59 79 83 80 68 62 61 77 81 85 84 88 75 69 70 69 76 73 74 54 60 72 75 77 80 84 86 82 83 81 85 80 69 68 69 77
92 93 94 91 94 93 95 96 95 81 92 93 92 85 69 90 79 53 58 58 61 61 65 75 82 69 74 85 84 78 75 58 66 65 63 64 58 55 61 70 73 78 86 90 84 90 93 90 80 77 76 80 80 82
100 95 94 100 97 96 98 96 94 91 96 92 92 96 92 88 83 82 51 66 74 84 70 63 74 65 41 40 45 43 39 43 42 46 61 74 69 59 60 71 77 83 91 88 86 90 83 80 82 80 80 80 83 82
96 95 97 95 98 99 96 95 97 97 98 98 96 93 90 85 76 78 58 53 53 54 57 57 48 46 50 49 46 44 47 52 57 55 54 67 69 59 64 75 83 88 89 90 88 81 78 73 77 78 77 77 84 84

GFSWCAN_925_rhum_096.txt.gz
RH
100 96 84 80 78 80 82 86 68 64 77 85 80 65 72 73 57 59 62 68 70 75 75 78 73 78 84 86 75 67 67 70 76 70 74 75 80 73 75 61 51 52 64 76 79 77 55 59 57 45 38 57 55 62
100 98 85 78 81 81 84 85 84 47 72 77 82 71 66 70 53 58 58 60 62 70 69 68 63 60 61 62 80 82 69 74 80 84 86 86 79 83 71 64 56 68 56 48 63 58 41 62 47 50 56 56 55 58
100 100 90 73 79 82 83 83 88 50 57 73 86 80 71 71 61 50 56 63 60 79 79 75 73 58 61 64 66 76 86 78 85 80 88 86 84 82 80 84 64 58 66 68 58 42 60 57 59 60 62 57 53 56
99 100 100 82 79 85 83 87 86 77 51 67 99 98 82 74 71 50 50 57 70 78 81 73 66 63 61 62 66 69 73 78 83 88 86 88 85 71 77 67 70 55 69 68 76 62 61 59 62 57 66 63 64 65
99 100 100 98 85 86 84 89 86 88 52 60 86 99 97 84 73 67 65 50 60 73 81 76 69 66 64 65 68 72 72 82 90 90 94 89 86 83 88 90 96 76 66 64 56 47 44 41 50 62 69 72 73 72
100 100 100 100 94 89 84 89 86 88 56 61 68 98 98 96 78 66 76 71 50 68 90 87 74 70 68 68 70 78 83 86 88 89 89 90 82 79 90 92 67 75 69 59 50 50 56 56 63 63 68 70 74 72
99 100 100 100 98 90 83 85 88 86 58 61 67 86 97 70 66 69 72 52 44 58 83 83 87 79 67 68 81 85 78 85 87 87 95 88 84 88 92 92 58 58 63 66 70 61 61 64 58 69 66 72 71 67
99 99 100 100 100 91 87 85 94 87 60 60 67 87 92 76 69 68 65 58 47 58 80 86 83 78 71 84 84 89 88 89 88 88 90 90 87 94 98 78 71 68 69 70 69 74 62 68 72 76 76 79 74 72
95 100 100 100 100 99 92 87 96 92 60 67 86 93 87 77 76 68 71 65 57 55 85 93 85 77 83 89 90 90 88 93 87 92 91 87 91 96 75 74 69 64 56 55 67 76 75 74 77 80 78 76 75 72
91 91 100 100 100 100 98 91 99 88 64 94 96 87 92 72 70 66 72 77 87 82 92 92 91 91 87 92 91 92 92 93 94 88 91 99 94 71 68 70 69 68 72 72 76 82 82 78 84 85 83 78 74 70
93 97 99 100 100 100 100 95 100 74 96 97 95 95 75 71 67 74 88 87 87 85 86 88 90 95 86 90 90 88 94 96 97 88 94 95 94 80 63 66 69 73 76 80 74 63 73 72 82 84 84 81 73 62
100 99 100 99 100 100 100 97 100 84 90 82 78 72 69 76 89 81 91 86 90 81 89 93 89 86 90 91 92 97 94 94 95 92 98 99 83 65 61 61 61 72 81 85 83 71 66 77 76 82 82 81 62 50
97 100 100 100 100 100 100 98 100 85 89 79 68 80 86 84 90 99 99 92 98 91 97 98 97 87 91 90 93 92 96 97 87 99 94 84 66 59 59 62 72 73 76 78 72 65 66 68 74 78 77 63 48 50
87 98 97 100 100 100 100 100 100 93 90 92 87 86 88 95 94 87 88 85 83 92 95 94 97 93 90 95 89 88 81 83 98 100 83 84 63 45 53 69 76 67 71 82 83 73 77 81 80 68 63 53 52 58
97 97 88 100 99 100 100 100 100 100 92 98 89 89 91 80 93 94 94 92 94 90 88 92 94 84 96 92 90 86 92 98 92 80 81 81 49 46 59 64 77 77 78 74 72 81 84 74 71 65 54 51 50 51
85 97 97 87 86 99 100 100 100 98 100 99 97 98 89 92 94 100 97 95 95 85 92 87 93 89 86 90 96 90 86 83 75 88 86 68 47 55 58 60 73 80 81 76 66 65 66 70 69 63 59 55 51 49
82 97 96 86 85 100 100 99 100 100 100 100 98 92 91 94 92 91 87 82 84 83 85 89 80 69 90 97 95 84 85 78 83 84 92 71 50 47 54 60 71 80 83 79 68 63 61 59 61 65 82 63 56 53
96 88 88 86 87 100 100 100 100 100 99 99 99 98 91 80 90 87 80 87 85 88 82 79 84 85 84 78 81 82 88 90 88 80 81 62 61 59 60 61 63 75 81 80 71 64 64 71 79 72 63 57 63 67
88 83 84 90 97 96 100 100 100 98 96 99 97 99 92 86 83 83 81 80 88 81 84 93 83 84 70 77 81 84 89 87 57 54 62 62 59 61 56 58 64 73 80 84 84 78 71 65 63 63 63 64 75 70
92 90 87 90 100 99 99 100 100 99 99 98 98 99 97 95 87 88 86 88 90 91 94 96 76 62 63 65 79 73 72 66 63 48 45 48 47 51 62 63 70 63 74 80 86 83 76 76 69 63 63 67 73 73
79 81 71 81 100 99 100 99 99 99 99 98 98 93 96 98 99 96 97 87 94 97 95 82 66 44 52 52 49 58 57 62 57 49 39 57 52 50 56 54 54 68 88 85 89 89 88 81 73 71 68 75 62 56
81 78 91 100 100 100 99 100 100 98 98 98 98 96 98 98 99 98 94 98 94 77 82 70 59 52 50 50 50 56 44 50 50 54 55 58 60 70 69 66 80 82 82 76 77 78 81 83 77 72 69 68 70 64
96 98 100 100 100 98 97 100 99 98 98 98 99 98 97 98 97 91 97 93 83 86 64 66 64 60 61 51 56 54 50 55 54 60 56 57 59 60 66 63 65 76 77 74 75 78 81 80 79 79 72 79 74 72
100 100 99 98 98 97 99 98 98 97 97 97 97 97 97 97 98 98 97 81 67 93 75 71 70 69 65 67 66 60 58 64 67 63 60 67 71 68 67 66 68 71 68 64 69 79 80 81 81 84 78 80 78 75
99 98 99 98 99 97 99 98 98 97 96 97 97 97 96 97 96 96 98 96 83 81 74 71 69 68 69 65 64 64 57 65 75 77 67 74 72 74 78 73 71 70 70 77 87 86 88 85 84 84 81 78 80 77
98 96 95 91 98 94 95 98 98 98 97 99 95 96 98 96 96 92 92 82 62 64 68 67 65 69 70 68 67 66 64 68 69 78 68 68 77 77 80 84 84 79 68 75 83 90 91 88 91 84 82 77 76 76
97 97 99 94 89 91 94 88 86 94 98 94 98 97 95 96 95 84 86 80 54 58 53 53 61 66 63 64 67 64 61 59 67 68 59 58 61 62 69 81 84 65 58 66 82 82 86 90 90 85 81 79 76 75
94 97 98 96 94 96 93 98 96 99 91 90 88 100 95 89 80 79 76 72 61 57 50 52 59 62 63 62 61 63 70 65 67 69 65 64 62 60 60 64 65 67 67 64 69 82 81 80 85 84 79 76 78 72
99 95 90 98 97 96 92 91 90 88 83 88 88 90 86 87 88 86 80 61 60 62 87 86 84 74 71 67 62 60 59 78 86 87 80 76 88 62 52 60 65 74 73 71 86 80 78 77 80 79 71 67 68 65
93 91 96 98 95 95 89 88 92 93 90 83 81 87 88 88 80 48 55 64 86 80 70 67 69 84 86 86 87 88 72 63 65 65 69 67 72 48 48 54 64 72 76 76 86 92 90 86 86 87 72 71 71 76
92 96 98 96 95 94 93 97 97 84 94 96 95 86 64 84 80 49 51 51 58 64 72 83 87 80 83 86 84 82 80 62 62 59 63 58 52 50 51 55 63 75 81 82 86 88 92 95 90 81 74 79 80 84
100 93 96 100 99 95 99 97 96 95 96 96 91 97 92 87 82 79 39 53 77 85 73 67 76 69 50 49 52 44 30 32 36 41 53 66 68 64 60 61 70 76 82 86 90 95 94 86 83 79 79 76 80 77
96 97 99 98 97 99 98 95 98 94 97 96 94 93 90 75 66 64 51 45 49 51 57 58 52 48 42 37 38 36 37 37 44 48 46 48 57 66 63 65 73 80 85 93 96 93 84 76 75 72 71 73 77 74

GFSWCAN_925_rhum_099.txt.gz
RH
100 98 99 93 82 85 79 84 85 77 54 72 77 72 72 71 57 57 59 61 67 79 73 77 68 75 85 84 72 59 61 65 75 65 70 73 80 72 76 65 53 51 68 79 82 80 54 58 59 44 36 52 55 66
100 99 98 97 81 83 84 80 83 86 50 62 75 83 75 73 66 54 58 63 62 72 71 64 63 61 61 63 81 82 65 71 76 76 81 84 80 86 70 58 60 63 51 45 57 51 39 63 46 51 48 52 56 58
99 100 99 98 91 77 88 83 82 84 75 50 66 91 90 78 75 59 54 65 66 83 80 74 71 62 63 63 61 75 85 82 82 83 86 85 83 83 81 86 65 59 66 66 55 41 58 53 52 63 60 57 50 56
97 100 100 99 99 87 84 86 85 83 87 53 60 86 95 96 85 74 60 55 72 80 84 74 66 67 64 64 66 67 73 82 83 89 85 87 84 71 76 67 71 53 69 68 74 60 56 53 59 55 63 64 57 61
100 100 100 99 99 99 89 90 82 83 87 65 61 82 96 95 90 78 70 66 54 76 86 84 68 69 68 70 70 70 71 83 89 89 93 89 88 84 87 91 97 75 66 60 54 47 42 41 41 56 66 67 71 71
96 100 100 100 100 99 95 92 87 88 85 81 59 69 91 95 85 69 78 70 50 63 91 87 73 74 74 74 76 81 82 88 89 90 91 90 84 82 91 94 71 78 69 57 48 47 54 53 61 60 62 70 72 75
92 96 100 100 100 100 100 94 87 85 86 82 56 71 93 85 68 70 77 58 47 56 81 84 86 80 70 72 84 87 85 89 88 89 96 89 86 90 94 86 57 62 66 67 68 62 66 63 60 59 65 67 71 70
86 91 94 100 100 100 100 95 90 89 92 81 61 74 97 89 74 67 64 70 58 56 79 88 82 74 74 86 86 92 91 91 90 89 92 94 91 95 97 76 67 56 60 70 72 75 66 65 66 70 75 84 79 78
90 85 84 88 94 100 100 100 94 91 97 71 72 93 97 87 79 71 76 73 63 61 84 93 86 76 84 92 92 91 90 96 90 94 94 90 92 98 79 75 70 69 66 53 59 66 75 81 75 77 81 82 78 80
71 94 100 96 98 98 100 100 100 96 99 78 98 98 96 77 75 74 78 80 88 84 92 92 91 85 88 94 94 93 94 95 96 88 93 98 91 74 68 72 68 65 68 66 70 77 79 82 82 81 85 80 79 79
59 70 99 100 96 100 99 100 100 100 89 100 99 98 83 80 70 76 90 91 90 90 87 89 85 92 88 90 91 89 95 96 99 89 97 95 95 83 69 69 72 72 73 78 76 71 66 70 75 81 83 82 78 73
56 60 86 99 99 100 100 100 100 98 90 86 82 78 73 76 90 85 93 90 93 86 91 91 89 85 92 91 91 98 94 97 99 94 100 98 86 69 66 55 53 62 68 77 80 82 81 72 74 79 81 83 77 66
60 58 69 92 100 99 100 100 100 97 94 93 86 84 89 87 95 100 98 97 97 92 97 98 98 89 96 92 95 93 98 96 89 99 96 85 69 63 58 58 60 67 76 80 74 80 72 65 70 77 81 74 69 60
82 73 76 84 98 94 99 100 100 100 96 100 99 98 94 96 95 90 89 88 86 94 95 94 98 92 90 96 89 92 84 86 100 100 89 86 67 56 48 64 72 64 68 82 87 76 73 78 80 76 74 68 61 57
73 80 86 82 87 88 81 100 100 99 97 100 99 95 96 82 93 94 95 88 91 87 88 90 94 84 96 95 91 87 95 99 91 81 83 83 60 47 50 56 64 73 74 74 73 82 86 80 80 71 70 64 56 51
78 86 80 62 66 80 81 100 100 100 100 99 99 100 90 92 94 98 96 92 93 84 86 88 92 93 86 91 98 92 85 82 74 88 85 74 48 49 54 54 60 72 76 75 70 67 67 73 76 70 63 59 53 49
83 96 77 78 84 82 85 100 98 100 99 99 98 94 92 94 91 92 80 81 86 79 88 90 89 73 90 97 95 85 84 79 80 84 91 75 50 48 54 54 59 73 80 78 73 66 62 59 63 69 79 62 55 51
100 92 81 89 86 99 100 99 100 99 98 98 99 97 92 82 90 90 83 88 86 89 88 87 84 85 85 82 82 79 82 87 90 80 79 63 60 57 57 55 54 64 74 77 76 72 68 72 80 72 66 57 60 60
90 79 74 78 91 97 100 100 100 98 96 99 99 97 93 88 86 83 83 84 89 82 90 94 85 87 76 78 77 86 90 83 54 54 65 60 56 59 59 54 55 61 70 76 82 81 74 68 65 63 63 64 69 68
74 75 76 88 99 99 100 99 100 99 99 96 99 98 96 92 89 88 87 91 94 98 98 97 83 65 60 60 78 79 80 64 57 50 46 45 50 57 66 62 62 54 60 66 73 80 82 80 73 67 65 68 71 72
73 75 68 80 100 100 100 99 99 98 99 98 98 93 97 98 100 98 95 92 98 98 97 86 71 58 55 53 49 62 61 57 50 41 37 54 46 47 49 53 53 56 75 72 76 75 79 87 73 74 74 75 71 64
81 76 82 91 100 100 99 100 99 100 99 99 99 98 99 100 99 97 94 97 97 81 75 63 62 64 62 57 50 49 46 50 50 50 48 50 52 68 68 61 76 74 74 68 66 66 68 74 75 77 77 74 78 70
85 91 97 100 100 99 95 99 99 99 99 99 99 99 98 98 97 92 96 96 80 62 63 64 64 67 66 56 56 55 55 58 53 52 52 52 48 50 53 59 66 76 78 72 68 70 73 68 74 85 80 80 84 80
98 100 99 98 98 97 98 99 99 98 98 98 98 98 97 100 97 98 96 90 66 70 66 67 65 70 69 71 72 65 62 66 66 60 56 64 70 61 60 63 62 68 69 64 67 72 72 77 81 86 86 90 86 81
99 98 99 98 99 96 99 97 97 98 98 100 97 96 97 98 96 96 96 87 67 71 68 67 69 68 67 62 61 63 60 65 71 71 68 69 64 66 76 74 73 72 68 72 84 83 82 81 87 90 89 90 88 83
97 96 96 92 97 94 95 99 99 98 98 100 95 95 97 96 96 93 91 70 61 63 66 67 65 65 65 64 67 66 62 65 69 78 69 72 78 77 80 88 87 82 65 71 77 87 89 89 93 93 92 88 86 83
98 98 99 95 93 93 96 89 88 95 100 97 99 99 96 96 94 85 89 86 64 74 56 56 60 65 63 60 60 63 61 60 67 70 63 64 67 69 72 83 83 65 55 56 67 77 84 91 94 92 91 88 84 82
95 97 96 96 97 94 94 99 96 100 92 90 90 100 95 90 82 82 81 69 48 48 55 58 63 63 64 64 62 62 67 70 73 75 70 65 64 61 68 71 72 66 59 58 60 68 78 81 88 90 88 87 84 78
98 96 93 98 96 96 95 92 92 91 84 91 89 90 88 88 89 87 83 48 53 59 86 84 67 69 72 71 70 68 63 79 88 87 82 74 87 62 53 58 60 71 74 70 68 68 75 79 81 84 84 82 79 74
93 94 95 95 95 95 89 89 91 92 91 84 82 88 87 79 73 46 50 56 74 68 62 58 59 83 88 89 87 83 76 75 75 70 74 68 66 41 40 44 51 63 74 77 82 96 98 96 96 96 87 86 85 80
92 88 97 98 96 94 91 97 98 86 94 98 97 89 68 69 77 48 51 52 56 59 74 74 79 80 83 87 87 80 80 69 64 64 60 52 44 41 42 44 49 59 74 80 87 92 97 99 97 94 90 88 83 81
97 95 100 100 98 96 99 100 99 98 97 100 83 99 95 91 87 55 42 53 72 72 67 63 66 63 65 56 54 50 46 39 42 46 55 58 59 54 49 50 56 66 79 84 90 95 95 94 95 90 86 81 86 81
98 96 96 99 99 100 100 96 99 100 100 100 93 76 71 79 78 60 48 43 51 54 54 55 57 53 53 51 50 46 46 48 39 40 40 40 44 56 58 59 64 74 82 89 93 94 94 91 87 82 80 83 85 81

GFSWCAN_925_rhum_102.txt.gz
RH
99 99 98 99 95 85 81 82 84 83 84 50 70 79 72 68 62 55 61 60 67 62 57 65 60 62 70 64 51 52 56 57 58 49 48 45 52 46 56 45 39 37 44 50 54 58 52 41 54 37 25 31 41 50
99 99 99 100 98 93 77 80 86 86 84 71 59 85 91 74 71 51 59 61 61 65 60 60 61 58 57 56 55 69 54 58 54 48 56 56 53 59 46 32 47 44 32 28 37 29 31 42 36 34 32 36 43 45
97 99 97 100 99 97 90 79 85 85 84 86 54 74 94 90 81 68 51 57 67 68 62 64 59 62 64 64 60 58 67 65 70 65 55 59 59 53 49 51 50 42 43 41 40 27 36 32 29 39 40 40 40 43
81 99 99 100 99 99 98 87 85 85 84 85 74 65 95 96 87 83 71 60 64 73 74 60 63 66 64 65 67 68 69 78 71 69 64 61 58 52 48 45 46 29 47 40 42 34 32 32 35 33 35 42 45 45
66 88 97 100 100 100 100 98 90 88 83 82 87 59 87 96 96 87 78 71 58 70 70 67 68 73 70 69 72 71 73 70 70 76 76 70 62 64 60 68 63 43 40 41 34 26 27 27 33 45 46 46 48 48
66 80 89 92 100 100 100 100 98 91 85 83 84 64 71 99 98 83 73 67 53 67 75 72 70 72 79 80 78 76 74 72 72 71 70 68 71 64 69 64 46 48 40 31 31 34 34 37 43 46 47 46 50 53
66 81 86 90 96 100 100 100 100 98 89 87 84 68 65 92 82 77 74 64 49 59 70 79 78 72 72 74 78 75 82 74 72 74 79 72 71 78 76 61 39 43 45 44 44 48 49 50 45 51 54 55 62 61
62 68 92 92 93 96 97 98 100 100 95 92 90 65 74 93 95 80 71 69 67 59 74 88 84 64 73 75 75 79 76 76 76 72 77 79 77 79 86 57 52 50 47 49 47 50 46 54 57 55 63 66 65 62
61 67 85 94 90 88 88 98 99 100 100 100 84 72 87 100 88 77 80 80 74 67 86 84 83 78 76 79 77 81 75 84 75 79 77 78 75 95 69 57 55 55 58 54 55 57 57 62 59 61 63 66 65 62
55 56 64 92 99 100 100 100 99 100 100 99 84 96 98 84 80 81 79 78 81 80 81 86 79 78 77 82 82 81 81 78 91 72 79 89 80 63 57 56 56 54 56 57 64 69 68 72 67 62 66 61 62 62
55 56 56 67 85 98 98 99 100 100 100 94 98 97 85 85 77 73 84 88 83 89 80 80 80 79 76 82 78 76 88 86 93 81 87 83 81 68 58 57 55 56 55 56 54 55 54 57 63 64 67 66 66 66
55 55 56 58 73 85 93 97 100 100 90 90 89 84 78 76 84 89 91 84 92 87 80 82 76 72 80 79 76 90 85 90 96 80 95 94 75 62 58 57 57 54 54 53 58 59 61 62 64 67 68 68 70 70
66 62 64 63 67 78 98 93 99 100 98 97 96 97 97 90 97 100 98 96 94 82 87 88 88 78 89 84 83 82 99 94 77 92 86 70 59 53 49 49 50 61 65 69 68 72 73 70 68 71 71 73 73 73
63 62 66 66 66 64 84 92 100 100 91 99 100 98 95 97 92 88 83 82 75 80 86 81 88 82 81 86 79 91 75 79 96 99 84 74 61 50 48 48 53 53 67 78 79 72 75 77 74 70 71 69 73 66
62 62 60 67 60 59 62 84 100 100 94 100 100 96 97 81 84 83 88 78 81 77 78 78 84 73 86 89 84 83 92 97 82 77 72 70 55 48 38 46 47 56 61 64 68 78 81 75 77 73 68 71 70 64
67 72 79 54 48 54 61 69 100 100 100 100 100 100 90 89 89 90 90 83 84 79 78 77 81 85 83 82 93 93 82 81 74 85 72 57 46 42 42 44 47 53 57 59 60 62 64 70 72 70 64 70 69 63
79 92 77 67 75 86 88 100 99 100 99 99 98 95 86 86 84 77 69 68 79 77 84 85 90 78 85 86 89 78 84 75 80 78 73 64 52 44 48 47 48 55 62 65 65 64 63 62 64 70 75 68 68 63
99 88 74 76 87 93 98 100 100 100 98 98 99 92 85 70 74 77 71 81 84 85 87 90 83 85 83 82 77 75 78 85 79 71 64 58 52 48 50 47 47 51 61 68 70 68 69 72 78 71 69 67 65 63
90 80 71 65 81 88 100 100 100 98 94 98 95 92 87 83 78 76 78 78 84 78 86 96 94 92 64 66 74 84 86 78 54 41 48 53 54 48 53 53 53 56 59 64 72 70 65 63 61 61 65 66 64 64
84 83 80 62 78 96 100 100 100 99 99 92 99 98 91 86 83 83 82 86 89 97 98 97 89 65 55 50 70 64 71 65 53 43 44 45 41 53 60 56 53 49 55 55 63 68 72 72 74 69 69 68 67 64
91 85 74 66 79 96 100 100 99 97 96 99 99 95 96 96 97 98 96 89 98 98 96 84 66 55 52 45 43 58 54 57 49 40 35 49 45 44 44 52 57 59 57 49 50 50 64 65 58 62 69 73 72 66
92 84 77 84 99 100 100 100 99 99 100 94 99 98 98 99 99 97 97 98 98 85 82 63 58 58 62 62 59 54 50 48 52 47 44 42 47 56 59 54 60 63 64 57 49 50 46 53 60 68 75 73 75 76
93 86 87 100 100 100 96 99 99 96 99 96 96 98 98 99 96 92 96 92 84 65 62 63 61 58 65 58 58 60 59 60 59 54 51 52 50 49 52 51 48 70 69 63 62 60 62 64 69 78 80 81 80 83
85 95 99 99 98 98 99 99 90 94 98 98 97 96 96 97 96 98 96 96 73 59 64 67 63 65 63 67 71 66 62 62 65 64 60 59 63 59 56 55 54 57 65 61 63 74 74 75 76 81 89 87 86 83
99 97 99 96 99 100 97 97 97 98 96 97 99 94 96 96 96 96 94 88 69 63 66 66 66 66 67 63 59 58 56 62 67 69 63 66 67 65 65 64 62 60 64 73 79 81 82 76 83 89 91 90 88 87
97 87 97 93 97 93 93 95 96 96 96 97 95 90 95 96 96 93 89 71 58 59 63 69 67 67 67 65 66 64 59 58 67 71 67 67 75 75 80 80 80 80 71 74 78 84 84 85 89 92 92 91 89 88
97 85 95 88 92 93 95 89 86 94 99 96 98 99 95 96 94 79 76 80 69 80 56 57 64 68 67 64 60 60 61 60 64 66 62 63 66 73 76 81 82 72 64 62 72 76 79 85 89 91 91 93 90 91
94 94 96 96 98 95 93 96 96 100 91 87 88 99 95 92 80 78 77 65 47 43 53 56 48 56 71 67 67 71 66 67 74 75 77 75 71 69 72 72 74 72 58 54 55 62 69 74 82 89 92 92 91 91
97 96 94 99 97 94 95 94 91 87 77 86 89 88 87 82 84 80 65 43 44 58 74 61 52 50 54 59 61 63 76 78 89 87 87 79 80 70 58 62 65 77 73 64 62 62 67 71 76 81 83 86 87 87
94 93 83 98 96 95 90 90 90 90 85 81 78 88 88 82 69 41 45 50 67 61 54 52 54 63 70 75 67 67 59 69 80 75 75 74 72 54 42 46 58 67 75 74 76 85 95 96 99 100 94 93 94 93
94 91 96 87 78 70 75 93 95 83 95 97 96 93 68 71 76 47 49 50 54 57 62 68 68 61 77 74 72 69 68 62 54 56 65 68 55 44 38 38 44 55 71 80 84 91 100 100 100 99 97 96 93 89
99 97 94 100 92 96 97 100 96 94 95 99 84 98 95 91 85 56 41 41 60 67 65 63 68 62 54 62 62 60 50 47 44 43 48 59 66 57 44 43 48 55 69 84 91 96 98 98 99 97 96 94 93 86
96 96 98 100 100 98 99 97 100 100 100 100 97 84 73 71 70 51 47 38 39 52 54 53 55 56 57 58 62 62 63 57 51 50 46 46 49 59 55 52 52 60 76 87 94 95 97 95 95 93 91 90 89 81

GFSWCAN_925_rhum_105.txt.gz
RH
99 99 94 90 98 97 97 81 81 83 81 80 50 67 86 80 73 56 63 58 72 52 44 51 47 49 54 48 37 44 46 53 48 46 37 32 38 32 40 28 29 32 40 47 43 47 58 34 44 32 24 27 32 36
99 98 98 93 89 98 98 93 82 85 83 82 76 46 81 87 85 72 66 56 61 66 53 58 51 51 47 42 45 52 48 44 41 40 38 37 38 36 31 25 31 38 23 22 28 30 27 34 24 27 29 30 33 35
92 82 81 93 92 95 98 100 89 85 86 84 85 57 57 87 88 85 75 58 75 64 54 62 54 57 62 59 56 46 48 51 55 55 45 42 50 36 36 34 29 29 26 35 28 20 23 23 24 27 33 34 31 34
70 68 70 91 96 98 97 98 100 91 90 85 84 83 56 82 90 90 90 77 74 66 72 51 57 60 64 68 65 59 58 65 58 56 54 52 48 37 37 31 38 25 35 33 30 26 25 24 24 24 26 28 34 35
63 64 70 82 93 97 94 99 99 99 92 90 86 85 63 62 78 84 89 87 75 72 72 60 56 67 71 70 69 68 62 57 58 67 69 64 47 54 43 48 53 32 34 37 30 23 22 22 28 34 37 38 38 40
64 65 74 80 85 88 99 96 99 100 98 91 89 87 74 59 75 86 68 70 62 66 74 73 66 64 73 71 68 66 63 60 60 63 62 55 58 52 57 47 31 32 29 26 26 30 28 28 34 35 41 38 40 43
66 67 64 74 85 85 96 100 100 100 100 97 91 91 76 64 85 76 70 68 52 56 63 81 72 68 69 70 70 70 71 65 65 66 68 58 63 69 67 53 26 32 32 33 31 34 43 41 41 43 43 44 50 52
65 69 68 96 91 89 88 91 96 100 100 100 96 94 74 73 85 87 87 79 72 70 66 98 88 60 67 68 69 67 70 70 69 67 68 72 66 72 78 49 38 32 36 37 37 38 40 40 47 48 48 52 58 59
59 64 65 77 97 99 98 99 94 99 100 100 100 89 75 98 88 85 80 83 79 74 88 88 91 91 70 70 69 74 68 81 66 79 70 71 68 92 66 55 46 42 48 47 49 46 44 50 49 48 50 54 59 54
58 60 63 62 73 92 98 99 100 100 100 100 91 83 92 92 85 83 90 79 79 73 76 89 71 83 69 71 74 71 72 77 88 70 70 82 78 56 48 48 46 44 46 49 59 66 66 68 64 51 52 53 55 56
56 56 61 64 61 69 90 94 97 100 100 90 94 94 87 83 81 71 85 89 79 92 76 77 77 72 65 79 72 67 88 81 92 82 83 78 76 57 47 47 45 42 44 46 48 49 51 52 52 51 55 58 61 63
58 54 56 63 66 61 65 89 99 100 93 89 89 89 80 82 89 97 94 84 92 86 71 77 71 65 68 67 70 80 86 85 94 77 87 91 70 56 51 52 46 45 47 52 51 53 47 50 51 57 60 63 66 66
59 57 54 54 59 60 57 87 100 100 100 94 94 100 100 92 100 96 96 93 90 78 82 78 84 65 74 75 72 78 94 91 69 84 79 70 57 48 41 41 46 54 55 56 59 61 63 64 63 64 68 68 68 69
70 58 53 55 63 55 53 60 96 100 93 99 100 100 99 97 92 84 76 83 73 76 81 73 80 74 67 81 69 92 68 70 87 97 78 67 56 51 42 45 45 39 60 77 81 70 73 85 78 68 67 66 67 68
78 71 64 69 50 46 47 62 92 100 93 100 100 98 97 81 84 85 95 82 77 68 74 77 80 65 83 86 74 82 83 93 76 73 73 74 55 48 40 39 42 44 50 58 63 78 84 79 79 73 64 64 70 69
77 84 86 54 37 44 63 87 98 100 100 100 100 99 92 95 97 89 89 87 80 73 73 76 86 86 84 82 86 88 76 78 78 88 75 57 48 43 40 39 42 41 50 54 54 55 62 70 72 70 63 62 68 69
87 90 78 55 65 86 85 94 98 100 100 100 99 90 84 80 77 73 65 60 68 76 86 88 96 86 82 83 81 69 80 81 86 81 74 59 56 52 46 43 44 47 50 57 57 57 57 57 63 68 74 59 60 65
96 89 74 63 73 91 82 84 100 100 99 97 97 83 84 71 69 61 55 67 74 75 89 98 93 96 92 82 70 71 74 77 75 67 62 60 53 48 51 47 45 45 51 58 63 65 67 72 78 69 64 64 66 66
93 86 70 63 74 79 99 100 100 100 96 97 89 84 82 77 68 62 61 68 64 70 84 99 98 94 83 67 62 69 82 76 49 43 44 44 46 47 51 49 48 53 56 58 62 61 59 58 58 56 56 60 66 65
88 89 82 67 70 79 100 100 100 100 96 74 86 84 84 81 70 74 72 76 79 95 98 97 85 63 62 49 54 55 51 48 45 50 42 36 40 47 64 62 58 50 50 49 58 61 59 61 61 56 58 61 66 64
95 90 82 83 85 79 100 100 99 95 99 93 95 92 94 96 98 99 97 88 97 98 95 84 68 54 49 46 42 45 47 46 42 42 37 39 36 50 55 54 55 55 56 53 49 47 52 56 44 46 56 67 66 65
86 83 87 83 95 100 99 98 100 96 98 97 99 100 99 98 95 97 99 98 96 81 78 62 59 56 56 56 53 50 52 54 53 51 50 50 55 54 53 52 60 64 62 58 49 44 41 41 44 51 62 64 66 73
91 97 100 100 100 99 93 98 98 92 92 82 97 98 96 95 94 93 97 94 84 69 63 62 59 55 60 55 56 59 59 62 62 60 56 55 53 54 58 58 56 70 71 64 58 59 60 57 56 60 64 72 80 81
99 100 100 99 98 91 97 96 95 86 93 93 92 81 78 88 92 97 94 73 62 56 59 63 62 62 60 63 66 63 60 59 63 64 62 62 66 62 57 57 56 57 59 60 61 64 69 68 65 71 79 86 86 82
100 98 99 96 89 89 96 90 95 96 93 91 82 81 90 91 96 94 84 65 63 60 59 57 61 64 67 63 59 58 55 57 64 68 62 62 64 64 67 67 64 62 61 67 72 70 74 79 79 82 87 87 86 86
98 84 93 89 91 91 86 91 92 89 72 84 90 80 92 94 96 92 67 55 52 54 58 60 61 62 63 64 66 65 61 58 62 69 65 63 65 73 82 80 79 74 70 69 72 76 79 82 84 86 88 87 85 87
84 83 93 77 76 84 87 82 79 87 95 96 88 93 94 96 92 78 51 62 55 57 52 57 62 67 66 63 59 60 58 61 64 67 64 66 65 69 75 82 81 74 71 70 74 82 84 86 84 87 86 89 88 90
85 87 95 83 95 84 83 80 88 88 94 88 85 95 96 94 71 57 76 58 45 49 54 48 52 58 69 67 65 63 60 59 70 72 74 72 65 60 69 73 80 78 76 72 66 75 81 81 81 85 89 90 92 93
90 79 77 82 94 97 92 89 89 79 69 83 84 80 80 74 56 57 58 45 39 52 75 69 60 61 65 64 64 69 74 76 83 81 76 71 73 72 58 61 82 77 75 78 69 63 68 72 75 79 83 86 90 92
86 72 72 76 81 82 68 82 78 68 72 66 62 63 69 59 52 47 53 60 68 69 61 60 61 66 70 67 63 57 61 75 76 68 66 66 66 49 55 53 60 78 79 74 73 77 88 91 94 97 94 95 97 98
68 81 78 71 71 66 62 69 86 73 83 90 86 80 69 58 52 51 58 57 59 63 70 72 66 61 65 63 65 65 63 54 60 61 64 62 59 54 53 50 45 57 70 77 80 84 96 100 97 97 97 97 96 95
93 80 74 81 78 68 89 94 91 90 71 78 79 78 78 82 76 59 46 46 61 66 63 63 67 60 49 50 52 57 56 58 59 57 54 67 75 67 62 54 44 55 67 77 85 91 96 96 97 96 96 95 95 94
96 89 84 84 79 80 87 93 95 90 88 88 80 74 73 73 76 56 43 40 44 49 50 48 48 51 52 52 55 56 61 62 56 56 62 60 56 58 65 61 50 49 62 81 88 94 97 94 94 95 94 94 94 91

GFSWCAN_925_rhum_108.txt.gz
RH
98 98 97 90 89 98 100 96 83 79 83 80 78 49 76 80 64 55 69 57 71 82 66 48 45 50 56 56 47 54 59 64 61 62 48 46 51 44 45 34 48 61 73 78 70 69 73 42 45 37 31 32 33 37
98 99 93 80 90 91 99 99 99 84 83 84 82 71 49 78 80 70 66 61 57 77 72 56 49 46 52 57 61 54 60 48 53 58 54 48 54 45 42 45 31 43 34 39 50 56 37 45 36 39 33 36 36 36
96 89 79 74 91 92 98 99 100 98 88 87 82 81 61 61 68 81 81 72 74 81 75 70 63 56 53 52 55 69 60 62 59 70 70 61 67 51 55 51 34 33 30 45 34 26 24 35 39 38 38 42 38 38
91 75 63 72 88 92 94 98 100 100 99 92 87 84 82 56 63 70 94 88 77 74 89 67 56 59 59 60 62 62 62 61 61 69 73 74 67 47 54 47 44 39 36 42 44 32 29 26 26 30 32 35 37 37
68 61 60 74 84 88 89 92 94 98 100 98 92 88 83 69 56 73 97 98 86 81 91 84 56 69 67 67 67 66 65 67 72 80 87 85 67 60 64 65 57 41 34 43 34 31 31 30 30 34 37 39 44 44
63 63 58 67 77 86 85 88 92 98 100 100 97 87 86 77 56 82 90 76 61 70 90 96 70 64 71 70 68 67 68 73 76 79 84 76 66 64 82 76 47 44 32 29 33 30 31 33 34 38 42 44 44 47
58 61 61 59 60 76 81 84 90 98 100 100 100 91 88 79 61 84 89 76 60 62 83 92 94 71 69 70 72 76 71 79 81 84 87 78 78 76 91 68 38 37 38 37 33 32 42 41 44 45 46 46 49 55
58 63 64 63 74 85 84 84 84 86 97 100 100 97 92 79 72 85 87 84 86 75 74 98 97 77 69 81 85 73 84 82 87 89 82 83 81 88 97 66 56 47 41 44 42 42 43 45 46 48 49 56 60 68
60 60 62 60 64 82 96 99 99 98 97 99 100 99 84 89 88 90 81 81 84 82 100 100 99 96 76 81 82 84 80 86 80 92 86 86 90 97 78 68 62 57 53 54 50 55 53 52 56 56 57 61 68 70
59 61 62 63 61 67 81 98 98 98 96 100 97 82 85 90 83 84 89 90 93 91 92 99 91 96 84 83 86 84 85 86 84 84 82 91 88 68 59 56 53 56 57 55 58 63 60 67 69 64 62 60 63 66
61 63 62 62 60 55 69 89 94 99 99 95 91 93 88 81 82 83 94 92 91 98 91 92 92 93 78 93 92 82 97 85 91 93 94 93 92 75 54 56 52 56 56 57 58 60 55 59 65 64 60 58 66 67
61 64 64 64 62 57 65 78 84 96 96 94 89 86 80 86 99 98 98 96 94 89 88 91 86 85 82 81 90 88 96 91 94 91 90 94 83 65 57 56 58 54 50 53 57 60 60 58 57 62 65 68 68 67
63 62 61 62 58 52 64 74 88 99 100 91 94 100 99 98 100 98 96 93 92 93 93 90 93 83 84 86 89 90 99 92 78 95 93 86 75 62 62 48 46 48 55 60 61 60 63 67 65 63 70 66 66 69
70 70 65 60 57 53 56 68 86 100 90 100 100 98 98 98 96 91 90 94 92 94 94 89 92 89 80 90 83 100 82 78 95 94 90 88 72 65 59 51 54 47 48 73 84 79 74 86 82 71 67 65 65 68
75 71 70 70 50 42 49 72 95 98 94 100 100 98 95 89 95 96 99 92 91 84 89 90 95 83 95 98 88 92 90 95 92 88 88 88 66 58 48 41 42 45 49 57 60 74 87 78 84 76 63 64 64 64
84 86 81 61 46 47 52 75 91 95 100 100 99 98 95 99 97 97 96 97 92 86 90 94 92 96 95 95 98 95 92 90 80 89 87 78 58 54 50 44 42 44 45 53 56 56 59 65 74 71 64 64 64 64
94 89 73 57 63 72 84 85 90 100 100 100 98 91 92 94 94 95 91 86 77 90 96 98 99 91 97 98 97 87 90 82 88 91 91 72 61 59 57 52 47 45 46 47 51 52 54 53 58 63 77 56 58 53
95 84 72 60 73 75 76 81 98 99 98 96 97 87 92 86 85 80 77 83 91 92 96 98 98 98 96 96 90 86 83 82 86 83 72 70 65 63 58 56 50 43 47 48 49 50 57 69 84 75 65 55 63 55
92 90 83 68 73 73 93 96 99 95 91 95 94 94 91 88 84 76 77 76 76 82 96 99 99 98 92 88 70 69 72 91 66 55 63 59 55 57 52 50 52 55 51 54 58 62 54 46 49 51 54 54 69 64
87 88 88 76 74 91 100 99 100 99 98 83 95 91 96 94 85 88 86 87 86 95 99 97 88 73 76 61 69 68 76 74 72 69 57 50 47 45 58 58 60 54 57 55 59 63 63 60 58 54 59 62 68 65
94 89 87 85 96 100 99 96 99 98 93 95 98 94 93 98 96 93 93 94 92 97 85 87 74 58 53 49 47 51 55 56 55 56 56 58 50 48 51 55 58 67 76 67 59 55 54 61 57 57 58 65 64 64
92 83 85 87 100 100 99 93 89 95 97 96 97 98 99 95 92 92 97 98 97 85 84 69 64 60 62 62 59 56 54 55 57 61 61 61 68 66 66 63 67 71 72 69 64 60 56 52 50 47 54 58 59 65
89 89 100 100 99 99 94 91 98 96 96 92 98 96 94 97 96 98 98 97 79 68 67 69 66 62 67 60 60 61 61 64 68 66 62 62 61 62 66 66 64 77 77 71 68 71 70 65 62 59 55 60 69 81
84 99 99 98 98 97 98 96 86 95 92 84 88 72 80 72 72 85 82 76 68 65 71 74 74 73 69 70 72 68 62 61 70 69 69 73 78 73 69 69 66 64 66 68 67 70 70 71 70 69 69 72 76 82
96 97 99 96 98 98 97 99 96 99 95 88 83 86 93 97 90 94 92 67 62 58 60 65 63 66 70 66 62 61 56 62 73 72 66 66 73 74 76 74 72 70 69 74 77 78 78 76 76 78 77 82 85 92
96 81 97 94 97 97 93 96 91 90 77 82 90 90 97 93 89 91 85 59 53 53 53 53 56 62 66 66 68 67 64 60 62 82 68 69 72 78 88 92 86 78 71 72 78 80 80 80 83 86 86 86 83 88
96 88 96 90 89 91 94 88 82 91 94 94 92 96 98 96 88 68 45 44 53 59 46 52 65 68 67 65 63 61 61 59 58 60 54 57 58 61 74 84 83 72 66 71 71 75 83 84 88 89 89 90 89 88
89 84 84 81 94 91 85 85 95 96 94 94 99 99 93 91 84 88 73 50 49 48 50 43 58 62 66 66 64 65 61 57 58 62 67 74 69 64 67 79 77 61 68 81 76 74 75 79 87 89 90 92 92 88
90 70 70 81 87 94 86 88 75 78 65 86 75 68 60 45 45 53 47 48 44 51 69 59 55 54 58 65 63 67 68 72 85 86 81 73 63 53 45 56 60 60 66 79 84 79 76 71 80 83 82 86 86 88
90 74 70 76 80 86 68 77 70 54 55 55 54 56 56 54 47 42 48 54 73 81 68 64 61 63 68 66 66 63 62 65 74 81 81 70 62 51 51 55 56 62 70 79 86 86 89 89 90 95 94 94 96 98
84 80 92 76 74 67 62 54 68 58 75 70 66 71 65 58 52 51 53 54 62 64 71 74 66 64 71 72 71 66 60 48 46 48 52 62 65 66 68 65 66 66 68 77 85 82 90 96 93 94 96 97 97 97
88 72 71 76 73 61 80 92 89 83 71 74 77 71 74 82 78 62 49 52 59 64 61 64 71 68 57 56 55 56 55 58 57 55 53 54 62 58 64 66 75 69 61 77 86 88 83 90 95 94 94 94 93 96
97 92 88 82 78 72 88 88 94 90 77 76 74 69 70 71 79 66 45 42 47 55 58 57 55 53 55 56 59 59 58 58 58 58 58 61 64 63 64 69 77 75 69 80 89 88 96 96 94 93 92 90 94 94

GFSWCAN_925_rhum_111.txt.gz
RH
99 98 99 94 86 97 98 97 99 86 82 82 76 68 46 62 68 59 68 57 63 87 83 50 46 53 60 61 53 52 50 64 73 65 62 58 56 49 48 45 70 75 89 94 89 93 81 43 44 32 24 34 30 34
96 99 99 84 71 82 98 96 95 94 87 84 81 75 62 52 56 70 67 68 64 75 67 64 55 50 48 50 66 62 53 61 68 70 65 64 55 58 54 44 37 49 53 66 69 66 41 48 35 40 34 33 34 36
96 92 90 74 66 80 89 98 97 99 97 86 85 79 78 56 52 61 82 82 75 90 85 78 66 58 58 56 53 59 70 61 68 74 79 72 71 66 62 64 42 34 37 41 33 29 33 31 37 44 41 40 39 40
97 90 80 63 66 74 83 90 96 96 100 99 90 84 77 77 52 58 84 95 84 88 92 76 60 58 58 56 59 62 65 65 70 81 79 82 76 62 66 51 54 46 38 43 46 33 32 30 31 32 35 43 46 45
94 80 63 62 71 70 80 81 91 94 98 97 100 95 85 80 64 60 93 97 90 83 87 90 70 68 65 64 66 66 66 74 83 82 85 90 85 69 72 76 59 48 39 46 39 26 31 31 32 33 33 35 38 40
79 65 61 60 61 58 67 76 82 95 97 98 99 97 92 84 74 78 92 65 67 76 90 95 75 70 70 70 70 71 74 80 86 88 90 89 74 68 89 91 63 52 41 35 33 30 35 36 34 36 36 40 42 45
67 62 61 58 55 55 60 74 80 86 93 99 99 99 94 88 79 70 90 77 74 69 88 93 91 77 71 73 80 84 78 87 87 87 92 88 82 78 92 94 45 47 46 46 45 43 44 42 43 42 45 44 48 52
63 61 62 62 63 70 76 82 81 80 84 95 99 100 97 90 82 90 86 79 83 80 82 99 96 85 72 87 89 86 90 88 89 91 89 86 85 89 97 74 70 65 63 61 56 52 47 45 46 48 49 56 56 62
62 61 60 57 59 70 85 99 100 98 92 97 99 100 94 84 90 90 83 79 86 82 97 99 100 91 77 86 88 88 87 93 85 96 91 89 92 98 82 75 72 68 69 64 61 57 55 57 60 59 59 61 66 68
65 62 61 60 59 64 73 90 91 92 92 100 99 88 89 90 85 86 91 91 94 93 96 99 95 95 87 88 90 92 90 84 96 87 85 92 90 72 64 60 60 62 65 68 79 66 58 61 64 63 64 65 65 67
61 62 61 58 61 64 63 83 90 99 97 96 91 95 89 82 82 87 94 91 94 99 96 95 96 93 82 90 92 87 97 88 89 84 94 91 95 80 64 67 60 60 61 61 67 67 68 67 69 69 69 63 67 68
62 63 60 56 55 62 63 82 92 98 95 92 89 86 82 88 99 99 98 97 97 85 91 95 90 91 86 85 90 88 94 86 95 93 92 94 84 68 70 66 63 58 60 56 53 58 62 65 65 67 68 70 68 67
58 64 62 59 56 59 65 73 89 90 88 93 91 100 99 98 99 99 98 95 96 95 95 92 90 85 84 87 91 93 96 94 84 97 95 88 72 67 69 65 58 57 54 60 63 65 71 71 69 70 73 66 66 70
70 70 73 67 54 57 61 61 68 100 87 98 97 89 97 97 94 93 92 92 89 96 94 91 94 92 89 94 90 100 85 84 98 99 88 87 69 68 62 57 49 42 46 64 79 72 75 81 81 73 70 68 69 69
71 73 78 68 55 58 62 69 91 91 91 100 100 94 92 86 96 97 98 92 90 90 90 91 94 88 96 99 97 96 96 99 94 86 85 81 66 66 57 54 45 42 43 46 52 68 80 72 82 77 62 62 65 66
86 85 73 52 52 68 71 71 95 90 98 96 100 96 93 91 93 98 96 96 93 89 93 95 94 96 97 97 98 100 97 95 77 89 87 77 61 60 56 58 55 48 44 44 43 50 54 59 65 61 52 56 58 61
88 82 63 65 72 67 73 95 84 96 98 95 95 90 93 98 93 97 92 87 85 88 91 98 99 92 93 99 99 92 92 77 78 84 93 75 69 65 64 66 64 56 52 45 41 40 50 48 52 66 76 49 49 48
93 79 71 72 78 83 81 86 98 97 95 89 95 96 93 89 92 87 89 92 93 95 97 96 96 99 98 97 91 88 87 85 84 74 69 79 73 67 63 70 62 57 56 54 51 49 51 58 79 73 62 52 57 54
92 81 68 72 83 78 96 100 98 93 87 89 97 97 92 89 91 82 86 85 82 85 96 100 99 95 82 84 79 76 76 80 62 58 65 70 64 67 64 59 60 63 62 61 58 58 52 48 48 54 55 55 64 58
85 85 84 80 80 97 99 98 100 97 94 91 98 100 94 91 87 92 89 92 91 100 99 95 80 72 92 77 79 66 55 59 83 77 64 55 53 58 66 63 60 56 61 62 65 67 68 69 65 61 61 60 61 62
90 86 86 90 92 100 100 98 98 95 80 94 99 95 90 99 97 100 100 96 95 87 86 71 66 58 52 48 46 48 53 68 66 60 58 62 54 54 59 62 63 68 78 70 72 70 68 71 60 58 60 66 66 68
89 85 88 89 99 100 99 100 92 94 96 91 97 96 98 99 97 96 94 97 87 79 74 69 65 63 63 62 58 57 58 59 61 64 64 65 73 68 65 63 75 78 77 76 74 73 69 66 65 64 61 63 62 65
91 86 93 96 99 99 95 97 98 98 98 99 96 98 100 99 94 97 98 87 81 67 63 64 64 64 69 66 66 66 65 67 75 70 65 62 62 66 70 72 73 81 82 75 74 78 79 75 75 74 74 71 67 68
84 97 99 98 98 97 98 98 98 100 100 98 98 90 84 88 94 99 92 64 57 67 78 76 80 76 72 74 78 74 68 65 68 66 68 73 80 77 72 74 74 76 77 76 78 79 78 80 78 78 80 82 80 80
99 98 99 98 98 99 97 97 97 100 100 96 91 94 92 96 100 100 91 62 59 59 59 58 63 65 73 68 63 61 56 61 81 79 66 69 73 73 77 78 77 76 75 81 86 84 83 86 84 83 83 86 85 85
96 89 95 91 96 98 94 97 99 98 96 97 91 88 100 95 93 82 82 56 54 58 63 64 65 63 64 63 63 61 58 57 64 86 84 77 76 81 82 81 77 66 58 69 84 88 87 85 88 88 89 86 85 98
96 96 93 88 89 94 97 93 82 93 91 94 90 88 97 96 90 67 51 46 56 50 45 50 57 62 59 58 54 57 58 66 78 68 61 66 62 61 70 76 73 58 54 59 67 79 82 84 87 87 89 89 92 92
94 91 92 90 99 94 85 93 95 90 69 75 96 100 92 79 57 46 55 39 41 42 50 51 61 61 69 72 67 62 66 67 65 69 76 76 71 64 60 56 53 55 55 65 76 87 89 87 86 86 87 90 90 87
100 88 86 84 88 99 94 84 72 69 48 64 64 60 56 47 46 49 42 41 42 44 66 59 57 56 57 55 60 67 77 79 89 84 80 75 65 58 51 47 50 51 50 56 63 82 93 86 84 81 81 86 83 86
77 78 79 75 83 82 62 75 69 53 53 56 54 54 54 53 46 42 46 47 58 68 60 64 61 61 69 68 64 57 57 59 74 81 75 69 64 53 48 45 50 54 56 62 68 80 92 96 91 94 91 91 94 96
86 79 84 71 70 64 61 54 54 51 55 62 61 67 65 59 51 46 49 51 56 60 63 67 66 67 72 67 67 71 69 55 58 61 64 69 69 65 58 53 53 55 61 69 76 89 95 97 95 92 93 94 94 96
90 79 73 82 73 63 77 89 94 91 72 76 76 69 69 72 76 62 50 53 58 66 61 61 66 62 53 55 58 60 58 58 59 56 53 55 59 57 56 58 58 60 66 75 83 91 95 97 94 94 93 93 91 94
98 98 76 78 78 80 69 82 89 91 71 72 71 67 67 68 73 54 43 45 50 55 57 57 57 58 59 59 58 59 63 66 63 64 60 59 62 64 66 67 68 69 74 84 92 93 95 96 93 96 96 88 88 91

GFSWCAN_925_rhum_114.txt.gz
RH
96 98 98 99 90 81 98 91 90 94 88 85 82 74 56 48 54 61 67 64 60 84 77 59 47 56 62 65 51 45 51 60 78 67 65 60 61 52 51 48 72 80 92 97 92 97 80 49 44 31 26 31 32 30
88 92 98 100 84 70 89 96 90 88 87 85 86 81 74 50 42 57 66 74 72 73 64 68 59 57 53 52 61 68 48 64 64 71 74 70 61 66 59 42 53 55 52 69 73 68 46 47 37 35 36 33 29 34
88 89 88 94 78 66 81 95 96 93 87 86 85 85 80 77 51 47 66 84 79 89 79 74 69 60 59 59 59 65 68 67 71 72 77 74 70 67 64 68 45 39 47 51 42 36 41 40 39 42 43 44 40 41
94 91 84 84 70 63 71 88 94 96 94 90 90 88 85 78 72 58 82 96 88 91 88 67 62 62 61 59 58 60 63 70 75 82 76 78 75 62 65 53 55 45 42 46 50 36 31 29 30 32 35 40 46 48
99 98 90 78 60 62 62 65 75 84 91 99 94 93 87 85 78 65 83 73 84 75 75 84 76 69 66 64 66 67 68 78 84 81 87 87 88 80 81 82 90 60 50 54 43 31 34 33 31 34 36 32 35 41
100 100 89 67 60 60 59 62 65 76 90 96 100 100 95 92 82 80 91 60 71 76 85 84 78 72 71 70 72 74 76 83 86 86 89 90 81 73 90 93 67 60 52 44 41 46 45 43 44 39 41 40 41 46
100 93 75 66 59 56 57 59 65 73 82 94 98 98 98 97 87 70 81 78 80 77 87 88 89 78 73 76 84 86 82 90 88 89 94 90 85 82 92 97 57 54 60 61 59 62 55 50 50 45 48 46 45 49
87 83 75 71 69 67 75 76 76 76 82 85 93 100 100 99 90 91 87 80 85 85 83 97 91 86 73 89 88 90 91 90 89 91 90 92 83 91 98 78 73 67 64 64 64 63 63 59 62 57 51 58 57 63
80 76 71 69 71 77 86 95 99 99 96 98 99 99 100 89 87 90 84 78 85 83 98 99 100 91 78 88 90 88 90 90 86 96 94 89 92 98 82 78 72 66 70 66 67 67 70 76 67 66 65 65 67 70
87 75 71 70 65 66 70 80 88 90 94 100 99 92 94 93 88 85 88 89 93 94 96 99 97 98 86 90 91 92 92 86 86 90 84 96 94 76 67 63 64 64 64 69 70 69 78 78 78 73 69 70 72 71
86 80 71 67 63 58 58 74 92 96 93 91 93 96 94 87 82 87 96 93 94 99 97 95 97 95 86 89 90 89 97 91 96 91 94 90 94 79 63 67 68 65 63 66 64 69 68 75 83 83 78 72 73 72
75 70 66 64 61 60 58 69 92 93 95 93 90 87 83 88 100 99 98 98 98 90 90 97 92 92 88 87 91 90 91 88 95 92 93 95 84 68 63 65 58 58 58 57 53 60 64 73 72 78 77 73 69 66
69 66 62 60 57 54 61 96 99 97 93 90 85 100 100 97 100 100 100 94 95 96 96 94 90 86 86 87 91 94 98 95 86 99 98 86 68 62 62 64 55 50 46 52 56 57 61 68 66 69 74 67 66 67
72 70 63 58 58 55 57 63 68 92 84 99 100 97 95 95 83 92 93 92 89 96 96 91 96 93 91 94 91 98 89 88 100 98 85 85 64 57 67 58 54 50 47 52 59 53 64 69 72 65 65 60 65 71
80 77 71 65 60 56 53 58 80 92 92 99 100 93 82 80 96 97 98 93 91 90 92 94 94 89 97 98 97 97 99 97 98 89 86 83 60 62 57 56 58 61 57 53 46 58 56 53 64 65 53 60 64 64
82 66 58 55 68 66 63 83 100 93 93 95 98 99 92 98 86 99 97 96 94 90 94 94 96 97 97 98 98 95 97 99 84 90 90 79 65 67 56 63 62 62 63 59 54 49 45 47 53 51 45 48 52 63
77 63 63 72 71 65 74 78 79 98 98 91 98 87 93 98 93 95 94 85 86 89 89 97 99 91 96 98 96 94 94 87 85 76 94 79 73 64 71 76 72 67 66 63 61 57 56 51 52 60 75 48 46 52
77 60 66 77 79 94 100 96 98 96 95 88 90 88 89 84 89 90 92 94 93 92 92 94 92 100 99 97 79 83 89 86 78 75 68 71 70 76 72 76 66 65 66 68 64 64 63 66 74 69 61 56 56 60
87 74 77 82 81 78 99 97 97 94 89 95 95 93 94 93 93 83 86 86 85 86 93 99 99 93 84 80 70 69 74 83 76 69 56 52 66 73 69 69 69 72 72 72 68 64 60 60 63 61 61 60 66 59
85 79 76 76 87 95 100 98 100 95 94 91 99 100 97 94 89 94 90 91 97 98 100 98 70 62 68 60 81 88 84 69 60 58 50 47 47 51 59 63 64 62 69 69 70 70 74 80 74 74 73 72 74 72
93 93 87 89 92 90 98 98 98 97 91 96 96 98 93 98 97 100 99 95 99 96 85 77 68 61 55 52 51 52 55 56 58 54 57 64 57 58 60 61 63 66 84 78 77 73 74 78 73 72 73 74 72 73
83 84 91 94 99 98 98 96 97 98 98 96 97 97 92 94 98 99 98 100 98 72 66 63 65 63 63 62 59 57 57 58 60 62 65 66 74 73 71 67 69 74 74 74 76 81 80 80 80 80 83 83 80 78
87 85 96 100 99 99 93 98 99 98 99 97 98 97 93 100 94 95 96 89 73 53 56 60 60 61 68 64 65 65 64 66 69 66 66 66 66 68 70 70 69 76 82 79 79 84 84 78 81 84 84 86 88 87
100 100 99 98 98 94 99 92 98 100 97 98 100 100 89 93 96 99 89 68 52 52 57 60 60 65 63 69 78 75 69 67 68 68 69 73 79 76 71 70 70 73 80 82 79 79 83 83 82 87 89 90 90 90
99 98 98 97 90 95 99 99 97 100 96 98 98 94 90 94 89 100 93 62 57 55 57 56 62 68 72 62 57 54 52 57 67 72 67 70 72 72 80 83 81 79 77 78 82 81 82 80 83 92 89 91 92 91
97 95 95 91 98 94 95 100 100 96 99 100 97 87 100 94 99 87 84 56 52 52 52 53 56 60 64 65 68 66 60 56 60 80 71 80 81 83 86 84 84 76 67 62 66 78 76 73 82 88 89 90 89 94
96 96 97 86 89 94 94 94 83 91 93 96 90 97 98 94 93 74 59 53 53 45 43 49 56 62 61 58 57 58 58 58 64 62 59 60 66 71 71 79 78 70 64 66 65 68 75 78 83 86 87 90 91 89
92 92 98 94 98 98 88 99 96 94 88 89 91 99 93 86 59 45 49 34 34 35 42 45 45 51 62 62 61 61 65 60 64 66 65 71 79 81 76 74 74 65 68 74 74 71 76 84 92 95 95 96 92 86
100 96 89 95 100 100 94 85 74 67 45 59 68 55 51 40 41 45 39 38 39 46 56 55 52 56 62 58 65 67 62 69 91 86 85 78 66 58 49 46 49 53 56 57 51 54 62 77 87 100 100 97 89 81
99 88 87 92 89 92 77 79 75 51 51 54 53 53 53 52 46 42 46 48 53 58 54 52 52 54 60 61 62 55 54 59 69 79 81 75 65 53 52 52 54 54 54 56 59 60 63 70 83 96 100 93 88 88
89 85 88 86 74 59 58 51 54 49 54 61 60 66 65 60 52 48 49 50 51 53 57 62 60 58 62 65 68 70 69 57 58 61 63 67 67 68 67 63 60 62 63 64 67 70 74 81 95 99 98 95 91 94
92 84 76 86 68 58 76 90 84 89 66 70 74 69 71 74 79 61 50 52 58 65 61 60 64 64 58 59 60 61 59 60 61 60 57 59 66 62 60 62 64 69 70 72 75 76 81 92 98 100 98 94 89 94
100 100 86 77 80 83 76 77 90 96 87 71 69 67 68 69 73 53 42 44 50 52 55 57 58 59 59 60 61 62 63 64 63 63 65 65 65 66 70 71 72 76 78 79 80 82 88 97 100 99 97 92 92 95

GFSWCAN_925_rhum_117.txt.gz
RH
90 90 93 97 98 90 77 92 93 93 93 87 82 75 68 43 35 52 66 66 63 80 72 65 50 60 68 66 50 43 50 58 77 64 63 61 60 54 52 47 72 83 94 98 92 98 71 51 45 29 24 25 32 30
95 88 88 96 99 88 69 86 92 91 92 92 88 84 75 68 42 38 61 73 72 74 66 68 65 65 59 50 58 71 46 64 67 70 76 70 62 73 60 41 59 55 56 69 76 67 45 46 42 34 38 39 40 35
95 92 84 89 92 87 67 80 90 93 91 93 95 92 86 77 70 50 63 77 77 87 75 67 72 62 61 61 62 64 70 67 74 68 74 75 63 67 61 67 46 45 50 54 44 30 49 44 45 45 41 41 37 46
91 92 82 80 83 84 64 68 77 86 90 91 91 94 89 87 79 68 75 81 83 90 85 65 64 64 64 61 61 64 63 73 78 82 76 77 70 61 64 55 55 44 46 47 54 40 33 28 31 33 36 41 42 42
91 92 88 86 78 77 63 67 73 71 75 94 96 90 91 89 85 74 60 67 84 71 76 78 75 69 68 66 66 67 70 78 83 82 87 87 85 84 85 84 89 61 49 50 49 42 42 43 39 46 48 47 43 44
91 90 92 97 90 70 63 66 70 70 72 86 98 98 93 93 87 78 89 59 67 67 82 85 76 73 74 73 74 77 79 87 87 83 86 88 82 77 90 92 66 63 56 54 55 54 59 56 54 49 50 53 48 49
98 96 96 97 86 71 66 64 68 70 74 79 97 94 96 92 91 77 81 76 80 81 88 88 90 78 73 78 86 88 85 92 88 89 93 92 87 86 92 97 61 54 59 66 66 68 60 57 59 58 62 60 55 54
100 100 100 96 79 66 59 58 71 76 78 76 89 92 99 99 96 92 88 82 84 84 86 96 90 88 74 89 89 92 92 91 90 92 92 94 86 92 98 78 70 66 65 61 62 61 68 66 70 72 68 65 66 67
100 100 93 78 68 63 66 72 70 71 89 92 98 95 100 92 88 91 84 79 84 83 99 96 100 92 81 92 91 90 90 94 90 93 94 90 92 98 81 77 72 67 68 68 66 69 68 72 69 69 75 72 72 73
96 87 84 74 71 72 77 82 77 91 97 99 97 97 96 92 89 88 84 86 93 94 96 98 98 97 87 91 92 93 92 94 97 89 88 98 93 74 68 66 70 69 68 69 71 58 59 62 60 66 76 80 82 82
90 86 84 81 74 70 73 80 91 95 94 94 93 96 93 86 84 87 96 95 92 92 96 95 98 96 87 90 92 91 97 93 91 92 96 94 93 76 62 61 62 62 62 61 67 69 70 70 70 76 76 77 75 72
94 91 87 83 74 71 71 91 99 93 90 85 83 86 83 87 99 99 99 98 99 93 94 98 95 93 90 89 91 93 93 87 94 92 96 93 85 67 60 56 53 53 47 47 44 53 54 61 65 79 82 79 71 64
88 82 77 75 74 73 76 94 99 88 84 83 78 98 95 94 99 99 97 96 97 94 96 97 93 89 89 88 92 94 97 94 86 96 97 88 70 62 59 63 56 52 48 52 53 50 48 51 49 58 68 59 62 65
78 78 77 72 66 66 81 97 93 94 84 98 88 100 92 94 90 91 93 91 88 96 96 91 96 95 93 94 91 98 93 91 94 99 88 86 68 54 60 59 59 58 61 66 68 57 59 59 59 50 53 47 53 70
82 79 77 75 63 60 61 61 84 88 88 93 99 94 96 86 96 94 98 99 94 91 93 94 94 90 98 97 93 97 99 94 96 92 87 86 62 60 65 63 62 66 67 67 60 68 66 61 63 62 49 48 52 53
79 80 79 72 65 62 68 94 90 83 95 95 99 97 91 94 94 98 95 97 93 90 95 94 98 95 98 99 99 94 95 91 85 91 90 79 65 66 65 72 72 68 69 66 65 66 66 64 65 61 58 58 56 57
84 72 67 65 70 74 84 79 73 97 93 92 84 91 97 97 94 97 92 88 86 88 90 95 98 95 96 100 97 93 95 88 88 88 92 84 86 64 72 71 67 72 74 74 73 72 71 67 67 72 76 61 62 63
75 76 78 75 83 95 94 90 92 87 93 89 93 96 86 85 89 87 91 93 92 92 90 84 91 100 99 95 90 89 91 92 90 82 70 66 75 70 64 76 68 72 73 71 73 73 74 76 82 78 73 70 69 72
67 69 79 86 82 77 98 98 92 91 87 94 96 96 92 89 91 83 86 85 87 86 93 99 94 98 82 85 76 76 87 92 75 61 56 55 58 57 55 56 64 73 77 75 74 74 69 72 75 75 76 78 82 78
76 78 85 83 77 86 99 98 97 91 95 91 98 98 96 95 90 92 89 92 98 99 100 100 80 64 70 62 71 66 60 58 63 69 61 53 48 51 58 63 65 66 69 70 74 78 78 78 76 82 82 83 89 86
92 84 84 85 90 94 89 96 96 96 92 99 91 98 97 99 98 100 99 97 98 97 99 87 64 54 49 50 48 49 52 55 60 58 58 61 54 56 61 64 68 69 72 74 77 76 73 77 76 79 84 84 82 83
92 94 98 97 99 100 98 87 96 97 99 96 99 99 100 100 99 98 100 98 99 86 80 60 58 59 60 60 57 56 57 58 60 61 61 62 68 70 71 67 69 76 74 76 76 77 76 76 79 83 87 87 87 90
92 89 95 99 98 98 88 90 94 94 100 97 98 96 94 99 96 94 96 92 78 60 55 56 53 52 57 53 54 58 61 64 68 67 65 64 64 67 71 72 73 79 83 78 76 78 82 81 84 86 87 87 89 92
80 96 98 98 95 94 98 97 97 97 96 100 100 100 100 99 97 99 92 81 55 51 53 56 54 60 59 66 75 70 62 60 65 67 71 77 80 74 72 79 89 82 77 77 78 81 84 85 86 87 86 87 88 92
98 98 98 97 98 98 90 98 98 96 99 100 100 97 90 96 91 100 93 68 60 57 55 52 55 60 61 54 55 53 50 57 64 66 60 64 74 74 75 83 80 77 75 86 89 88 84 82 84 85 84 86 89 88
97 97 94 91 98 93 92 100 100 98 98 100 98 92 100 98 96 92 87 56 52 52 53 54 53 56 59 64 64 60 55 52 59 74 66 64 67 69 78 81 81 73 64 73 76 85 82 79 80 78 78 78 81 84
96 96 97 87 87 93 95 93 84 95 100 97 94 100 100 95 93 78 58 58 52 47 42 46 53 58 59 54 49 51 53 53 60 56 54 53 62 65 70 80 80 67 58 63 68 75 80 80 81 84 85 84 86 91
92 94 93 93 98 99 90 100 99 94 88 87 90 92 90 84 56 43 52 36 35 36 39 42 46 53 52 52 50 51 54 52 56 68 74 71 71 75 77 76 72 63 68 77 78 80 84 88 92 90 88 88 88 92
98 98 88 100 99 100 96 86 83 82 55 71 69 57 52 41 40 44 36 36 36 43 50 51 49 48 55 59 60 61 64 62 67 79 81 79 67 57 54 52 49 50 60 52 46 61 72 76 83 84 83 92 98 98
95 92 94 98 95 94 78 86 82 54 62 54 51 50 51 51 45 42 45 47 52 57 53 53 53 56 63 63 65 60 58 65 75 74 75 71 63 55 57 56 56 54 53 54 59 62 65 70 73 75 79 90 97 100
97 95 94 93 87 66 62 55 59 54 64 67 61 68 63 56 47 45 48 49 51 54 58 64 62 61 64 66 69 70 70 61 62 62 63 67 68 68 68 67 69 69 68 68 72 77 78 81 84 86 91 100 100 100
96 92 91 92 70 61 85 86 90 91 66 65 67 64 66 70 76 57 45 48 59 68 63 63 69 68 63 63 64 64 63 63 63 62 60 63 72 66 60 62 70 73 74 75 79 83 85 88 91 91 94 94 96 98
100 99 98 90 88 83 91 79 88 96 83 72 68 65 68 69 73 57 38 40 46 51 53 54 54 54 56 59 62 63 65 67 66 65 67 68 68 67 67 70 74 76 77 80 83 86 89 92 94 95 95 95 97 97

GFSWCAN_925_rhum_120.txt.gz
RH
82 92 85 92 97 99 93 82 92 97 95 90 86 81 74 59 39 52 62 64 66 73 67 68 54 64 72 65 48 47 52 57 76 61 60 62 61 58 55 49 80 86 96 96 89 97 61 51 44 30 24 32 34 39
87 98 89 86 93 99 98 72 87 95 96 94 92 87 82 75 67 48 54 66 68 74 61 70 70 68 60 51 59 70 46 61 67 66 75 70 64 77 60 39 63 59 60 73 78 67 46 44 43 35 42 47 47 48
83 97 98 89 89 95 95 70 79 91 95 95 94 94 88 84 78 70 67 77 79 82 70 66 76 66 65 64 64 64 74 70 74 70 75 74 61 64 59 64 47 47 55 57 46 33 46 44 45 46 43 39 43 45
83 94 99 89 82 88 91 70 74 86 92 96 98 94 90 86 86 75 63 70 82 87 76 64 67 67 66 62 63 66 64 77 79 83 78 75 65 60 63 56 56 46 53 50 54 41 44 31 38 41 43 52 57 54
81 95 95 92 84 80 86 71 72 81 79 91 99 96 92 84 86 80 56 74 75 77 79 79 75 71 70 68 67 68 72 78 82 78 84 82 81 81 88 84 88 64 50 53 54 46 53 58 56 59 66 61 60 64
86 92 92 92 88 81 81 69 72 72 71 82 99 94 90 84 83 80 86 60 74 72 81 89 79 76 76 75 77 81 81 87 86 81 83 84 81 78 90 88 63 64 57 55 59 56 67 64 64 57 65 64 68 72
87 88 88 90 92 94 85 74 69 67 65 70 89 93 89 86 90 83 86 80 81 82 88 89 92 80 75 80 88 89 86 94 88 89 92 92 88 89 91 94 62 57 57 64 67 69 63 58 65 64 66 64 68 67
83 84 88 92 94 96 85 71 65 61 66 76 89 88 86 88 93 94 87 82 84 82 86 95 91 87 76 89 90 93 93 91 92 92 92 94 88 93 98 77 70 66 65 61 67 64 66 65 69 59 58 67 74 72
84 87 95 99 100 97 77 67 61 68 78 87 98 94 95 91 91 91 85 80 83 84 98 94 98 89 83 94 93 91 91 93 92 93 94 91 92 98 80 74 67 65 70 72 72 61 58 65 64 64 66 71 78 74
91 99 99 100 100 91 68 66 72 79 96 100 97 94 93 93 90 84 84 86 93 94 96 96 97 99 87 92 94 94 93 96 98 90 91 99 96 79 73 70 72 71 65 64 56 55 56 60 60 58 64 72 81 80
98 100 100 100 91 80 78 70 80 91 100 99 98 97 96 89 84 87 98 94 92 93 96 94 96 98 88 92 93 92 95 93 87 90 94 92 96 79 65 59 58 56 51 54 62 62 65 68 68 66 64 66 71 71
100 100 96 86 83 80 82 83 95 98 87 84 84 87 86 88 97 96 97 97 99 83 93 99 96 95 93 91 92 95 96 88 97 91 89 93 86 70 64 49 48 52 48 50 47 52 53 55 57 64 67 65 60 58
100 98 94 91 84 77 81 90 95 83 81 81 80 99 91 93 96 97 95 92 98 90 97 99 96 91 90 87 94 94 96 91 88 94 94 90 73 64 60 59 58 56 59 61 65 60 60 60 59 62 65 57 58 61
100 100 99 100 94 80 71 96 92 88 80 93 94 100 93 96 96 93 93 93 91 97 98 92 97 96 93 94 91 98 92 92 94 99 94 90 72 61 62 66 65 65 66 75 72 64 68 69 70 64 61 57 60 64
100 99 94 88 84 86 89 90 97 86 81 93 96 96 98 88 96 95 97 99 96 94 94 95 95 90 98 97 88 92 99 94 92 94 90 87 63 63 65 69 64 70 70 73 63 68 70 72 74 72 66 62 64 68
91 94 87 91 81 75 71 84 91 80 98 93 98 94 91 93 95 98 98 97 95 91 95 92 97 94 100 95 97 87 87 88 86 91 91 80 70 68 70 70 71 67 69 73 74 69 70 74 75 72 72 75 70 70
83 83 86 81 76 95 97 78 71 97 95 97 93 92 92 93 95 97 91 91 89 96 95 96 97 91 95 97 98 94 93 86 89 90 89 79 81 80 84 72 60 61 67 64 69 74 75 72 76 83 85 69 70 72
77 81 79 82 86 88 74 87 90 94 100 94 95 92 90 86 91 88 90 93 92 93 91 93 92 100 99 95 95 90 93 93 90 84 83 79 60 45 51 59 59 63 64 64 70 71 76 84 88 86 77 76 77 78
74 79 78 84 73 70 96 97 85 95 94 96 94 96 91 87 89 82 86 88 89 87 94 98 96 99 87 88 89 89 88 91 72 64 55 49 52 57 58 62 64 68 71 71 74 76 72 73 77 78 78 81 85 84
73 82 88 86 70 76 100 99 95 95 99 91 98 100 97 94 91 91 91 96 98 99 100 99 96 70 77 74 80 74 65 63 65 65 59 49 46 49 59 62 64 62 67 70 74 76 75 76 79 79 82 88 92 91
89 94 91 83 81 81 93 96 96 95 93 99 93 98 97 99 100 100 100 98 99 98 98 91 72 58 51 50 47 48 49 51 58 57 56 58 52 55 60 63 68 70 74 76 78 74 73 77 77 76 78 81 85 89
84 88 87 81 97 98 93 84 91 96 100 96 100 99 99 99 98 98 99 100 100 81 77 59 57 56 58 57 54 52 52 54 56 60 60 60 69 68 69 66 72 79 76 76 77 78 80 81 80 81 84 87 89 92
88 81 95 100 97 95 92 88 86 95 98 92 98 99 99 97 97 96 98 97 90 82 58 59 58 56 58 53 54 57 58 61 63 58 56 58 60 64 70 73 74 80 83 79 79 84 85 81 81 82 85 91 94 95
92 99 98 97 93 98 97 96 97 98 91 95 98 100 100 100 99 100 96 89 54 58 57 60 60 64 60 62 67 63 58 57 63 64 66 71 76 70 68 74 75 74 76 78 86 87 82 80 78 84 89 93 95 93
98 98 98 97 99 98 92 97 98 93 98 93 100 100 94 97 96 100 100 78 64 54 54 55 58 60 62 56 54 52 50 53 60 62 57 60 67 71 72 70 71 70 70 81 86 82 80 81 81 89 92 90 92 87
96 97 95 91 99 93 94 99 96 98 98 100 100 96 100 100 99 88 85 52 49 53 56 56 55 54 56 57 61 58 51 48 56 67 59 56 62 69 76 75 72 63 54 61 72 77 76 73 74 80 86 86 86 84
96 96 97 87 88 92 96 93 89 96 100 96 93 100 100 95 94 82 56 67 53 48 40 46 52 57 57 50 44 45 48 51 56 52 46 45 49 58 66 71 69 58 54 57 61 68 74 75 76 79 82 84 88 91
96 95 96 99 99 97 96 100 96 93 88 89 88 91 90 86 63 42 50 33 32 36 41 45 48 49 49 48 46 47 49 49 49 52 57 60 59 62 66 66 66 64 63 68 71 74 79 82 86 88 91 94 92 87
95 91 88 100 100 100 96 86 87 85 71 84 82 61 58 41 40 45 38 38 41 46 54 52 48 46 50 54 56 60 63 65 68 74 75 74 68 61 59 66 68 65 67 78 69 68 67 75 84 90 92 95 94 93
100 89 92 100 100 98 88 87 86 72 78 60 59 68 52 51 44 42 46 49 54 58 53 52 53 56 63 64 66 62 61 63 72 74 77 77 70 64 65 65 63 60 63 63 64 63 63 78 74 74 78 82 85 89
94 93 94 96 90 86 69 77 80 62 77 86 70 71 64 57 49 46 48 49 51 53 57 63 62 62 66 69 73 74 73 64 66 67 70 73 73 72 72 70 70 72 72 73 72 74 80 83 85 86 91 92 90 91
100 96 93 94 90 84 86 86 90 92 90 86 65 80 64 76 70 54 41 44 54 65 63 63 68 66 61 64 66 68 69 68 69 68 65 69 73 75 75 74 75 77 78 80 78 80 86 89 92 93 95 94 92 92
100 100 99 95 89 82 92 74 83 98 92 82 61 59 63 71 78 75 36 35 37 50 57 53 55 60 62 63 68 69 68 68 68 68 72 73 74 72 71 73 76 79 80 80 84 88 90 91 95 95 95 96 97 97

GFSWCAN_925_rhum_123.txt.gz
RH
75 78 82 94 87 91 98 99 87 90 94 93 90 86 80 74 59 52 58 60 62 70 62 67 57 63 71 63 47 51 57 60 75 58 56 60 59 59 54 55 83 90 95 96 88 95 57 52 44 31 26 39 39 45
75 78 83 92 92 87 97 100 82 88 93 94 95 93 88 84 76 63 54 69 70 70 61 73 74 71 65 55 58 71 44 59 66 63 72 67 64 77 59 37 65 58 61 69 74 64 45 46 37 40 44 48 49 47
73 76 84 92 94 88 94 98 81 85 94 100 98 99 96 88 85 73 68 69 76 79 67 69 76 66 65 64 66 65 76 70 72 70 75 73 59 64 60 62 46 50 58 58 50 49 47 43 42 45 42 47 48 57
74 74 78 86 97 90 88 94 85 83 94 99 98 97 90 87 86 79 59 71 78 84 72 67 70 69 67 64 63 66 64 77 78 80 76 73 62 60 58 55 56 45 57 54 54 41 47 40 46 60 62 63 65 64
80 75 73 81 98 90 87 90 85 76 90 96 100 96 91 88 81 85 60 70 73 73 76 80 77 73 73 68 68 70 73 79 83 79 82 78 82 77 88 84 88 62 50 49 52 46 56 59 58 63 64 59 57 71
83 80 73 80 96 92 85 86 82 75 74 77 89 89 88 88 82 84 84 65 80 79 83 90 80 77 78 77 78 82 82 88 86 80 83 86 80 78 87 83 63 68 59 57 60 55 63 64 68 62 67 62 60 68
85 82 75 74 92 95 90 84 77 72 72 75 72 92 89 87 83 85 88 80 89 83 86 88 92 81 78 81 89 90 87 94 88 88 90 91 88 89 91 93 65 64 60 63 64 61 45 52 54 64 66 58 60 67
87 86 82 77 91 95 93 91 77 73 69 71 85 87 87 82 86 94 89 82 80 79 85 94 90 86 78 88 90 94 93 92 92 92 95 94 90 94 99 81 72 64 62 66 62 65 64 65 66 58 54 59 69 65
93 88 82 81 91 95 93 94 79 72 74 76 89 89 88 88 90 91 85 82 83 80 94 92 98 88 84 96 93 92 91 93 94 95 94 91 93 98 83 75 65 63 58 56 65 56 52 56 62 63 62 63 69 65
91 84 80 84 90 98 100 97 80 77 87 92 88 93 94 94 91 85 82 85 93 95 96 93 97 97 87 93 95 94 93 97 99 91 93 97 95 80 74 73 71 68 58 56 48 55 54 64 66 66 66 69 74 76
83 83 83 84 96 99 100 88 78 91 98 98 99 98 97 90 82 88 97 93 92 93 96 96 95 97 89 92 94 92 96 95 92 90 94 87 95 80 68 60 60 52 45 45 51 56 60 67 72 70 70 67 66 64
92 95 97 90 100 99 99 91 91 98 96 81 83 87 86 87 96 96 98 96 96 92 94 98 97 96 93 92 94 96 96 92 93 93 94 90 85 70 63 52 51 54 50 52 51 58 58 60 62 68 72 69 65 62
97 100 100 100 100 100 92 92 100 91 82 80 84 97 91 98 99 98 89 89 88 93 98 99 99 94 93 90 96 95 97 94 90 96 90 91 75 67 62 61 57 55 58 61 61 56 54 58 55 64 70 65 65 68
100 100 100 100 99 93 98 99 98 88 83 93 93 99 90 98 96 93 91 91 91 96 98 92 98 96 94 96 93 97 90 88 96 96 95 90 72 64 63 68 70 66 67 72 71 62 64 66 70 67 64 65 70 76
100 99 100 99 99 100 99 99 99 94 81 98 94 93 99 89 96 94 96 97 97 94 95 95 97 91 99 98 87 91 98 96 88 93 91 86 68 64 64 65 71 74 75 78 67 70 69 68 74 77 71 69 72 77
100 99 100 100 99 99 99 100 98 92 90 94 97 95 90 93 96 99 100 97 96 94 96 96 96 94 100 94 96 88 88 86 86 93 92 80 72 72 74 73 73 67 69 70 67 68 72 81 80 70 72 76 77 74
94 100 100 99 100 100 100 97 85 95 95 96 96 91 94 96 95 95 92 93 95 99 98 98 97 92 94 97 98 95 89 88 90 92 93 76 72 74 78 78 78 74 72 73 73 73 71 66 68 81 84 72 74 77
92 98 85 93 91 87 74 74 92 94 99 98 96 97 96 86 89 90 92 95 96 97 96 94 92 100 98 95 94 90 95 94 93 85 79 81 82 79 66 65 59 62 65 67 66 66 71 78 83 83 80 79 79 79
90 88 84 83 76 58 95 97 87 93 96 97 96 95 93 88 87 85 89 92 90 88 94 98 99 100 96 92 89 90 90 91 79 59 60 56 56 57 56 57 59 65 67 68 68 68 67 69 74 78 79 80 85 86
80 89 89 72 66 77 98 99 88 94 100 96 98 100 98 96 95 93 95 98 98 98 100 96 96 80 84 70 78 66 58 57 67 68 62 52 46 49 54 58 61 59 65 66 71 73 75 78 79 80 80 83 89 88
98 100 88 74 78 79 93 98 96 95 98 98 99 97 98 98 100 100 100 99 100 100 98 92 78 62 53 50 46 47 51 55 61 59 58 59 50 51 57 59 64 72 73 73 74 72 73 79 77 76 79 82 83 85
97 88 82 74 94 97 93 90 92 97 97 98 100 97 100 100 98 97 99 100 99 92 89 67 58 61 58 56 51 52 55 57 59 61 59 59 67 65 64 64 69 77 76 76 74 76 76 76 77 78 84 86 86 88
84 71 88 98 93 89 88 88 86 94 99 98 98 99 96 97 98 96 100 99 95 86 72 63 56 54 60 55 57 61 61 63 64 60 58 57 56 57 61 64 67 74 79 74 74 81 83 78 78 80 81 83 86 89
73 85 99 99 94 92 98 98 97 98 96 95 92 100 100 100 98 100 96 92 75 74 77 66 63 66 61 64 72 65 60 57 61 62 60 62 70 66 62 65 67 69 73 75 76 78 79 80 81 81 79 83 88 90
97 98 96 98 99 97 97 99 98 96 93 87 98 100 99 99 98 100 100 82 85 62 60 66 71 65 64 59 55 52 48 53 58 61 54 55 61 63 64 64 64 62 65 76 79 80 82 81 81 78 78 86 90 90
96 97 95 92 99 92 90 98 98 96 97 99 100 98 100 100 100 90 88 80 60 61 60 63 54 55 56 56 58 55 47 44 49 63 57 53 55 60 69 69 66 58 55 67 76 78 80 80 78 75 73 76 80 80
96 96 97 90 89 90 97 93 90 97 100 96 93 100 100 98 91 80 72 83 70 42 33 40 50 57 56 48 42 42 43 44 48 48 46 48 50 52 59 66 66 56 52 54 59 66 72 71 70 72 72 77 81 84
97 96 94 99 99 96 100 100 93 92 84 85 88 100 89 85 76 61 72 28 27 28 33 36 42 49 52 53 50 51 52 52 53 55 58 60 60 62 65 64 64 62 62 64 68 69 71 74 78 78 82 87 88 86
96 93 91 96 97 100 91 89 89 86 69 81 83 82 77 74 57 69 34 35 38 47 60 58 52 51 54 56 59 61 66 69 76 81 81 78 71 64 62 64 67 70 71 72 72 78 80 84 87 88 88 92 91 93
98 93 94 96 94 93 87 83 82 78 80 72 68 78 64 59 40 38 44 49 55 58 55 55 56 61 66 66 67 64 63 64 69 77 83 79 71 65 67 68 71 71 71 75 76 75 69 79 79 81 76 81 83 86
96 94 95 96 94 88 80 89 85 66 82 88 87 75 59 56 46 44 47 50 54 56 60 64 63 63 68 71 75 78 76 63 63 64 67 72 75 79 86 81 79 80 82 93 97 95 82 83 84 85 89 91 87 91
100 94 92 95 91 89 92 89 92 90 91 97 67 92 92 87 87 48 31 33 51 64 61 61 69 67 59 62 60 61 65 68 69 75 81 86 92 92 99 99 94 92 91 97 98 93 88 90 92 93 93 93 91 90
98 98 99 96 92 83 91 80 87 93 95 96 84 75 77 81 77 74 32 33 33 42 48 42 40 44 47 46 52 54 60 68 69 77 92 99 99 95 88 88 88 86 85 87 90 90 92 92 94 93 94 94 93 93

GFSWCAN_925_rhum_126.txt.gz
RH
75 78 78 76 82 95 86 91 98 95 91 95 93 88 83 78 71 55 58 63 61 56 51 63 54 54 59 49 37 53 57 59 56 43 36 38 39 39 43 44 62 59 66 68 66 69 50 40 43 33 32 37 39 37
84 76 76 74 79 90 94 90 98 90 84 100 96 93 90 84 79 68 59 69 68 61 57 72 75 71 67 54 42 63 40 50 46 41 47 46 46 49 39 27 54 46 45 45 48 39 39 41 37 38 40 43 43 44
90 85 74 71 78 89 98 86 98 96 84 99 100 97 94 88 85 74 68 68 71 67 61 66 69 68 67 66 66 53 61 59 59 57 48 49 44 44 39 38 35 44 48 44 46 41 43 33 38 39 43 47 44 43
92 89 82 71 73 84 96 89 91 96 83 99 98 98 89 86 84 82 62 70 74 71 62 60 71 70 69 67 66 67 62 73 67 63 58 52 44 46 38 42 39 36 46 44 42 36 38 38 40 49 50 47 46 46
99 91 87 80 70 84 95 95 90 96 82 96 95 94 94 89 84 83 64 70 76 69 65 67 77 74 76 70 68 72 74 69 66 70 69 60 61 56 66 67 58 43 37 35 31 37 44 43 43 50 46 44 45 50
100 96 88 83 75 72 84 97 93 94 80 99 100 95 92 90 88 86 77 64 80 79 76 74 77 74 80 79 80 80 78 73 69 63 66 69 71 66 69 61 50 51 43 37 46 46 47 46 50 48 49 47 46 50
100 100 91 82 83 72 74 97 91 92 79 82 82 91 91 89 87 87 79 75 87 79 76 82 83 75 80 79 81 77 82 79 72 72 76 72 75 78 76 70 55 53 49 54 53 50 44 45 42 48 48 48 51 55
100 100 96 83 82 80 75 98 92 91 80 80 85 92 90 85 86 93 88 83 82 76 78 93 89 79 79 76 77 84 80 78 79 78 82 81 80 84 90 66 57 60 53 53 50 50 48 49 47 47 52 50 48 44
100 100 99 86 85 82 78 93 98 87 84 83 94 96 93 89 93 92 84 81 81 76 88 93 92 86 79 87 83 82 80 82 83 84 82 84 82 93 70 65 65 56 46 48 48 44 42 46 50 49 51 47 50 46
100 100 100 90 88 80 79 90 100 88 86 93 99 94 95 94 90 86 84 80 85 86 87 89 87 94 77 83 84 82 82 82 92 81 84 91 84 69 63 62 58 58 52 48 48 52 54 58 52 50 52 52 54 54
100 100 100 93 89 87 81 96 100 89 96 97 97 95 99 95 83 84 92 90 88 92 90 91 86 90 83 83 80 82 87 86 92 84 90 80 83 72 64 66 62 46 42 44 45 48 50 53 56 55 53 54 57 60
100 100 100 95 90 90 89 100 100 98 92 84 87 89 88 88 94 90 96 91 90 85 94 90 90 84 85 81 81 88 89 87 91 85 87 87 72 66 54 52 50 47 48 49 50 52 52 53 54 59 60 61 61 61
100 100 100 96 88 99 100 100 99 94 92 90 91 98 95 98 97 98 90 89 89 90 97 96 98 86 87 80 86 85 94 88 81 90 86 75 68 62 54 53 54 55 55 58 57 57 55 57 56 63 63 64 64 63
96 100 91 87 88 100 100 100 100 98 88 100 100 97 95 96 90 86 75 81 82 86 92 85 95 86 84 88 83 97 85 82 92 91 87 71 65 56 54 54 56 50 55 67 69 63 66 68 68 60 62 63 67 66
97 96 96 93 96 100 100 100 100 90 99 100 100 96 96 81 90 86 90 92 95 83 86 88 91 80 92 93 82 88 96 95 81 81 74 72 60 55 53 54 56 56 55 56 58 64 68 68 73 72 67 67 72 71
100 100 99 98 100 100 100 100 98 99 100 100 98 96 90 90 98 98 97 95 92 86 88 83 92 95 94 89 92 92 88 86 76 82 72 61 60 60 60 60 61 59 58 58 59 60 62 66 67 66 66 69 70 72
91 99 100 100 100 100 100 96 100 100 99 98 97 95 92 93 91 87 80 84 86 89 94 93 96 94 92 94 91 77 83 75 78 77 73 68 62 60 63 64 66 66 65 66 66 68 68 64 67 75 77 64 66 73
100 100 100 100 100 99 99 100 98 97 97 97 94 96 94 86 88 90 90 93 96 95 92 93 86 97 97 92 86 78 81 84 80 72 64 62 60 60 64 63 58 59 62 64 66 66 72 76 78 72 68 68 70 74
100 100 100 99 95 96 99 99 92 95 96 95 95 93 90 87 87 83 87 89 88 83 91 94 96 99 87 78 77 81 81 78 58 44 47 53 59 58 58 61 62 66 67 64 62 59 56 58 65 70 70 72 77 77
100 100 99 76 62 90 98 99 93 93 95 93 94 96 91 89 88 89 92 94 95 95 97 95 84 73 71 60 74 66 64 63 59 56 50 44 43 49 60 60 54 53 57 57 61 65 67 68 67 69 74 77 79 78
99 93 78 68 78 80 94 97 96 95 95 94 97 92 97 96 97 96 100 93 99 99 95 84 76 63 56 50 45 54 54 56 54 52 51 54 47 48 52 54 59 62 65 66 65 63 63 64 63 64 69 72 72 73
99 78 70 66 92 90 95 94 94 96 92 98 97 93 99 98 97 96 96 99 97 88 82 72 65 58 56 55 54 52 49 54 56 60 60 58 61 60 58 58 63 69 68 68 68 67 64 62 65 67 71 72 74 78
73 63 80 89 90 85 98 95 93 92 94 100 95 95 95 97 96 94 99 97 89 82 75 70 54 49 55 52 57 57 58 62 61 57 56 55 55 56 61 62 59 67 73 67 64 67 69 67 68 72 75 76 75 75
62 78 93 98 90 100 96 97 94 95 93 94 94 98 99 98 94 100 96 86 73 70 75 71 61 62 56 64 63 55 51 52 60 60 58 58 62 58 54 54 52 53 59 60 62 64 65 67 70 72 74 75 75 77
86 88 88 100 98 94 99 98 97 93 92 92 96 98 97 96 99 100 100 86 77 61 54 59 64 61 55 51 49 48 44 50 54 55 47 46 49 52 55 56 54 54 55 61 66 67 69 70 73 76 76 77 78 80
96 96 96 93 97 90 93 98 98 95 88 96 97 93 98 97 100 92 84 78 56 55 52 58 56 54 58 56 52 48 42 40 48 59 53 48 50 56 66 66 63 57 53 54 62 69 71 70 71 73 75 75 74 74
96 98 98 83 86 86 94 90 86 93 100 100 98 100 100 97 92 77 67 72 64 43 26 28 43 51 47 39 36 40 44 45 49 48 46 48 51 53 56 63 64 56 54 56 59 63 66 67 69 70 72 73 73 75
97 96 96 98 97 95 99 99 96 98 90 86 89 100 94 83 70 71 69 28 26 23 24 26 28 40 44 44 45 46 49 52 56 60 62 66 67 66 66 67 66 66 68 70 70 72 73 74 74 75 77 78 79 81
98 92 86 98 98 98 91 87 87 82 73 84 83 83 81 72 74 63 33 27 27 38 46 46 42 44 51 53 60 61 63 69 74 85 84 77 71 65 62 66 66 72 74 75 76 81 82 88 94 90 88 88 88 91
97 91 92 95 95 95 88 83 88 87 80 75 75 74 69 65 36 31 35 43 53 54 47 49 52 59 66 68 69 66 67 70 74 77 81 78 70 64 67 73 76 79 85 90 98 98 95 91 96 98 98 93 92 91
96 94 94 93 92 89 87 89 88 69 83 88 89 80 60 68 46 42 45 46 49 53 60 65 64 67 73 72 75 78 76 62 56 56 63 69 67 74 79 86 91 98 99 99 99 99 98 98 98 98 98 95 91 91
100 95 94 100 94 91 91 94 94 89 94 93 70 92 91 89 86 71 33 30 47 68 59 59 69 65 50 58 56 58 58 62 67 65 63 68 76 84 92 100 100 98 98 98 99 99 99 99 97 97 98 96 94 93
97 98 100 98 95 89 93 85 92 90 94 97 87 84 80 77 72 68 25 25 27 30 37 32 30 32 32 35 42 44 47 51 55 60 66 84 93 93 98 100 97 98 100 99 99 99 99 99 98 99 98 98 96 96